[[{"header":{"parameterUnit":"m.s-1","parameterCategory":1,"la1":30.6,"la2":29.2853,"lo1":-89.7004,"lo2":-87.6739,"dx":0.0162,"dy":0.0183,"nx":112,"ny":82,"refTime":"2022-11-02T18:00:00:Z","depth":0,"parameterNumber":2,"parameterNumberName":"U-component_of_WINDS"},"data":[0.0,0.0,0.0,0.0,0.0,0.0,0.0,0.0,0.0,0.0,0.0,0.0,0.0,0.0,0.0,0.0,0.0,0.0,0.0,0.0,0.0,0.0,0.0,0.0,0.0,0.0,0.0,0.0,0.0,0.0,0.0,0.0,0.0,0.0,0.0,0.0,0.0,0.0,0.0,0.0,0.0,0.0,0.0,0.0,0.0,0.0,0.0,0.0,0.0,0.0,0.0,0.0,0.0,0.0,0.0,0.0,0.0,0.0,0.0,0.0,0.0,0.0,0.0,0.0,0.0,0.0,0.0,0.0,0.0,0.0,0.0,0.0,0.0,0.0,0.0,0.0,0.0,0.0,0.0,0.0,0.0,0.0,0.0,0.0,0.0,0.0,0.0,0.0,0.0,0.0,-2.0212,-2.1822,-2.3674,-2.4632,-2.4167,-2.4054,-2.2347,-1.8455,0.0,0.0,0.0,0.0,0.0,0.0,0.0,0.0,0.0,0.0,0.0,0.0,0.0,0.0,0.0,0.0,0.0,0.0,0.0,0.0,0.0,0.0,0.0,0.0,0.0,0.0,0.0,0.0,0.0,0.0,0.0,0.0,0.0,0.0,0.0,0.0,0.0,0.0,0.0,0.0,0.0,0.0,0.0,0.0,0.0,0.0,0.0,0.0,0.0,0.0,0.0,0.0,0.0,0.0,0.0,0.0,0.0,0.0,0.0,0.0,0.0,0.0,0.0,0.0,0.0,0.0,0.0,0.0,0.0,0.0,0.0,0.0,0.0,0.0,0.0,0.0,0.0,0.0,0.0,0.0,0.0,0.0,0.0,0.0,0.0,0.0,0.0,0.0,0.0,0.0,0.0,0.0,0.0,0.0,0.0,0.0,0.0,0.0,0.0,0.0,0.0,0.0,0.0,0.0,-2.0811,-2.3958,-2.4601,-2.4763,-2.4675,-2.4268,-2.2347,-1.8455,0.0,0.0,0.0,0.0,0.0,0.0,0.0,0.0,0.0,0.0,0.0,0.0,0.0,0.0,0.0,0.0,0.0,0.0,0.0,0.0,0.0,0.0,0.0,0.0,0.0,0.0,0.0,0.0,0.0,0.0,0.0,0.0,0.0,0.0,0.0,0.0,0.0,0.0,0.0,0.0,0.0,0.0,0.0,0.0,0.0,0.0,0.0,0.0,0.0,0.0,0.0,0.0,0.0,0.0,0.0,0.0,0.0,0.0,0.0,0.0,0.0,0.0,0.0,0.0,0.0,0.0,0.0,0.0,0.0,0.0,0.0,0.0,0.0,0.0,0.0,0.0,0.0,0.0,0.0,0.0,0.0,0.0,0.0,0.0,0.0,0.0,0.0,0.0,0.0,0.0,0.0,0.0,0.0,0.0,0.0,0.0,0.0,0.0,0.0,0.0,0.0,0.0,0.0,-2.0319,-2.1805,-2.4883,-2.5523,-2.5586,-2.5272,-2.4757,-2.2661,-1.8468,-1.7438,0.0,0.0,0.0,0.0,0.0,0.0,0.0,0.0,0.0,0.0,0.0,0.0,0.0,0.0,0.0,0.0,0.0,0.0,0.0,0.0,0.0,0.0,0.0,0.0,0.0,0.0,0.0,0.0,0.0,0.0,0.0,0.0,0.0,0.0,0.0,0.0,0.0,0.0,0.0,0.0,0.0,0.0,0.0,0.0,0.0,0.0,0.0,0.0,0.0,0.0,0.0,0.0,0.0,0.0,0.0,0.0,0.0,0.0,0.0,0.0,0.0,0.0,0.0,0.0,0.0,0.0,0.0,0.0,0.0,0.0,0.0,0.0,0.0,0.0,0.0,0.0,0.0,0.0,0.0,0.0,0.0,0.0,0.0,0.0,0.0,0.0,0.0,0.0,0.0,0.0,0.0,0.0,0.0,0.0,0.0,0.0,0.0,0.0,0.0,0.0,0.0,0.0,-2.1531,-2.3088,-2.5536,-2.6223,-2.626,-2.5649,-2.5121,-2.2957,-1.8668,-1.789,0.0,0.0,0.0,0.0,0.0,0.0,0.0,0.0,0.0,0.0,0.0,0.0,0.0,0.0,0.0,0.0,0.0,0.0,0.0,0.0,0.0,0.0,0.0,0.0,0.0,0.0,0.0,0.0,0.0,0.0,0.0,0.0,0.0,0.0,0.0,0.0,0.0,0.0,0.0,0.0,0.0,0.0,0.0,0.0,0.0,0.0,0.0,0.0,0.0,0.0,0.0,0.0,0.0,0.0,0.0,0.0,0.0,0.0,0.0,0.0,0.0,0.0,0.0,0.0,0.0,0.0,0.0,0.0,0.0,0.0,0.0,0.0,0.0,0.0,0.0,0.0,0.0,0.0,0.0,0.0,0.0,0.0,0.0,0.0,0.0,0.0,0.0,0.0,0.0,0.0,0.0,0.0,0.0,0.0,0.0,0.0,0.0,0.0,0.0,0.0,0.0,0.0,-2.2334,-2.4701,-2.626,-2.6461,-2.626,-2.5649,-2.5121,-2.312,-1.9196,-1.8455,0.0,0.0,0.0,0.0,0.0,0.0,0.0,0.0,0.0,0.0,0.0,0.0,0.0,0.0,0.0,0.0,0.0,0.0,0.0,0.0,0.0,0.0,0.0,0.0,0.0,0.0,0.0,0.0,0.0,0.0,0.0,0.0,0.0,0.0,0.0,0.0,0.0,0.0,0.0,0.0,0.0,0.0,0.0,0.0,0.0,0.0,0.0,0.0,0.0,0.0,0.0,0.0,0.0,0.0,0.0,0.0,0.0,0.0,0.0,0.0,0.0,0.0,0.0,0.0,0.0,0.0,0.0,0.0,0.0,0.0,0.0,0.0,0.0,0.0,0.0,0.0,0.0,0.0,0.0,0.0,0.0,0.0,0.0,0.0,0.0,0.0,0.0,0.0,0.0,0.0,0.0,0.0,0.0,0.0,0.0,0.0,0.0,0.0,0.0,0.0,0.0,0.0,-2.3276,-2.4865,-2.6336,-2.7115,-2.7256,-2.6691,-2.5824,-2.3653,-1.9748,0.0,0.0,0.0,0.0,0.0,0.0,0.0,0.0,0.0,0.0,0.0,0.0,0.0,0.0,0.0,0.0,0.0,0.0,0.0,0.0,0.0,0.0,0.0,0.0,0.0,0.0,0.0,0.0,0.0,0.0,0.0,0.0,0.0,0.0,0.0,0.0,0.0,0.0,0.0,0.0,0.0,0.0,0.0,0.0,0.0,0.0,0.0,0.0,0.0,0.0,0.0,0.0,0.0,0.0,0.0,0.0,0.0,0.0,0.0,0.0,0.0,0.0,0.0,0.0,0.0,0.0,0.0,0.0,0.0,0.0,0.0,0.0,0.0,0.0,0.0,0.0,0.0,0.0,0.0,0.0,0.0,0.0,0.0,0.0,0.0,0.0,0.0,0.0,0.0,0.0,0.0,0.0,0.0,0.0,0.0,0.0,0.0,0.0,0.0,0.0,0.0,0.0,-2.2723,-2.4519,-2.6047,-2.7404,-2.7871,-2.7946,-2.7582,-2.6339,-2.4017,-2.0313,0.0,0.0,0.0,0.0,0.0,0.0,0.0,0.0,0.0,0.0,0.0,0.0,0.0,0.0,0.0,0.0,0.0,0.0,0.0,0.0,0.0,0.0,0.0,0.0,0.0,0.0,0.0,0.0,0.0,0.0,0.0,0.0,0.0,0.0,0.0,0.0,0.0,0.0,0.0,0.0,0.0,0.0,0.0,0.0,0.0,0.0,0.0,0.0,0.0,0.0,0.0,0.0,0.0,0.0,0.0,0.0,0.0,0.0,0.0,0.0,0.0,0.0,0.0,0.0,0.0,0.0,0.0,0.0,0.0,0.0,0.0,0.0,0.0,0.0,0.0,0.0,0.0,0.0,0.0,0.0,0.0,0.0,0.0,0.0,0.0,0.0,0.0,0.0,0.0,0.0,0.0,0.0,0.0,0.0,0.0,0.0,0.0,0.0,0.0,0.0,0.0,0.0,-2.2531,-2.6038,-2.8549,-2.9691,-2.88,-2.8122,-2.8122,-2.6578,-2.4236,0.0,0.0,0.0,0.0,0.0,0.0,0.0,0.0,0.0,0.0,0.0,0.0,0.0,0.0,0.0,0.0,0.0,0.0,0.0,0.0,0.0,0.0,0.0,0.0,0.0,0.0,0.0,0.0,0.0,0.0,0.0,0.0,0.0,0.0,0.0,0.0,0.0,0.0,0.0,0.0,0.0,0.0,0.0,0.0,0.0,0.0,0.0,0.0,0.0,0.0,0.0,0.0,0.0,0.0,0.0,0.0,0.0,0.0,0.0,0.0,0.0,0.0,0.0,0.0,0.0,0.0,0.0,0.0,0.0,0.0,0.0,0.0,0.0,0.0,0.0,0.0,0.0,0.0,0.0,0.0,0.0,0.0,0.0,0.0,0.0,0.0,0.0,0.0,0.0,0.0,0.0,0.0,0.0,0.0,0.0,0.0,0.0,0.0,0.0,0.0,0.0,0.0,0.0,-2.2531,-2.6038,-2.8825,-3.0721,-2.9942,-2.9302,-2.9302,-2.7758,-2.5372,-2.2033,0.0,0.0,0.0,0.0,0.0,0.0,0.0,0.0,0.0,0.0,0.0,0.0,0.0,0.0,0.0,0.0,0.0,0.0,0.0,0.0,0.0,0.0,0.0,0.0,0.0,0.0,0.0,0.0,0.0,0.0,0.0,0.0,0.0,0.0,0.0,0.0,0.0,0.0,0.0,0.0,0.0,0.0,0.0,0.0,0.0,0.0,0.0,0.0,0.0,0.0,0.0,0.0,0.0,0.0,0.0,0.0,0.0,0.0,0.0,0.0,0.0,0.0,0.0,0.0,0.0,0.0,0.0,0.0,0.0,0.0,0.0,0.0,0.0,0.0,0.0,0.0,0.0,0.0,0.0,0.0,0.0,0.0,0.0,0.0,0.0,0.0,0.0,0.0,0.0,0.0,0.0,0.0,0.0,0.0,0.0,0.0,0.0,0.0,0.0,0.0,0.0,0.0,-2.4963,-2.7544,-2.9515,-3.1424,-3.0909,-3.0344,-3.0143,-2.8574,-2.6377,-2.3489,0.0,0.0,0.0,0.0,0.0,0.0,0.0,0.0,0.0,0.0,0.0,0.0,0.0,0.0,0.0,0.0,0.0,0.0,0.0,0.0,0.0,0.0,0.0,0.0,0.0,0.0,0.0,0.0,0.0,0.0,0.0,0.0,0.0,0.0,0.0,0.0,0.0,0.0,0.0,0.0,0.0,0.0,0.0,0.0,0.0,0.0,0.0,0.0,0.0,0.0,0.0,0.0,0.0,0.0,0.0,0.0,0.0,0.0,0.0,0.0,0.0,0.0,0.0,0.0,0.0,0.0,0.0,0.0,0.0,0.0,0.0,0.0,0.0,0.0,0.0,0.0,0.0,0.0,0.0,0.0,0.0,0.0,0.0,0.0,0.0,0.0,0.0,0.0,0.0,0.0,0.0,0.0,0.0,0.0,0.0,0.0,0.0,0.0,0.0,0.0,0.0,0.0,-2.8725,-2.9792,-3.0357,-3.1825,-3.1625,-3.1223,-3.0809,-2.9227,-2.7318,-2.5109,0.0,0.0,0.0,0.0,0.0,0.0,0.0,0.0,0.0,0.0,0.0,0.0,0.0,0.0,0.0,0.0,0.0,0.0,0.0,0.0,0.0,0.0,0.0,0.0,0.0,0.0,0.0,0.0,0.0,0.0,0.0,0.0,0.0,0.0,0.0,0.0,0.0,0.0,0.0,0.0,0.0,0.0,0.0,0.0,0.0,0.0,0.0,0.0,0.0,0.0,0.0,0.0,0.0,0.0,0.0,0.0,0.0,0.0,0.0,0.0,-2.0662,-1.7564,0.0,0.0,0.0,0.0,0.0,0.0,0.0,0.0,0.0,0.0,0.0,0.0,0.0,0.0,0.0,0.0,0.0,0.0,0.0,0.0,0.0,0.0,0.0,0.0,0.0,0.0,0.0,0.0,0.0,0.0,0.0,0.0,0.0,0.0,0.0,0.0,0.0,0.0,0.0,0.0,-2.9327,-2.9792,-3.0357,-3.1825,-3.1625,-3.1524,-3.1838,-3.0369,-2.8486,-2.6285,-2.4217,0.0,0.0,0.0,0.0,0.0,0.0,0.0,0.0,0.0,0.0,0.0,0.0,0.0,0.0,0.0,0.0,0.0,0.0,0.0,0.0,0.0,0.0,0.0,0.0,0.0,0.0,0.0,0.0,0.0,0.0,0.0,0.0,0.0,0.0,0.0,0.0,0.0,0.0,0.0,0.0,0.0,0.0,0.0,0.0,0.0,0.0,0.0,0.0,0.0,0.0,0.0,0.0,0.0,0.0,0.0,0.0,0.0,0.0,0.0,-2.3535,-2.1032,0.0,0.0,0.0,0.0,0.0,0.0,0.0,0.0,0.0,0.0,0.0,0.0,0.0,0.0,0.0,0.0,0.0,0.0,0.0,0.0,0.0,0.0,0.0,0.0,0.0,0.0,0.0,0.0,0.0,0.0,0.0,0.0,0.0,0.0,0.0,0.0,0.0,0.0,0.0,0.0,-2.8699,-2.9955,-3.1273,-3.2432,-3.2328,-3.2315,-3.2604,-3.1348,-2.9842,-2.8209,-2.5988,0.0,0.0,0.0,0.0,0.0,0.0,0.0,0.0,0.0,0.0,0.0,0.0,0.0,0.0,0.0,0.0,0.0,0.0,0.0,0.0,0.0,0.0,0.0,0.0,0.0,0.0,0.0,0.0,0.0,0.0,0.0,0.0,0.0,0.0,0.0,0.0,0.0,0.0,0.0,0.0,0.0,0.0,0.0,0.0,0.0,0.0,0.0,0.0,0.0,0.0,0.0,0.0,0.0,-2.5944,-2.6991,-2.7619,-2.7619,-2.8592,-3.0101,-2.6632,-2.5211,-2.5083,-2.2233,0.0,0.0,0.0,0.0,0.0,0.0,0.0,0.0,0.0,0.0,0.0,0.0,0.0,0.0,0.0,0.0,0.0,0.0,0.0,0.0,0.0,0.0,-2.7357,-2.7113,-2.7077,-2.5569,-2.0024,0.0,0.0,0.0,0.0,0.0,0.0,0.0,0.0,0.0,0.0,0.0,-2.8272,-3.0371,-3.2177,-3.2993,-3.3257,-3.337,-3.337,-3.2328,-3.126,-3.0281,-2.767,-2.5862,0.0,0.0,0.0,0.0,0.0,0.0,0.0,0.0,0.0,0.0,0.0,0.0,0.0,0.0,0.0,0.0,0.0,0.0,0.0,0.0,0.0,0.0,0.0,0.0,0.0,0.0,0.0,0.0,0.0,0.0,0.0,0.0,-1.8223,-1.8313,0.0,0.0,0.0,0.0,0.0,0.0,0.0,0.0,0.0,0.0,0.0,0.0,0.0,-2.3565,-2.4822,-2.6901,-2.7949,-2.7964,-2.9821,-3.1062,-3.1734,-3.1734,-3.2183,-3.2916,-3.1824,0.0,-2.7993,-2.6986,0.0,0.0,0.0,0.0,0.0,0.0,0.0,0.0,0.0,0.0,0.0,0.0,0.0,0.0,0.0,0.0,0.0,0.0,0.0,0.0,0.0,0.0,-2.7101,-2.8925,-2.9352,-2.9114,-2.8235,-2.6549,-2.4665,-2.299,-1.954,-1.743,0.0,0.0,0.0,0.0,0.0,0.0,-3.0143,-3.1047,-3.1876,-3.2998,-3.3935,-3.4512,-3.4512,-3.3495,-3.2579,-3.1938,-2.9754,-2.7808,-2.6348,-2.3891,0.0,0.0,0.0,0.0,0.0,0.0,0.0,0.0,0.0,0.0,0.0,0.0,0.0,0.0,0.0,0.0,0.0,0.0,0.0,0.0,0.0,0.0,0.0,0.0,0.0,0.0,0.0,0.0,0.0,-1.7745,-1.8837,-1.9211,-1.9001,-1.8538,0.0,0.0,0.0,0.0,0.0,0.0,0.0,0.0,0.0,-2.6333,-2.6408,-2.723,-2.8895,-3.0552,-3.1345,-3.1375,-3.2991,-3.4113,-3.4741,-3.4741,-3.51,-3.5654,-3.5026,-3.4098,-3.2811,-2.9936,-2.8034,-2.6881,0.0,0.0,0.0,0.0,-2.1085,-1.9543,-1.839,-2.165,-2.6697,-2.9041,0.0,0.0,0.0,0.0,0.0,0.0,0.0,-2.5391,-2.5407,-2.6866,-2.8925,-3.111,-3.1637,-3.1637,-3.1637,-3.0911,-2.9189,-2.5674,-2.4456,-2.3489,-2.1904,-2.3527,0.0,0.0,0.0,-2.9881,-3.0633,-3.1675,-3.288,-3.4311,-3.4613,-3.4806,-3.5107,-3.4462,-3.3633,-3.2754,-3.1486,-3.0043,-2.8435,-2.6189,-2.4142,0.0,0.0,0.0,0.0,0.0,0.0,0.0,0.0,0.0,0.0,0.0,0.0,0.0,0.0,0.0,0.0,0.0,0.0,0.0,0.0,0.0,0.0,0.0,0.0,0.0,0.0,0.0,0.0,-1.9358,-2.0333,-2.0647,-2.116,-2.1006,0.0,0.0,0.0,0.0,0.0,0.0,-2.4852,-2.5839,-2.7365,-2.9535,-2.9759,-3.0627,-3.2243,-3.3604,-3.4262,-3.4277,-3.5444,-3.6252,-3.6731,-3.6896,-3.7225,-3.7644,-3.736,-3.724,-3.6911,-3.2796,-3.0896,-3.0505,-2.9502,-2.7824,-2.5997,-2.6117,-2.3856,-2.0996,-2.3026,-2.7604,-3.2512,-3.2512,-2.9879,-2.7189,-3.0186,0.0,0.0,0.0,0.0,-3.0633,-3.0633,-3.0633,-3.1185,-3.3438,-3.3966,-3.3966,-3.3966,-3.3966,-3.281,-2.8938,-2.9529,-2.934,-2.5227,-2.6088,0.0,-2.6612,-2.9428,-3.1587,-3.1474,-3.2654,-3.4022,-3.5357,-3.5303,-3.5316,-3.5717,-3.5207,-3.4575,-3.3759,-3.2905,-3.1888,-3.0683,-2.8661,-2.6866,-2.5473,0.0,0.0,0.0,0.0,0.0,0.0,0.0,0.0,0.0,0.0,0.0,0.0,0.0,0.0,0.0,0.0,0.0,0.0,0.0,0.0,0.0,0.0,0.0,0.0,0.0,0.0,0.0,0.0,0.0,-2.3475,-2.5091,0.0,0.0,0.0,0.0,-2.5315,-2.5435,-2.6333,-2.8248,-2.8412,-2.9639,-3.2228,-3.2916,-3.3604,-3.4354,-3.5669,-3.6327,-3.6342,-3.7,-3.733,-3.7389,-3.8003,-3.8302,-3.8377,-3.9005,-3.9275,-3.9029,-3.6327,-3.4457,-3.329,-3.323,-3.1345,-2.8768,-2.9202,-2.6826,-2.4492,-3.2078,-3.4981,-3.531,-3.531,-3.513,-3.4291,-3.0908,-2.9606,0.0,0.0,-3.1035,-3.2948,-3.2948,-3.2948,-3.3514,-3.5713,-3.6241,-3.6241,-3.6241,-3.6241,-3.5563,-3.3237,-3.2872,-3.1951,-2.8938,0.0,-2.9616,-2.9578,-3.0206,-3.1424,-3.347,-3.4261,-3.4831,-3.5433,-3.5981,-3.6342,-3.6367,-3.5818,-3.5433,-3.537,-3.3922,-3.3006,-3.296,-3.1298,-2.9377,-2.7205,-2.5975,0.0,0.0,0.0,0.0,0.0,0.0,0.0,0.0,0.0,0.0,0.0,0.0,0.0,0.0,0.0,0.0,0.0,0.0,0.0,0.0,0.0,0.0,0.0,0.0,0.0,0.0,0.0,0.0,-2.4365,-2.6019,0.0,-2.6303,-2.7021,-2.7709,-2.8128,-2.934,-3.0552,-3.1689,-3.2153,-3.3215,-3.5011,-3.5295,-3.5729,-3.6357,-3.7255,-3.7928,-3.8377,-3.902,-3.9559,-3.9978,-4.0202,-4.0322,-4.0322,-4.0576,-4.0681,-4.0606,-3.9679,-3.8512,-3.7255,-3.6686,-3.5609,-3.4292,-3.3634,-3.3559,-3.4188,-3.703,-3.8018,-3.7567,-3.4854,-3.5798,-3.7254,-3.317,-3.1901,-3.1901,-3.1901,-3.2466,-3.3451,-3.4859,-3.5236,-3.5424,-3.6216,-3.6405,-3.6405,-3.6405,-3.6405,-3.6179,-3.5387,-3.4469,-3.3156,-3.116,-3.1712,-3.219,-3.1461,-3.2441,-3.3627,-3.4768,-3.5094,-3.5466,-3.6006,-3.6292,-3.6405,-3.6405,-3.6182,-3.5918,-3.552,-3.4944,-3.4349,-3.3633,-3.2704,-3.1486,-2.9955,-2.8486,-2.6289,0.0,0.0,0.0,0.0,0.0,0.0,0.0,0.0,0.0,0.0,0.0,0.0,0.0,0.0,0.0,0.0,0.0,0.0,0.0,0.0,0.0,0.0,0.0,0.0,0.0,-2.4657,-2.6348,-2.5689,-2.7575,-2.8742,-2.8308,-2.9475,-3.0522,-3.1209,-3.2437,-3.3559,-3.4457,-3.4921,-3.5687,-3.6761,-3.7015,-3.7434,-3.8078,-3.8736,-3.9409,-4.0083,-4.0531,-4.0965,-4.1384,-4.1647,-4.1752,-4.1767,-4.1938,-4.2043,-4.2043,-4.2043,-4.1519,-4.0599,-3.9619,-3.911,-3.8841,-3.7853,-3.8871,-4.0704,-4.0704,-4.0704,-4.0003,-3.5624,-3.6122,-3.7875,-3.5045,-3.423,-3.423,-3.423,-3.423,-3.4557,-3.6028,-3.6405,-3.6405,-3.6405,-3.6405,-3.6405,-3.6405,-3.6405,-3.6405,-3.6405,-3.5424,-3.4243,-3.3093,-3.3608,-3.3859,-3.2918,-3.4048,-3.5019,-3.5194,-3.5545,-3.5968,-3.6367,-3.6405,-3.6405,-3.6405,-3.6065,-3.5805,-3.5818,-3.5257,-3.4781,-3.4462,-3.3571,-3.2629,-3.1687,-2.9867,-2.7809,-2.5649,0.0,0.0,0.0,0.0,0.0,0.0,0.0,0.0,0.0,0.0,0.0,0.0,0.0,0.0,0.0,0.0,0.0,0.0,0.0,0.0,0.0,0.0,0.0,-2.4903,-2.5899,-2.7016,-2.7675,-3.0043,-3.16,-3.163,-3.2826,-3.3858,-3.4548,-3.4593,-3.5177,-3.6477,-3.6552,-3.6836,-3.7449,-3.8108,-3.8766,-3.9403,-4.0113,-4.0756,-4.1452,-4.1452,-4.1452,-4.1459,-4.2141,-4.2425,-4.247,-4.306,-4.329,-4.329,-4.329,-4.329,-4.317,-4.1938,-4.1698,-4.1974,-4.1594,-4.2237,-4.329,-4.329,-4.329,-4.2548,-3.8062,-3.6546,-3.6405,-3.6405,-3.6405,-3.6405,-3.6405,-3.6405,-3.6405,-3.6405,-3.6405,-3.6405,-3.6405,-3.6405,-3.6405,-3.6405,-3.6405,-3.6405,-3.6405,-3.5827,-3.519,-3.4839,-3.4731,-3.46,-3.406,-3.4843,0.0,-3.4839,-3.5705,-3.6392,-3.6355,-3.6355,-3.6355,-3.6355,-3.5328,-3.519,-3.6342,-3.4864,-3.4449,-3.5483,-3.401,-3.2867,-3.2277,-3.0091,-2.8486,-2.7381,0.0,0.0,0.0,0.0,0.0,0.0,0.0,0.0,0.0,0.0,0.0,0.0,0.0,0.0,0.0,0.0,0.0,0.0,0.0,0.0,0.0,-2.5884,-2.7919,-2.756,-2.9014,-3.0389,-3.1076,-3.2647,-3.3858,-3.4367,-3.5175,-3.5923,-3.6552,-3.6596,-3.6971,-3.7823,-3.7868,-3.8182,-3.8841,-3.9499,-3.9933,-4.0127,-4.0786,-4.1482,-4.2126,-4.2126,-4.2342,-4.2766,-4.2985,-4.306,-4.3075,-4.3215,-4.329,-4.329,-4.329,-4.329,-4.326,-4.2886,-4.2826,-4.2916,-4.2836,-4.2991,-4.329,-4.329,-4.329,-4.3076,-4.1809,-3.9112,-3.6405,-3.6405,-3.6405,-3.6405,-3.6405,-3.6405,-3.6405,-3.6405,-3.6405,-3.6405,-3.6405,-3.6405,-3.6405,-3.6405,-3.6405,-3.6405,-3.6405,-3.6254,-3.6078,-3.5931,-3.5906,-3.5855,-3.5751,-3.5943,-3.6081,-3.5931,-3.6216,-3.6103,-3.5265,-3.5177,-3.5177,-3.5177,-3.4901,-3.519,-3.6342,-3.5977,-3.5818,-3.6119,-3.5316,-3.4412,-3.3458,-3.2039,-3.0771,0.0,0.0,0.0,0.0,0.0,0.0,0.0,0.0,0.0,0.0,0.0,0.0,0.0,0.0,0.0,0.0,0.0,0.0,0.0,0.0,0.0,0.0,-2.8203,-3.0223,-3.133,-3.1988,-3.2706,-3.3649,-3.4681,-3.5579,-3.6237,-3.6641,-3.7135,-3.7764,-3.7823,-3.8108,-3.8781,-3.908,-3.9409,-3.9813,-4.0472,-4.0935,-4.122,-4.1632,-4.2156,-4.2776,-4.2776,-4.297,-4.329,-4.329,-4.329,-4.329,-4.329,-4.329,-4.329,-4.329,-4.329,-4.329,0.0,0.0,0.0,0.0,-4.329,-4.329,-4.329,-4.329,-4.2981,-4.1028,-3.9887,-3.9288,-3.9288,-3.7939,-3.6405,-3.6405,-3.6405,-3.6405,-3.6405,-3.6405,-3.6405,-3.6405,-3.6405,-3.6405,-3.6405,-3.6405,-3.6405,-3.6405,-3.6405,0.0,-3.6405,-3.6405,-3.6254,-3.5742,-3.6116,-3.6241,-3.573,-3.6116,-3.6166,-3.5479,-3.5416,-3.5416,-3.5416,-3.4989,0.0,0.0,0.0,-3.5667,-3.5667,-3.5366,0.0,0.0,0.0,-3.2729,-3.234,-3.1634,0.0,0.0,-2.7645,-2.7231,0.0,0.0,0.0,0.0,0.0,0.0,0.0,0.0,0.0,0.0,0.0,0.0,0.0,0.0,0.0,0.0,-3.0986,-3.2781,-3.5175,-3.4666,-3.4472,-3.5594,-3.6297,-3.6911,-3.7464,-3.7584,-3.7883,-3.8467,-3.8497,-3.8811,-3.9499,-4.0083,0.0,0.0,0.0,-4.1811,-4.2396,-4.247,-4.2761,-4.329,-4.329,-4.329,-4.329,-4.329,-4.329,-4.329,-4.329,-4.329,-4.329,-4.329,-4.329,-4.329,-4.329,-4.329,-4.329,-4.329,-4.329,-4.329,-4.329,0.0,0.0,-3.8501,-3.9931,-4.325,-4.2981,-3.9858,-3.6405,-3.6405,-3.6405,-3.6405,-3.6405,-3.6405,-3.6405,-3.6405,-3.6505,-3.6593,-3.6593,-3.6593,-3.6593,-3.6593,-3.6593,-3.6556,-3.643,-3.6405,-3.6078,-3.5052,-3.5742,-3.6053,-3.5027,-3.5755,-3.6355,-3.6229,-3.6229,0.0,-3.6229,-3.5278,-3.519,-3.6342,-3.5441,-3.4901,-3.4901,-3.4901,-3.4675,-3.4186,-3.4173,-3.4424,-3.4901,-3.4901,-3.4939,-3.4914,-3.1232,-3.0079,0.0,0.0,0.0,0.0,0.0,0.0,0.0,0.0,0.0,0.0,0.0,0.0,0.0,0.0,0.0,-3.0133,-3.2811,-3.4921,-3.5429,-3.6626,-3.7345,-3.7075,-3.7614,-3.8063,-3.8197,-3.8706,-3.908,-3.9215,-3.923,-3.9514,-4.0172,-4.0337,-4.0651,-4.1175,-4.1871,-4.2276,-4.2396,-4.288,-4.317,-4.329,-4.329,0.0,-4.329,-4.329,-4.329,-4.329,-4.329,-4.329,-4.329,-4.329,-4.329,-4.329,-4.329,-4.329,-4.329,-4.329,-4.329,-4.329,-4.329,-4.329,-4.3155,-4.2249,-4.2548,-4.2955,-4.1099,-3.8604,0.0,-3.6405,-3.6405,-3.6405,-3.6405,-3.6405,-3.6405,-3.6405,-3.7048,-3.7688,-3.7688,-3.7688,-3.7688,-3.7688,-3.7688,-3.7412,-3.6568,-3.6405,-3.6342,-3.6116,-3.6267,-3.6329,-3.6116,-3.6279,-3.6065,-3.514,-3.5039,-3.5039,-3.5039,-3.4851,-3.519,-3.6342,-3.6204,-3.6091,-3.6091,-3.6091,-3.604,-3.5927,-3.5927,-3.5977,-3.6091,-3.6091,-3.627,-3.6659,-3.4575,-3.3721,0.0,0.0,0.0,0.0,0.0,0.0,0.0,0.0,0.0,0.0,0.0,-2.4878,-2.7607,0.0,-3.1091,-3.2736,-3.4696,-3.6222,-3.6866,-3.7778,-3.8272,-3.7943,-3.8497,-3.8901,-3.8901,-3.9215,-3.9388,-3.9388,-3.9723,-4.0053,-4.0382,-4.1025,-4.1572,-4.1901,-4.2506,-4.2851,-4.2851,-4.3125,-4.329,-4.329,-4.329,-4.329,-4.329,-4.329,-4.329,-4.329,-4.329,-4.329,-4.329,-4.329,-4.329,-4.329,-4.329,-4.329,-4.329,-4.329,-4.329,-4.329,-4.329,-4.329,-4.329,-4.329,-4.329,-4.286,-4.0589,-3.9064,-3.7919,-3.6722,-3.6405,-3.6405,-3.6405,-3.682,-3.7186,-3.7186,-3.7751,-3.8304,-3.8304,-3.8153,-3.8002,-3.8002,-3.8002,-3.7839,-3.7274,-3.7651,-3.77,-3.6581,-3.6405,-3.6405,-3.6405,-3.6405,-3.6204,-3.5604,-3.5542,-3.5692,-3.6081,-3.627,-3.6596,-3.7149,-3.7186,-3.7186,-3.7186,-3.7186,-3.7186,-3.7186,-3.7186,-3.7186,-3.7186,-3.7186,-3.7324,-3.7575,-3.6747,-3.637,0.0,0.0,0.0,0.0,0.0,0.0,0.0,-2.0055,-2.1276,-2.423,-2.5491,-2.701,-3.0175,-3.1599,-3.3065,-3.5489,-3.6432,-3.721,-3.8242,-3.8497,-3.8586,-3.8586,-3.908,-3.9388,-3.9388,-3.9529,-3.9568,-3.9568,-4.0217,-4.0651,-4.0771,-4.1826,-4.2455,-4.259,-4.306,-4.329,-4.329,-4.329,-4.329,-4.329,-4.329,-4.329,-4.329,-4.329,-4.329,-4.329,-4.329,-4.329,-4.329,-4.329,-4.329,-4.329,-4.329,-4.329,-4.329,-4.329,-4.329,-4.329,-4.329,-4.329,-4.329,-4.329,-4.329,-4.29,-4.0831,-4.0189,-3.9708,-3.7642,-3.7245,-3.7369,-3.6963,-3.7716,-3.8509,-3.8114,-3.8341,-3.8655,-3.8655,-3.8479,-3.8329,-3.8329,-3.8329,-3.8329,-3.8329,-3.9082,-3.9082,-3.7322,-3.7059,-3.7059,-3.7059,-3.7059,-3.6971,-3.6757,-3.6732,-3.696,-3.7663,-3.7965,-3.809,-3.8015,-3.8002,-3.8002,-3.8002,-3.8002,-3.8002,-3.8002,-3.8002,-3.8002,-3.8002,-3.8002,-3.8065,-3.8165,-3.8165,-3.8115,-1.8013,-1.8306,-1.9709,-2.0142,-2.0654,-2.1694,0.0,-2.5246,-2.6352,-2.8761,-3.0528,-3.2273,-3.444,-3.4966,-3.5534,-3.6956,-3.7749,-3.8227,-3.8362,-3.8916,-3.9305,-3.9305,-3.9328,-3.9388,-3.9388,-3.9948,-4.0292,-4.0292,-4.0905,-4.1572,-4.2156,-4.2321,-4.2626,-4.317,-4.3245,-4.329,-4.329,-4.329,-4.329,-4.329,-4.329,-4.329,-4.329,-4.329,-4.329,-4.329,-4.329,-4.329,-4.329,-4.329,-4.329,-4.329,-4.329,-4.329,-4.329,-4.329,-4.329,-4.329,-4.329,-4.329,-4.329,-4.329,-4.329,-4.3076,-4.1809,-4.1155,-4.0659,-3.9693,-4.0275,-4.0765,-3.8858,-3.9524,-4.0306,-3.8447,-3.8429,-3.8894,-3.8894,-3.9195,-3.9509,-3.9509,-3.9509,-3.9509,-3.9509,-3.9609,-3.9609,-3.9358,-3.932,-3.932,-3.932,-3.932,-3.8931,-3.7927,-3.7826,-3.8002,-3.8442,-3.8517,-3.8379,-3.8027,-3.8002,-3.8002,-3.8002,-3.8002,-3.8002,-3.8002,-3.8002,-3.8002,-3.8002,-3.8002,-3.8278,-3.8781,-3.8781,-3.8492,-2.0927,-2.0731,-2.1086,-2.2304,-2.2786,-2.3566,-2.5948,-2.6658,-2.7807,-3.1174,-3.2731,-3.4018,-3.5768,-3.6686,-3.736,-3.7898,-3.8542,-3.899,-3.899,-3.9574,-3.9993,-3.9993,-4.0337,-4.0412,-4.0023,-4.0591,-4.0965,-4.0965,-4.1617,-4.2111,-4.2396,-4.2716,-4.3045,-4.329,-4.329,-4.329,-4.329,-4.329,-4.329,-4.329,-4.329,-4.329,-4.329,-4.329,-4.329,-4.329,-4.329,-4.329,-4.329,-4.329,-4.329,-4.329,-4.329,-4.329,-4.329,-4.329,-4.329,-4.329,-4.329,-4.329,-4.3349,-4.3738,-4.3858,-4.3756,-4.3005,-4.2667,-4.2294,-4.1263,-4.0844,-4.0509,-3.9594,-3.9615,-3.9589,-3.8729,-3.8931,-3.9346,-3.9346,-3.9534,-3.9697,-3.9697,-3.9697,-3.9697,-3.9697,-3.9697,-3.9697,-3.9697,-3.9697,-3.9697,-3.9697,-3.9697,-3.9521,-3.9032,-3.8981,-3.9057,-3.922,-3.9233,-3.917,-3.9007,-3.8981,-3.8981,-3.8981,-3.8981,-3.8981,-3.8981,-3.8981,-3.8981,-3.8981,-3.8981,-3.912,-3.9346,-3.9346,-3.9396,-2.2368,-2.2729,-2.3154,-2.4518,-2.5395,-2.6347,-2.8002,-2.8587,-2.9711,-3.3016,-3.4288,-3.5272,-3.6735,-3.7764,-3.8452,-3.8646,-3.9095,-3.9448,-3.9664,-4.0098,-4.0472,-4.0651,-4.1287,-4.1512,-4.0995,-4.1407,-4.1692,-4.1692,-4.2291,-4.2626,-4.2626,-4.3075,-4.329,-4.329,-4.329,-4.329,-4.329,-4.329,-4.329,-4.329,-4.329,-4.329,-4.329,-4.329,-4.329,-4.329,-4.329,-4.329,-4.329,-4.329,-4.329,-4.329,-4.329,-4.3409,-4.3559,-4.3559,-4.3559,-4.3559,-4.3559,-4.3678,-4.3917,-4.4421,-4.4586,-4.4456,-4.379,-4.3834,-4.3719,-4.1997,-4.1363,-4.0938,-4.0092,-3.9765,-3.9575,-3.9196,-3.9408,-3.9697,-3.9697,-3.9697,-3.9697,-3.9697,-3.9697,-3.9697,-3.9697,-3.9697,-3.9697,-3.9697,-3.9697,-3.9697,-3.9697,-3.9697,-3.9697,-3.9697,-3.9697,-3.9697,-3.9697,-3.9697,-3.9697,-3.9697,-3.9697,-3.9697,-3.9697,-3.9697,-3.9697,-3.9697,-3.9697,-3.9697,-3.9697,-3.9697,-3.9772,-3.9923,-3.9923,-4.0224,-2.127,-2.3805,-2.6299,-2.6862,-2.8923,-3.0926,-3.1515,-3.2348,-3.3369,-3.4681,-3.5751,-3.6802,-3.8108,-3.8362,-3.8601,-3.9239,-3.9373,-3.9649,-4.0277,-4.0382,-4.0636,-4.1265,-4.1976,-4.2366,-4.2336,-4.2366,-4.2366,-4.2366,-4.294,-4.326,-4.326,-4.329,-4.329,-4.329,-4.329,-4.329,-4.329,-4.329,-4.329,-4.329,-4.329,-4.329,-4.329,-4.329,-4.329,-4.329,-4.329,-4.329,-4.329,-4.329,-4.329,-4.329,-4.329,-4.3678,-4.4287,-4.4287,-4.4287,-4.4287,-4.4287,-4.4706,-4.5229,-4.5259,-4.5274,-4.5052,-4.3963,-4.4363,-4.4608,-4.1652,-4.2471,-4.3547,-4.05,-4.0617,-4.1193,-3.9955,-3.9685,-3.9697,-3.9697,-3.9697,-3.9697,-3.9697,-3.9697,-3.9697,-3.9697,-3.9697,-3.9697,-3.9697,-3.9697,-3.9697,-3.9697,-3.9697,-3.9697,-3.9697,-3.9697,-3.9697,-3.9697,-3.9697,-3.9697,-3.9697,-3.9697,-3.9697,-3.9697,-3.9697,-3.9697,-3.9697,-3.9697,-3.9697,-3.9697,-3.9697,-3.9973,-4.0488,-4.0488,-4.0736,-2.3446,-2.5078,-2.6726,-2.7991,-2.896,-3.0082,-3.1905,-3.2584,-3.3427,-3.5551,-3.5547,-3.5597,-3.6881,-3.7135,-3.733,-3.7973,-3.8805,-3.9649,-4.0307,-4.0771,-4.1294,-4.1991,-4.2611,-4.3015,-4.3015,-4.3015,-4.3015,-4.3015,-4.317,-4.329,-4.329,-4.329,-4.329,-4.329,-4.329,-4.329,-4.329,-4.329,-4.329,-4.329,-4.329,-4.329,-4.329,-4.329,-4.329,-4.329,-4.329,-4.329,-4.329,-4.329,-4.329,-4.3334,-4.3768,-4.4122,-4.4362,-4.4811,-4.5259,-4.5574,-4.5125,-4.511,-4.5364,-4.5828,-4.5978,-4.5968,-4.6043,-4.6306,-4.6249,-4.4365,-4.3808,-4.3382,-4.1452,-4.1269,-4.1269,-3.9981,-4.0364,-4.0743,-3.989,-3.9697,-3.9697,-3.9697,-3.9697,-3.9697,-3.9697,-3.9697,-3.9697,-3.9697,-3.9697,-3.9697,-3.9697,-3.9697,-3.9697,-3.9697,-3.9697,-3.9697,-3.9697,-3.9697,-3.9697,-3.9697,-3.9697,-3.9697,-3.9697,-3.9697,-3.9697,-3.9697,-4.0061,-4.0237,-4.0237,-4.0614,-4.0824,-4.1012,-4.1012,-4.1354,-2.544,-2.6935,-2.8394,-2.9466,-2.9952,-3.0718,-3.2652,-3.3101,-3.3752,-3.6011,-3.5447,-3.4848,-3.5938,-3.6327,-3.6462,-3.6372,-3.7674,-3.902,-3.9918,-4.0412,-4.119,-4.2551,-4.3075,-4.329,-4.329,-4.329,-4.329,-4.329,-4.329,-4.329,-4.329,-4.329,-4.329,-4.329,-4.329,-4.329,-4.329,-4.329,-4.329,-4.329,-4.329,-4.329,-4.329,-4.329,-4.329,-4.329,-4.329,-4.329,-4.329,-4.329,-4.3424,-4.3678,-4.4152,-4.4601,-4.508,-4.5499,-4.6097,-4.6576,-4.5903,-4.5813,-4.6082,-4.6531,-4.6681,-4.6756,-4.7174,-4.7309,-4.7019,-4.5779,-4.4826,-4.3882,-4.2593,-4.2266,-4.1985,-4.0693,-4.0982,-4.1269,-3.9981,-3.9697,-3.9697,-3.9697,-3.9697,-3.9697,-3.9697,-3.9697,-3.9697,-3.9697,-3.9697,-3.9697,-3.9697,-3.9697,-3.9697,-3.9697,-3.9697,-3.9697,-3.9697,-3.9697,-3.9697,-3.9697,-3.9873,-3.9986,-3.9986,-4.0174,-4.0275,-4.0275,-4.0626,-4.0814,-4.0814,-4.1112,-4.1388,-4.163,-4.163,-4.1919,-2.709,-2.9188,-3.111,-3.1181,-3.1852,-3.2784,-3.3774,-3.3964,-3.4395,-3.5982,-3.5237,-3.4488,-3.5085,-3.5789,-3.5893,-3.4713,-3.6148,-3.7943,-3.9334,-3.9514,-4.0435,-4.2991,-4.329,-4.329,-4.329,-4.329,-4.329,-4.329,-4.329,-4.329,-4.329,-4.329,-4.329,-4.329,-4.329,-4.329,-4.329,-4.329,-4.329,-4.329,-4.329,-4.329,-4.329,-4.329,-4.329,-4.329,-4.329,-4.329,-4.329,-4.3334,-4.3708,-4.4332,-4.4392,-4.52,-4.6279,-4.6324,-4.677,-4.7219,-4.6591,-4.6785,-4.7309,-4.7309,-4.7309,-4.7309,-4.7309,-4.7309,-4.7019,-4.5779,-4.5403,-4.5115,-4.3834,-4.3504,-4.317,-4.1887,-4.1604,-4.1269,-3.9981,-3.9697,-3.9697,-3.9697,-3.9697,-3.9697,-3.9697,-3.9697,-3.9697,-3.9735,-3.9735,-3.9722,-3.9697,-3.9697,-3.9697,-3.9735,-3.9735,-3.9747,-3.9772,-3.9772,-3.9772,-3.9772,-4.0275,-4.0563,-4.0563,-4.1012,-4.1288,-4.1288,-4.1313,-4.1326,-4.1326,-4.1351,-4.1693,-4.225,-4.225,-4.2527,-2.7981,-2.9531,-3.1191,-3.1209,-3.1389,-3.1997,-3.3636,-3.3648,-3.338,-3.3493,-3.2452,-3.1435,-3.115,-3.2422,-3.3739,-3.4399,-3.6537,-3.8781,-4.0621,-4.0876,-4.1489,-4.3095,-4.329,-4.329,-4.329,-4.329,-4.329,-4.329,-4.329,-4.329,-4.329,-4.329,-4.329,-4.329,-4.329,-4.329,-4.329,-4.329,-4.329,-4.329,-4.329,-4.329,-4.329,-4.329,-4.329,-4.329,-4.329,-4.329,-4.3334,-4.3828,-4.4167,-4.4407,-4.5424,-4.6022,-4.6339,-4.6875,-4.716,-4.7279,-4.7115,-4.7174,-4.7309,-4.7309,-4.7309,-4.7309,-4.7309,-4.7309,-4.7019,-4.5779,-4.5403,-4.5115,-4.3834,-4.3504,-4.317,-4.1887,-4.1604,-4.1269,-3.9981,-3.9697,-3.9697,-3.9697,-3.9697,-3.9697,-3.9697,-3.9697,-3.9835,-4.0249,-4.0312,-4.0162,-3.9747,-3.9697,-3.9848,-4.0262,-4.0312,-4.0475,-4.0837,-4.0862,-4.0862,-4.0862,-4.1,-4.1075,-4.1075,-4.1213,-4.1288,-4.1288,-4.1743,-4.1944,-4.1944,-4.2359,-4.2635,-4.2828,-4.2828,-4.2848,-2.9565,-3.0954,-3.2249,-3.1426,-3.1499,-3.1959,-3.2597,-3.2464,-3.2011,-3.1366,-3.0163,-2.9101,-2.8783,-3.0552,-3.2138,-3.2332,-3.5297,-3.8153,-3.9865,-4.0337,-4.122,-4.3065,-4.329,-4.329,-4.329,-4.329,-4.329,-4.329,-4.329,-4.329,-4.329,-4.329,-4.329,-4.329,-4.329,-4.329,-4.329,-4.329,-4.329,-4.329,-4.329,-4.329,-4.329,-4.329,-4.329,-4.329,-4.329,-4.3454,-4.3753,-4.4127,-4.4661,-4.5274,-4.5995,-4.6501,-4.68,-4.7174,-4.7309,-4.7309,-4.7309,-4.7309,-4.7309,-4.7309,-4.7309,-4.7309,-4.7309,-4.7309,-4.7164,-4.6447,-4.6211,-4.6062,-4.5358,-4.4734,-4.4022,-4.2738,-4.2035,-4.1269,-3.9981,-3.9697,-3.9697,-3.9697,-3.9697,-3.9772,-4.0011,-4.0061,-4.0237,-4.0802,-4.0824,-4.0764,-4.0463,-4.0413,-4.0538,-4.0852,-4.0824,-4.0949,-4.1263,-4.1288,-4.1288,-4.1288,-4.1568,-4.1693,-4.1693,-4.1932,-4.2057,-4.2057,-4.2359,-4.2577,-4.2577,-4.2823,-4.2974,-4.2974,-4.2974,-4.2974,-3.1478,-3.2733,-3.3616,-3.2092,-3.2232,-3.2507,-3.151,-3.1209,-3.0757,-2.9369,-2.8214,-2.739,-2.7121,-2.922,-3.0718,-2.9968,-3.3425,-3.6761,-3.8317,-3.92,-4.0561,-4.2886,-4.3245,-4.329,-4.329,-4.329,-4.329,-4.329,-4.329,-4.329,-4.329,-4.329,-4.329,-4.329,-4.329,-4.329,-4.329,-4.329,-4.329,-4.329,-4.329,-4.329,-4.329,-4.329,-4.329,-4.329,-4.329,-4.3663,-4.4332,-4.4407,-4.5185,-4.6294,-4.6384,-4.68,-4.7309,-4.7309,-4.7309,-4.7309,-4.7309,-4.7309,-4.7309,-4.7309,-4.7309,-4.7309,-4.7309,-4.7309,-4.7309,-4.7309,-4.7309,-4.7309,-4.7309,-4.6211,-4.4872,-4.374,-4.2412,-4.1032,-3.9929,-3.9697,-3.9722,-3.9785,-3.9798,-3.9986,-4.0526,-4.0626,-4.0814,-4.1367,-4.1388,-4.148,-4.1489,-4.1376,-4.1313,-4.1388,-4.1388,-4.1426,-4.1489,-4.1501,-4.1501,-4.1501,-4.2007,-4.2313,-4.2313,-4.2778,-4.2974,-4.2974,-4.2974,-4.2974,-4.2974,-4.2974,-4.2974,-4.2974,-4.2974,-4.2974,-3.3123,-3.3586,-3.404,-3.4263,-3.4055,-3.3489,-3.2505,-3.1842,-3.0459,-2.6986,-2.6542,-2.6258,-2.4597,-2.6492,-2.8906,-3.0853,-3.3245,-3.5863,-3.8826,-4.0277,-4.1414,-4.2455,-4.3015,-4.329,-4.329,-4.329,-4.329,-4.329,-4.329,-4.329,-4.329,-4.329,-4.329,-4.329,-4.329,-4.329,-4.329,-4.329,-4.329,-4.329,-4.329,-4.329,-4.329,-4.329,-4.329,-4.329,-4.329,-4.3663,-4.4347,-4.49,-4.5603,-4.6381,-4.692,-4.7204,-4.7309,-4.7309,-4.7309,-4.7309,-4.7309,-4.7309,-4.7309,-4.7309,-4.7309,-4.7309,-4.7309,-4.7309,-4.7309,-4.7309,-4.7309,-4.7309,-4.7309,-4.5584,-4.3787,-4.3551,-4.1739,-3.9981,-3.9736,-3.9697,-3.9823,-4.0287,-4.0375,-4.0551,-4.105,-4.115,-4.1379,-4.1932,-4.2062,-4.217,-4.2635,-4.1894,-4.1517,-4.1969,-4.2062,-4.2195,-4.266,-4.2698,-4.2698,-4.2698,-4.2785,-4.2836,-4.2836,-4.2924,-4.2974,-4.2974,-4.2974,-4.2974,-4.2974,-4.2974,-4.2974,-4.2974,-4.2974,-4.2974,-3.3768,-3.4257,-3.4731,-3.4519,-3.4365,-3.3697,-3.1497,-3.0193,-2.8442,-2.4822,-2.4059,-2.3744,-2.2787,-2.4762,-2.7081,-2.8697,-3.1779,-3.4891,-3.7524,-3.932,-4.0861,-4.2246,-4.2641,-4.2955,-4.326,-4.329,-4.329,-4.329,-4.329,-4.329,-4.329,-4.329,-4.329,-4.329,-4.329,-4.329,-4.329,-4.329,-4.329,-4.329,-4.329,-4.329,-4.329,-4.329,-4.329,-4.329,-4.329,-4.3898,-4.4855,-4.517,-4.5903,-4.686,-4.7174,-4.7309,-4.7309,-4.7309,-4.7309,-4.7309,-4.7309,-4.7309,-4.7309,-4.7309,-4.7309,-4.7309,-4.7309,-4.7309,-4.7309,-4.7309,-4.7309,-4.7309,-4.7309,-4.5403,-4.3693,-4.4303,-4.2558,-4.0503,-3.9839,-3.9923,-4.0199,-4.0463,-4.0752,-4.1116,-4.1668,-4.1769,-4.1944,-4.2552,-4.264,-4.274,-4.2949,-4.2522,-4.2296,-4.2615,-4.264,-4.274,-4.2949,-4.2974,-4.2974,-4.2974,-4.2974,-4.2974,-4.2974,-4.2974,-4.2974,-4.2974,-4.2974,-4.2974,-4.2974,-4.2974,-4.2974,-4.2974,-4.2974,-4.2974,-3.437,-3.5023,-3.5326,-3.4509,-3.4404,-3.3575,-2.9983,-2.8364,-2.6581,-2.3017,-2.1984,-2.165,-2.1515,-2.34,-2.5285,-2.6228,-2.9789,-3.329,-3.5714,-3.7749,-3.9768,-4.1931,-4.2306,-4.2626,-4.323,-4.329,-4.329,-4.329,-4.329,-4.329,-4.329,-4.329,-4.329,-4.329,-4.329,-4.329,-4.329,-4.329,-4.329,-4.329,-4.329,-4.329,-4.329,-4.329,-4.329,-4.3305,-4.3439,-4.4212,-4.5304,-4.5454,-4.6217,-4.7309,-4.7309,-4.7309,-4.7309,-4.7309,-4.7309,-4.7309,-4.7309,-4.7309,-4.7309,-4.7309,-4.7309,-4.7309,-4.7309,-4.7309,-4.7309,-4.7309,-4.7309,-4.7309,-4.7309,-4.5584,-4.4022,-4.4503,-4.3074,-4.1295,-4.0132,-4.0212,-4.0588,-4.0827,-4.1216,-4.1693,-4.2288,-4.2389,-4.2527,-4.2911,-4.2974,-4.2974,-4.2974,-4.2974,-4.2974,-4.2974,-4.2974,-4.2974,-4.2974,-4.2974,-4.2974,-4.2974,-4.2974,-4.2974,-4.2974,-4.2974,-4.2974,-4.2974,-4.2974,-4.2974,-4.2974,-4.2974,-4.2974,-4.2974,-4.2974,-4.2974,-3.563,-3.5887,-3.5472,-3.5392,-3.4916,-3.3335,-2.8816,-2.7679,-2.6327,-2.1814,-2.1321,-2.1515,-2.0897,-2.1979,-2.3571,-2.539,-2.759,-3.0357,-3.4159,-3.6357,-3.8556,-4.116,-4.2036,-4.2626,-4.323,-4.329,-4.329,-4.329,-4.329,-4.329,-4.329,-4.329,-4.329,-4.329,-4.329,-4.329,-4.329,-4.329,-4.329,-4.329,-4.329,-4.329,-4.329,-4.329,-4.329,-4.3319,-4.3958,-4.4631,-4.5349,-4.5978,-4.6651,-4.7309,-4.7309,-4.7309,-4.7309,-4.7309,-4.7309,-4.7309,-4.7309,-4.7309,-4.7309,-4.7309,-4.7309,-4.7309,-4.7309,-4.7309,-4.7309,-4.7309,-4.7309,-4.7309,-4.7309,-4.6255,-4.4688,-4.2461,-4.1789,-4.1363,-4.0574,-4.0488,-4.0814,-4.1861,-4.2099,-4.2313,-4.2798,-4.2898,-4.2924,-4.2974,-4.2974,-4.2974,-4.2974,-4.2974,-4.2974,-4.2974,-4.2974,-4.2974,-4.2974,-4.2974,-4.2974,-4.2974,-4.2974,-4.2974,-4.2974,-4.2974,-4.2974,-4.2974,-4.2974,-4.2974,-4.2974,-4.2974,-4.2974,-4.2974,-4.2974,-4.2974,-3.4666,-3.4801,-3.4382,-3.4786,-3.3469,-3.13,-2.8278,-2.6333,-2.4328,-2.1316,-2.0587,-2.0408,-2.0154,-2.0857,-2.2009,-2.3616,-2.5839,-2.8368,-3.1164,-3.4262,-3.709,-3.932,-4.0913,-4.2177,-4.3185,-4.329,-4.329,-4.329,-4.329,-4.329,-4.329,-4.329,-4.329,-4.329,-4.329,-4.329,-4.329,-4.329,-4.329,-4.329,-4.329,-4.329,-4.329,-4.329,-4.329,-4.3334,-4.3992,-4.4691,-4.5349,-4.6037,-4.6711,-4.7309,-4.7309,-4.7309,-4.7309,-4.7309,-4.7309,-4.7309,-4.7309,-4.7309,-4.7309,-4.7309,-4.7309,-4.7309,-4.7309,-4.7309,-4.7309,-4.7309,-4.7309,-4.7309,-4.7309,-4.6916,-4.5734,-4.2412,-4.2436,-4.2707,-4.0909,-4.104,-4.1685,-4.2125,-4.2476,-4.2778,-4.2936,-4.2974,-4.2974,-4.2974,-4.2974,-4.2974,-4.2974,-4.2974,-4.2974,-4.2974,-4.2974,-4.2974,-4.2974,-4.2974,-4.2974,-4.2974,-4.2974,-4.2974,-4.2974,-4.2974,-4.2974,-4.2974,-4.2974,-4.2974,-4.2974,-4.3313,-4.3476,-4.3476,-4.3815,-4.379,-3.3021,-3.3559,-3.3559,-3.3829,-3.2048,-2.9669,-2.7485,-2.5091,-2.2772,-2.0812,-2.0034,-1.9708,-1.9708,-2.0243,-2.1062,-2.2224,-2.4433,-2.6782,-2.8981,-3.2198,-3.513,-3.7285,-3.9125,-4.0801,-4.2312,-4.2946,-4.329,-4.329,-4.329,-4.329,-4.329,-4.329,-4.329,-4.329,-4.329,-4.329,-4.329,-4.329,-4.329,-4.329,-4.329,-4.329,-4.329,-4.329,-4.329,-4.3349,-4.4227,-4.487,-4.5364,-4.6247,-4.689,-4.7309,-4.7309,-4.7309,-4.7309,-4.7309,-4.7309,-4.7309,-4.7309,-4.7309,-4.7309,-4.7309,-4.7309,-4.7309,-4.7309,-4.7309,-4.7309,-4.7309,-4.7309,-4.7309,-4.7309,-4.7019,-4.6016,-4.31,-4.3076,-4.3232,-4.1419,-4.1605,-4.2263,-4.2426,-4.271,-4.2974,-4.2974,-4.2974,-4.2974,-4.2974,-4.2974,-4.2974,-4.2974,-4.2974,-4.2974,-4.2974,-4.2974,-4.2974,-4.2974,-4.2974,-4.2974,-4.2974,-4.2974,-4.2974,-4.2974,-4.2974,-4.2974,-4.2974,-4.3137,-4.3225,-4.3225,-4.3777,-4.4053,-4.4053,-4.4443,-4.4418,-3.0823,-3.2482,-3.3335,-3.2691,-3.1046,-2.8918,-2.6228,-2.4103,-2.2134,-2.0127,-1.9708,-1.9708,-1.9708,-2.0243,-2.0912,-2.1605,-2.3349,-2.5546,-2.8233,-3.03,-3.2527,-3.522,-3.6671,-3.8242,-4.0232,-4.2154,-4.329,-4.329,-4.329,-4.329,-4.329,-4.329,-4.329,-4.329,-4.329,-4.329,-4.329,-4.329,-4.329,-4.329,-4.329,-4.329,-4.329,-4.329,-4.329,-4.3364,-4.4721,-4.5289,-4.5394,-4.6741,-4.7294,-4.7309,-4.7309,-4.7309,-4.7309,-4.7309,-4.7309,-4.7309,-4.7309,-4.7309,-4.7309,-4.7309,-4.7309,-4.7309,-4.7309,-4.7309,-4.7309,-4.7309,-4.7309,-4.7309,-4.7309,-4.6358,-4.5227,-4.4442,-4.3323,-4.2383,-4.2207,-4.22,-4.2376,-4.2861,-4.2974,-4.2974,-4.2974,-4.2974,-4.2974,-4.2974,-4.2974,-4.2974,-4.2974,-4.2974,-4.2974,-4.2974,-4.2974,-4.2974,-4.2974,-4.2974,-4.2974,-4.2974,-4.2974,-4.2974,-4.2974,-4.2974,-4.2974,-4.2974,-4.3514,-4.379,-4.379,-4.4342,-4.4618,-4.4618,-4.4618,-4.4618,-2.8098,-2.8472,-2.8263,-2.8992,-2.7315,-2.5166,-2.3916,-2.2428,-2.1021,-1.9932,-1.9708,-1.9708,-1.9708,-1.9869,-2.0378,-2.1515,-2.2951,-2.4537,-2.6303,-3.0208,-3.335,-3.4651,-3.8382,-4.122,-4.2258,-4.2931,-4.329,-4.329,-4.329,-4.329,-4.329,-4.329,-4.329,-4.329,-4.329,-4.329,-4.329,-4.329,-4.329,-4.329,-4.329,-4.329,-4.329,-4.329,-4.329,-4.3364,-4.4721,-4.5289,-4.5394,-4.6756,-4.7309,-4.7309,-4.7309,-4.7309,-4.7309,-4.7309,-4.7309,-4.7309,-4.7309,-4.7309,-4.7309,-4.7309,-4.7309,-4.7309,-4.7309,-4.7309,-4.7309,-4.7309,-4.7309,-4.7121,-4.6211,-4.5962,-4.5462,-4.348,-4.3311,-4.3284,-4.2384,-4.2502,-4.2828,-4.2949,-4.2974,-4.2974,-4.2974,-4.2974,-4.2974,-4.2974,-4.2974,-4.2974,-4.2974,-4.2974,-4.2974,-4.2974,-4.2974,-4.2974,-4.2974,-4.2974,-4.2974,-4.2974,-4.3325,-4.3539,-4.3539,-4.3903,-4.4104,-4.4104,-4.4279,-4.4367,-4.4367,-4.4932,-4.5409,-4.5773,-4.5397,-4.5208,-2.5368,-2.5839,-2.5809,-2.6632,-2.5031,-2.3167,-2.2793,-2.1475,-2.0198,-1.9798,-1.9708,-1.9708,-1.9708,-1.9899,-2.0423,-2.1515,-2.2981,-2.4537,-2.6123,-3.0043,-3.3455,-3.5355,-3.8945,-4.1609,-4.2506,-4.3006,-4.329,-4.329,-4.329,-4.329,-4.329,-4.329,-4.329,-4.329,-4.329,-4.329,-4.329,-4.329,-4.329,-4.329,-4.329,-4.329,-4.329,-4.329,-4.3424,-4.3723,-4.4825,-4.5439,0.0,-4.686,-4.7309,-4.7309,-4.7309,-4.7309,-4.7309,-4.7309,-4.7309,-4.7309,-4.7309,-4.7309,-4.7309,-4.7309,-4.7309,-4.7309,-4.7309,-4.7309,-4.7309,-4.7309,-4.7309,-4.7121,-4.6299,-4.5818,-4.513,-4.3755,-4.3401,-4.3231,-4.2629,-4.2735,-4.2974,-4.2974,-4.2974,-4.2974,-4.2974,-4.2974,-4.2974,-4.2974,-4.2974,-4.2974,-4.2974,-4.2974,-4.2974,-4.2974,-4.2974,-4.3137,-4.3564,-4.3476,-4.3451,-4.3589,-4.3928,-4.4116,-4.4116,-4.4443,-4.4618,-4.4618,-4.4832,-4.4945,-4.4945,-4.5522,-4.5974,-4.6301,-4.5962,-4.5799,0.0,-2.4238,-2.5196,-2.5255,-2.3849,-2.2478,-2.2478,-2.1041,0.0,-1.9708,-1.9708,-1.9708,-1.9768,-2.0288,-2.0942,-2.171,-2.3379,-2.5337,-2.745,-3.0148,-3.3319,-3.7105,-3.8781,-4.0083,-4.1265,-4.2566,-4.329,-4.329,-4.329,-4.329,-4.329,-4.329,-4.329,-4.329,-4.329,-4.329,-4.329,-4.329,-4.329,-4.329,-4.329,-4.329,-4.329,-4.329,-4.3648,-4.4347,-4.5005,-4.5678,-4.6324,-4.704,-4.7309,-4.7309,-4.7309,-4.7309,-4.7309,-4.7309,-4.7309,-4.7309,-4.7309,-4.7309,-4.7309,-4.7309,-4.7309,-4.7309,-4.7309,-4.7309,-4.7309,-4.7309,-4.7309,-4.7266,-4.7122,-4.5737,-4.4462,-4.4919,-4.3625,-4.2414,-4.3015,-4.3085,-4.2974,-4.2974,-4.2974,-4.2974,-4.2974,-4.2974,-4.2974,-4.2974,-4.2974,-4.2974,-4.2974,-4.2974,-4.3037,-4.32,-4.3212,-4.3627,-4.4656,-4.438,-4.4305,-4.4644,-4.4681,-4.4681,-4.4681,-4.4719,-4.4744,-4.4744,-4.5271,-4.5547,-4.5547,-4.6062,-4.6313,-4.6313,-4.6313,-4.6313,-2.0456,0.0,-2.1201,-2.172,-2.1126,-2.0412,0.0,-2.0037,-1.9708,-1.9708,-1.9708,-1.9872,-2.0378,-2.0583,-2.1246,-2.2892,-2.3962,-2.5651,-2.8708,-3.3095,-3.6761,-3.8686,-4.0561,-4.1632,-4.1399,-4.2566,-4.329,-4.329,-4.329,-4.329,-4.329,-4.329,-4.329,-4.329,-4.329,-4.329,-4.329,-4.329,-4.329,-4.329,-4.329,-4.329,-4.329,-4.329,-4.3648,-4.4347,-4.5005,-4.5678,-4.6324,-4.704,-4.7309,-4.7309,-4.7309,-4.7309,-4.7309,-4.7309,-4.7309,-4.7309,-4.7309,-4.7309,-4.7309,-4.7309,-4.7309,-4.7309,-4.7309,-4.7309,-4.7309,-4.7309,-4.7309,-4.6947,-4.5409,-4.4976,-4.4847,-4.4495,-4.3614,-4.3131,-4.4292,-4.37,-4.2974,-4.2974,-4.2974,-4.2974,-4.2974,-4.2974,-4.2974,-4.2974,-4.2974,-4.2974,-4.2974,-4.2974,-4.3639,-4.5347,-4.5522,-4.5635,-4.5886,-4.5321,-4.4982,-4.507,-4.5208,-4.5284,-4.5284,-4.5686,-4.5912,-4.5912,-4.605,-4.6112,-4.6125,-4.625,-4.6313,-4.6313,-4.6313,-4.6313,-1.9708,-1.9708,-1.9798,-2.0154,-1.9959,-1.9708,-1.9708,-1.9708,-1.9798,-2.0094,-2.0154,-2.0363,-2.1036,-2.2138,-2.308,-2.3535,-2.5935,-2.8835,-3.1869,-3.4741,-3.736,-3.9604,-4.0816,-4.1669,-4.2222,-4.2886,-4.329,-4.329,-4.329,-4.329,-4.329,-4.329,-4.329,-4.329,-4.329,-4.329,-4.329,-4.329,-4.329,-4.329,-4.329,-4.329,-4.3305,-4.3604,-4.4137,-4.4811,-4.5484,-4.6157,-4.68,-4.716,-4.7309,-4.7309,-4.7309,-4.7309,-4.7309,-4.7309,-4.7309,-4.7309,-4.7309,-4.7309,-4.7309,-4.7309,-4.7309,-4.7309,-4.7309,-4.7309,-4.7309,-4.7309,-4.7519,-4.7495,-4.6437,-4.6338,-4.6293,-4.5316,-4.4466,-4.3962,-4.4071,-4.3492,-4.2974,-4.2974,-4.2974,-4.2974,-4.2974,-4.2974,-4.2974,-4.2974,-4.2974,-4.335,-4.438,-4.4505,-4.497,-4.6175,-4.6313,-4.6313,-4.6313,-4.5949,-4.5723,-4.5723,-4.5811,-4.5861,-4.5861,-4.615,-4.6313,-4.6313,-4.6313,-4.6313,-4.6313,-4.6313,-4.6313,-4.6313,-4.6313,-4.6313,-1.9708,-1.9857,-1.9962,-1.9753,-1.9708,-1.9738,-1.9842,-1.9839,-2.0034,-2.0703,-2.0838,-2.1156,-2.2113,-2.3939,-2.5121,-2.4597,-2.8685,-3.2841,-3.5429,-3.6148,-3.7404,-4.0083,-4.0666,-4.1414,-4.2856,-4.3185,-4.329,-4.329,-4.329,-4.329,-4.329,-4.329,-4.329,-4.329,-4.329,-4.329,-4.329,-4.329,-4.329,-4.329,-4.329,-4.329,-4.3319,-4.3977,-4.4676,-4.5334,-4.6022,-4.6696,-4.7309,-4.7309,-4.7309,-4.7309,-4.7309,-4.7309,-4.7309,-4.7309,-4.7309,-4.7309,-4.7309,-4.7309,-4.7309,-4.7309,-4.7309,-4.7309,-4.7309,-4.7309,-4.7324,-4.7429,-4.7863,-4.8252,-4.8164,-4.7987,-4.758,-4.6523,-4.5457,-4.4427,-4.3492,-4.3129,-4.2974,-4.2974,-4.2974,-4.2974,-4.2974,-4.2974,-4.2974,-4.2974,-4.3275,-4.4166,-4.6075,-4.6313,-4.6313,-4.6313,-4.6313,-4.6313,-4.6313,-4.6313,-4.6313,-4.6313,-4.6313,-4.6313,-4.6313,-4.6313,-4.6313,-4.6313,-4.6313,-4.6313,-4.6313,-4.6313,-4.6313,-4.6313,-4.6313,-4.6313,-1.9708,-2.0531,-2.1111,-1.9992,-1.9708,-1.9857,-2.0423,-2.0557,-2.0752,-2.141,-2.1545,-2.2248,-2.4582,-2.4403,-2.4941,-2.8169,-3.1703,-3.4756,-3.6821,-3.905,-4.0457,-4.0412,-4.1863,-4.2566,-4.1758,-4.2686,-4.329,-4.329,-4.329,-4.329,-4.329,-4.329,-4.329,-4.329,-4.329,-4.329,-4.329,-4.329,-4.329,-4.329,-4.329,-4.329,-4.3319,-4.3977,-4.4676,-4.5334,-4.6022,-4.6696,-4.7309,-4.7309,-4.7309,-4.7309,-4.7309,-4.7309,-4.7309,-4.7309,-4.7309,-4.7309,-4.7309,-4.7309,-4.7309,-4.7309,-4.7309,-4.7309,-4.7309,-4.7309,-4.7414,-4.7982,-4.8207,-4.8164,-4.7544,-4.688,-4.6536,-4.6846,-4.5076,-4.3547,-4.4481,-4.381,-4.2974,-4.2974,-4.2974,-4.2974,-4.2974,-4.2974,-4.2974,-4.2974,-4.4581,-4.5924,-4.6276,-4.6313,-4.6313,-4.6313,-4.6313,-4.6313,-4.6313,-4.6313,-4.6313,-4.6313,-4.6313,-4.6313,-4.6313,-4.6313,-4.6313,-4.6313,-4.6313,-4.6313,-4.6313,-4.6313,-4.6313,-4.6313,-4.6313,-4.6313,-1.9708,-2.0408,-2.1186,-2.1295,-2.1829,-2.2443,-2.2736,-2.308,-2.3445,-2.3744,-2.3804,-2.4403,-2.6318,-2.7335,-2.9295,-3.3634,-3.4726,-3.5848,-3.8167,-3.923,-4.0053,-4.0831,-4.1728,-4.2312,-4.2432,-4.2946,-4.329,-4.329,-4.329,-4.329,-4.329,-4.329,-4.329,-4.329,-4.329,-4.329,-4.329,-4.329,-4.329,-4.329,-4.329,-4.3484,-4.3843,-4.4541,-4.5214,-4.5888,-4.6561,-4.7025,-4.7309,-4.7309,-4.7309,-4.7309,-4.7309,-4.7309,-4.7309,-4.7309,-4.7309,-4.7309,-4.7309,-4.7309,-4.7309,-4.7309,-4.7309,-4.7309,-4.7309,-4.7549,-4.7893,-4.8192,-4.8536,-4.882,-4.882,-4.8302,-4.7672,-4.7193,-4.5555,-4.4071,-4.3962,-4.3449,-4.2974,-4.2974,-4.2974,-4.2974,-4.2974,-4.2974,-4.3388,-4.4593,-4.5648,-4.6313,-4.6313,-4.6313,-4.6313,-4.6313,-4.6313,-4.6313,-4.6313,-4.6313,-4.6313,-4.6313,-4.6313,-4.6313,-4.6313,-4.6313,-4.6313,-4.6313,-4.6313,-4.6313,-4.6313,-4.6313,-4.6313,-4.6313,-4.6313,-4.6313,-1.9708,-2.0408,-2.141,-2.2448,-2.331,-2.4156,-2.5083,-2.5457,-2.5794,-2.6408,-2.6647,-2.7111,-2.8319,-3.0537,-3.3394,-3.712,-3.6851,-3.7105,-3.9738,-3.9649,-3.9948,-4.1639,-4.1833,-4.2237,-4.32,-4.329,-4.329,-4.329,-4.329,-4.329,-4.329,-4.329,-4.329,-4.329,-4.329,-4.329,-4.329,-4.329,-4.329,-4.329,-4.329,-4.3633,-4.4332,-4.499,-4.5678,-4.6324,-4.7025,-4.7309,-4.7309,-4.7309,-4.7309,-4.7309,-4.7309,-4.7309,-4.7309,-4.7309,-4.7309,-4.7309,-4.7309,-4.7309,-4.7309,-4.7309,-4.7309,-4.7339,-4.7489,-4.7878,-4.8356,-4.8656,-4.9105,-4.9613,-5.0061,-4.9453,-4.8439,-4.735,-4.5767,-4.4277,-4.324,-4.2974,-4.2974,-4.2974,-4.2974,-4.2974,-4.2974,-4.3413,-4.4342,-4.605,-4.6313,-4.6313,-4.6313,-4.6313,-4.6313,-4.6313,-4.6313,-4.6313,-4.6313,-4.6313,-4.6313,-4.6313,-4.6313,-4.6313,-4.6313,-4.6313,-4.6313,-4.6313,-4.6313,-4.6313,-4.6313,-4.6313,-4.6313,-4.6313,-4.6313,-4.6313,-1.9708,-2.11,-2.2583,-2.2673,-2.2313,-2.2862,-2.6551,-2.6452,-2.6318,-2.8786,-2.9759,-3.0372,-3.1092,-3.2901,-3.4608,-3.5549,-3.7105,-3.911,-4.1811,-4.2141,-4.2357,-4.3065,-4.3155,-4.3185,-4.329,-4.329,-4.329,-4.329,-4.329,-4.329,-4.329,-4.329,-4.329,-4.329,-4.329,-4.329,-4.329,-4.329,-4.329,-4.329,-4.329,-4.3633,-4.4332,-4.499,-4.5678,-4.6324,-4.7025,-4.7309,-4.7309,-4.7309,-4.7309,-4.7309,-4.7309,-4.7309,-4.7309,-4.7309,-4.7309,-4.7309,-4.7309,-4.7309,-4.7309,-4.7309,-4.7309,-4.7414,-4.8027,-4.8252,-4.8536,-4.9702,-5.0091,-5.0136,-5.0181,-4.8735,-4.7248,-4.7094,-4.5102,-4.3141,-4.303,-4.2974,-4.2974,-4.2974,-4.2974,-4.2974,-4.2974,-4.4694,-4.6125,-4.6288,-4.6313,-4.6313,-4.6313,-4.6313,-4.6313,-4.6313,-4.6313,-4.6313,-4.6313,-4.6313,-4.6313,-4.6313,-4.6313,-4.6313,-4.6313,-4.6313,-4.6313,-4.6313,-4.6313,-4.6313,-4.6313,-4.6313,-4.6313,-4.6313,-4.6313,-4.6313,-2.0213,-2.1754,-2.3445,-2.4298,-2.4949,-2.5982,-2.8319,-2.9385,-3.0073,-3.0672,-3.1958,-3.3051,-3.332,-3.5654,-3.7494,-3.733,-3.9305,-4.1242,-4.2261,-4.2701,-4.3045,-4.326,-4.329,-4.329,-4.329,-4.329,-4.329,-4.329,-4.329,-4.329,-4.329,-4.329,-4.329,-4.329,-4.329,-4.329,-4.329,-4.329,-4.329,-4.3305,-4.3708,-4.4287,-4.4945,-4.5633,-4.6307,-4.695,-4.7189,-4.7309,-4.7309,-4.7309,-4.7309,-4.7309,-4.7309,-4.7309,-4.7309,-4.7309,-4.7309,-4.7309,-4.7309,-4.7309,-4.7309,-4.7309,-4.7578,-4.7967,-4.8207,-4.885,-4.9553,-5.0046,-5.048,-5.0808,-5.0808,-4.9601,-4.8175,-4.7299,-4.5661,-4.4016,-4.3184,-4.2974,-4.2974,-4.2974,-4.2974,-4.3426,-4.4807,-4.5748,-4.6313,-4.6313,-4.6313,-4.6313,-4.6313,-4.6313,-4.6313,-4.6313,-4.6313,-4.6313,-4.6313,-4.6313,-4.6313,-4.6313,-4.6313,-4.6313,-4.6313,-4.6313,-4.6313,-4.6313,-4.6313,-4.6313,-4.6313,-4.6313,-4.6313,-4.6313,-4.6313,-4.6313,-2.1156,-2.2607,-2.4298,-2.5839,-2.7255,-2.8693,-3.0445,-3.1704,-3.2647,-3.323,-3.4457,-3.5534,-3.5953,-3.7883,-3.9334,-3.9065,-4.0943,-4.247,-4.2641,-4.3045,-4.329,-4.329,-4.329,-4.329,-4.329,-4.329,-4.329,-4.329,-4.329,-4.329,-4.329,-4.329,-4.329,-4.329,-4.329,-4.329,-4.329,-4.329,-4.3409,-4.3604,-4.4317,-4.4855,-4.5319,-4.6007,-4.6681,-4.7309,-4.7309,-4.7309,-4.7309,-4.7309,-4.7309,-4.7309,-4.7309,-4.7309,-4.7309,-4.7309,-4.7309,-4.7309,-4.7309,-4.7309,-4.7339,-4.7549,-4.7923,-4.8371,-4.8775,-4.9523,-5.024,-5.045,-5.0823,-5.1214,-5.1214,-5.0191,-4.8851,-4.7402,-4.6122,-4.4779,-4.3338,-4.2974,-4.2974,-4.2974,-4.3539,-4.4518,-4.605,-4.6313,-4.6313,-4.6313,-4.6313,-4.6313,-4.6313,-4.6313,-4.6313,-4.6313,-4.6313,-4.6313,-4.6313,-4.6313,-4.6313,-4.6313,-4.6313,-4.6313,-4.6313,-4.6313,-4.6313,-4.6313,-4.6313,-4.6313,-4.6313,-4.6313,-4.6313,-4.6313,-4.6313,-4.6313,-2.2508,-2.364,-2.5098,-2.7121,-2.8648,-3.034,-3.2931,-3.3021,-3.3484,-3.6761,-3.7434,-3.7823,-3.9134,-3.9439,-3.9649,-4.0292,-4.1542,-4.2635,-4.32,-4.329,-4.329,-4.329,-4.329,-4.329,-4.329,-4.329,-4.329,-4.329,-4.329,-4.329,-4.329,-4.329,-4.329,-4.329,-4.329,-4.329,-4.329,-4.3305,-4.3618,-4.4332,-4.499,-4.5304,-4.5334,-4.6022,-4.6696,-4.7309,-4.7309,-4.7309,-4.7309,-4.7309,-4.7309,-4.7309,-4.7309,-4.7309,-4.7309,-4.7309,-4.7309,-4.7309,-4.7309,-4.7309,-4.7429,-4.8072,-4.8297,-4.8551,-4.9807,-5.0196,-5.0345,-5.0988,-5.1214,-5.1214,-5.1214,-5.0191,-4.8851,-4.7453,-4.6383,-4.5249,-4.3394,-4.2974,-4.2986,-4.2999,-4.4794,-4.6313,-4.6313,-4.6313,-4.6313,-4.6313,-4.6313,-4.6313,-4.6313,-4.6313,-4.6313,-4.6313,-4.6313,-4.6313,-4.6313,-4.6313,-4.6313,-4.6313,-4.6313,-4.6313,-4.6313,-4.6313,-4.6313,-4.6313,-4.6313,-4.6313,-4.6313,-4.6313,-4.6313,-4.6313,-4.6313,-4.6313,-2.168,-2.3954,-2.6378,-2.7919,-3.07,-3.3515,-3.5205,-3.5459,-3.6103,-3.8931,-3.8751,-3.8377,-3.926,-4.0561,-4.1287,-4.0516,-4.1893,-4.312,-4.326,-4.329,-4.329,-4.329,-4.329,-4.329,-4.329,-4.329,-4.329,-4.329,-4.329,-4.329,-4.329,-4.329,-4.329,-4.329,-4.329,-4.329,-4.329,-4.3753,-4.4122,-4.4332,-4.5469,-4.6022,-4.6037,-4.6711,-4.7115,-4.7309,-4.7309,-4.7309,-4.7309,-4.7309,-4.7309,-4.7309,-4.7309,-4.7309,-4.7309,-4.7309,-4.7309,-4.7369,-4.7833,-4.7997,-4.8102,-4.8805,-4.9284,-4.9687,-5.0076,-5.051,-5.0928,-5.1122,-5.1214,-5.1214,-5.1214,-5.0902,-5.0191,-4.8489,-4.7873,-4.6785,-4.37,-4.2974,-4.3438,-4.502,-4.5861,-4.6313,-4.6313,-4.6313,-4.6313,-4.6313,-4.6313,-4.6313,-4.6313,-4.6313,-4.6313,-4.6313,-4.6313,-4.6313,-4.6313,-4.6313,-4.6313,-4.6313,-4.6313,-4.6313,-4.6313,-4.6313,-4.6313,-4.6313,-4.6313,-4.6313,-4.6313,-4.6313,-4.6313,-4.6313,-4.6313,-4.6313,-2.3407,-2.5503,-2.7645,-3.0268,-3.2931,-3.5444,-3.7569,-3.8048,-3.8556,-4.0412,-4.0352,-4.0172,-4.0808,-4.1938,-4.2491,-4.1698,-4.2527,-4.329,-4.329,-4.329,-4.329,-4.329,-4.329,-4.329,-4.329,-4.329,-4.329,-4.329,-4.329,-4.329,-4.329,-4.329,-4.329,-4.329,-4.329,-4.329,-4.329,-4.3947,-4.4451,-4.4721,-4.5813,-4.6456,-4.6726,-4.713,-4.7309,-4.7309,-4.7309,-4.7309,-4.7309,-4.7309,-4.7309,-4.7309,-4.7309,-4.7309,-4.7309,-4.7309,-4.7474,-4.7758,-4.8147,-4.8461,-4.8775,-4.9434,-4.9912,-5.024,-5.051,-5.09,-5.1214,-5.1214,-5.1214,-5.1214,-5.1214,-5.1214,-5.076,-4.895,-4.9049,-4.8389,-4.3962,-4.3677,-4.4706,-4.605,-4.6313,-4.6313,-4.6313,-4.6313,-4.6313,-4.6313,-4.6313,-4.6313,-4.6313,-4.6313,-4.6313,-4.6313,-4.6313,-4.6313,-4.6313,-4.6313,-4.6313,-4.6313,-4.6313,-4.6313,-4.6313,-4.6313,-4.6313,-4.6313,-4.6313,-4.6313,-4.6313,-4.6313,-4.6313,-4.6313,-4.6313,-4.6313,-2.6222,-2.7495,-2.8843,-3.3305,-3.5175,-3.6731,-3.9723,-4.0487,-4.0756,-4.1392,-4.1991,-4.259,-4.317,-4.329,-4.329,-4.329,-4.329,-4.329,-4.329,-4.329,-4.329,-4.329,-4.329,-4.329,-4.329,-4.329,-4.329,-4.329,-4.329,-4.329,-4.329,-4.329,-4.329,-4.329,-4.329,-4.3319,-4.3379,-4.4077,-4.4736,-4.5394,-4.6082,-4.6726,-4.7309,-4.7309,-4.7309,-4.7309,-4.7309,-4.7309,-4.7309,-4.7309,-4.7309,-4.7309,-4.7309,-4.7339,-4.7399,-4.7399,-4.7818,-4.8386,-4.8446,-4.885,-4.9464,-5.0061,-5.0285,-5.039,-5.1035,-5.1214,-5.1214,-5.1214,-5.1214,-5.1214,-5.1214,-5.1214,-5.0807,-4.9161,-4.9984,-4.9897,-4.5163,-4.5251,-4.6313,-4.6313,-4.6313,-4.6313,-4.6313,-4.6313,-4.6313,-4.6313,-4.6313,-4.6313,-4.6313,-4.6313,-4.6313,-4.6313,-4.6313,-4.6313,-4.6313,-4.6313,-4.6313,-4.6313,-4.6313,-4.6313,-4.6313,-4.6313,-4.6313,-4.6313,-4.6313,-4.6313,-4.6313,-4.6313,-4.6313,-4.6313,-4.6313,-4.6313,-2.3954,-2.6776,-2.9906,-3.2946,-3.6552,-3.9529,-4.0247,-4.119,-4.2021,-4.2156,-4.2306,-4.259,-4.317,-4.329,-4.329,-4.329,-4.329,-4.329,-4.329,-4.329,-4.329,-4.329,-4.329,-4.329,-4.329,-4.329,-4.329,-4.329,-4.329,-4.329,-4.329,-4.329,-4.329,-4.329,-4.329,-4.3544,-4.4092,-4.4751,-4.5424,-4.6112,-4.677,-4.7174,-4.7309,-4.7309,-4.7309,-4.7309,-4.7309,-4.7309,-4.7309,-4.7309,-4.7309,-4.7309,-4.7309,-4.7623,-4.8072,-4.8072,-4.8491,-4.9134,-4.9643,-4.9867,-5.0091,-5.0749,-5.0958,-5.0988,-5.1184,-5.1214,-5.1214,-5.1214,-5.1214,-5.1214,-5.1214,-5.1214,-5.112,-5.0698,-5.0917,-5.1435,-5.237,-4.9284,-4.6313,-4.6313,-4.6313,-4.6313,-4.6313,-4.6313,-4.6313,-4.6313,-4.6313,-4.6313,-4.6313,-4.6313,-4.6313,-4.6313,-4.6313,-4.6313,-4.6313,-4.6313,-4.6313,-4.6313,-4.6313,-4.6313,-4.6313,-4.6313,-4.6313,-4.6313,-4.6313,-4.6313,-4.6313,-4.6313,-4.6313,-4.6313,-4.6313,-4.6313,-2.4575,-2.7061,-2.9726,-3.4233,-3.7659,-4.0098,-4.0726,-4.1677,-4.2485,-4.2761,-4.2821,-4.294,-4.323,-4.329,-4.329,-4.329,-4.329,-4.329,-4.329,-4.329,-4.329,-4.329,-4.329,-4.329,-4.329,-4.329,-4.329,-4.329,-4.329,-4.329,-4.329,-4.329,-4.329,-4.329,-4.3604,-4.3932,-4.4317,-4.5289,-4.5963,-4.6294,-4.6995,-4.7309,-4.7309,-4.7309,-4.7309,-4.7309,-4.7309,-4.7309,-4.7309,-4.7309,-4.7309,-4.7339,-4.7653,-4.7982,-4.8327,-4.8641,-4.9164,-4.9778,-5.0076,-5.0405,-5.0719,-5.1109,-5.1214,-5.1214,-5.1214,-5.1214,-5.1214,-5.1214,-5.1214,-5.1214,-5.1214,-5.1214,-5.1543,-5.2815,-5.3129,-5.3503,-5.4895,-5.0532,-4.6313,-4.6313,-4.6313,-4.6313,-4.6313,-4.6313,-4.6313,-4.6313,-4.6313,-4.6313,-4.6313,-4.6313,-4.6313,-4.6313,-4.6313,-4.6313,-4.6313,-4.6313,-4.6313,-4.6313,-4.6313,-4.6313,-4.6313,-4.6313,-4.6313,-4.6313,-4.6313,-4.6313,-4.6313,-4.6313,-4.6313,-4.6313,-4.6313,-4.6313,-2.5353,-2.751,-2.9726,-3.5744,-3.8347,-3.9738,-4.0935,-4.1856,-4.2545,-4.3045,-4.3215,-4.329,-4.329,-4.329,-4.329,-4.329,-4.329,-4.329,-4.329,-4.329,-4.329,-4.329,-4.329,-4.329,-4.329,-4.329,-4.329,-4.329,-4.329,-4.329,-4.329,-4.329,-4.329,-4.329,-4.3932,-4.4362,-4.4481,-4.5708,-4.6339,-4.6501,-4.704,-4.7309,-4.7309,-4.7309,-4.7309,-4.7309,-4.7309,-4.7309,-4.7309,-4.7309,-4.7369,-4.7534,-4.8072,-4.8416,-4.8686,-4.9239,-4.9838,-5.036,-5.036,-5.0719,-5.1214,-5.1214,-5.1214,-5.1214,-5.1214,-5.1214,-5.1214,-5.1214,-5.1214,-5.1214,-5.1214,-5.1558,-5.2456,-5.467,-5.5194,-5.5194,-5.5194,-5.1305,-4.7534,-4.6481,-4.6313,-4.6313,-4.6313,-4.6313,-4.6313,-4.6313,-4.6313,-4.6313,-4.6313,-4.6313,-4.6313,-4.6313,-4.6313,-4.6313,-4.6313,-4.6313,-4.6313,-4.6313,-4.6313,-4.6313,-4.6313,-4.6313,-4.6313,-4.6313,-4.6313,-4.6313,-4.6313,-4.6313,-4.6313,-4.6313,-4.6313,-4.6313,-2.2823,-2.7096,-3.1884,-3.5669,-3.8018,-3.9619,-4.0367,-4.1512,-4.2425,-4.2515,-4.294,-4.329,-4.329,-4.329,-4.329,-4.329,-4.329,-4.329,-4.329,-4.329,-4.329,-4.329,-4.329,-4.329,-4.329,-4.329,-4.329,-4.329,-4.329,-4.329,-4.329,-4.329,-4.329,-4.329,-4.3932,-4.4586,-4.5155,-4.5933,-4.6606,-4.7174,-4.7264,-4.7309,-4.7309,-4.7309,-4.7309,-4.7309,-4.7309,-4.7309,-4.7309,-4.7309,-4.7638,-4.8162,-4.8252,-4.897,-4.9941,-5.0031,-5.0526,-5.1094,-5.1094,-5.1154,-5.1214,-5.1214,-5.1214,-5.1214,-5.1214,-5.1214,-5.1214,-5.1214,-5.1214,-5.1214,-5.1214,-5.292,-5.4745,-5.5104,-5.5194,-5.5194,-5.5194,-5.4575,-5.247,-4.7311,-4.6313,-4.6313,-4.6313,-4.6313,-4.6313,-4.6313,-4.6313,-4.6313,-4.6313,-4.6313,-4.6313,-4.6313,-4.6313,-4.6313,-4.6313,-4.6313,-4.6313,-4.6313,-4.6313,-4.6313,-4.6313,-4.6313,-4.6313,-4.6313,-4.6313,-4.6313,-4.6313,-4.6313,-4.6313,-4.6313,-4.6313,-4.6313,-2.3355,-2.732,-3.1225,-3.4532,-3.6582,-3.8138,-3.9529,-4.0591,-4.1512,-4.2246,-4.262,-4.2895,-4.323,-4.329,-4.329,-4.329,-4.329,-4.329,-4.329,-4.329,-4.329,-4.329,-4.329,-4.329,-4.329,-4.329,-4.329,-4.329,-4.329,-4.329,-4.329,-4.329,-4.3469,-4.3828,-4.4526,-4.5185,-4.5858,-4.6546,-4.7025,-4.7309,-4.7309,-4.7309,-4.7309,-4.7309,-4.7309,-4.7309,-4.7309,-4.7309,-4.7339,-4.7698,-4.8027,-4.8356,-4.909,-4.9687,-5.024,-5.0599,-5.0928,-5.1214,-5.1214,-5.1214,-5.1214,-5.1214,-5.1214,-5.1214,-5.1214,-5.1214,-5.1214,-5.1214,-5.1214,-5.1573,-5.3054,-5.4311,-5.5194,-5.5194,-5.5194,-5.5194,-5.5194,-5.2576,-4.9422,-4.6815,-4.6313,-4.6313,-4.6313,-4.6313,-4.6313,-4.6313,-4.6313,-4.6313,-4.6313,-4.6313,-4.6313,-4.6313,-4.6313,-4.6313,-4.6313,-4.6313,-4.6313,-4.6313,-4.6313,-4.6313,-4.6313,-4.6313,-4.6313,-4.6313,-4.6313,-4.6313,-4.6313,-4.6313,-4.6313,-4.6313,-4.6313,-4.6313,-2.34,-2.6303,-2.8963,-3.2587,-3.4487,-3.6043,-3.8182,-3.9439,-4.0427,-4.1414,-4.2051,-4.2545,-4.3,-4.3185,-4.329,-4.329,-4.329,-4.329,-4.329,-4.329,-4.329,-4.329,-4.329,-4.329,-4.329,-4.329,-4.329,-4.329,-4.329,-4.329,-4.329,-4.329,-4.3604,-4.4287,-4.4945,-4.5618,-4.6264,-4.698,-4.7309,-4.7309,-4.7309,-4.7309,-4.7309,-4.7309,-4.7399,-4.7549,-4.7549,-4.7549,-4.7608,-4.8267,-4.8626,-4.888,-4.9807,-5.0285,-5.0495,-5.1035,-5.1214,-5.1214,-5.1214,-5.1214,-5.1214,-5.1214,-5.1214,-5.1214,-5.1214,-5.1214,-5.1214,-5.1214,-5.1708,-5.268,-5.467,-5.5194,-5.5194,-5.5194,-5.5194,-5.5194,-5.5194,-5.0532,-4.6313,-4.6313,-4.6313,-4.6313,-4.6313,-4.6313,-4.6313,-4.6313,-4.6313,-4.6313,-4.6313,-4.6313,-4.6313,-4.6313,-4.6313,-4.6313,-4.6313,-4.6313,-4.6313,-4.6313,-4.6313,-4.6313,-4.6313,-4.6313,-4.6313,-4.6313,-4.6313,-4.6313,-4.6313,-4.6313,-4.6313,-4.6313,-4.6313,-4.6313,-2.1306,-2.2892,-2.5001,-2.9579,-3.1734,-3.341,-3.6043,-3.8108,-3.9448,-3.9559,-4.1055,-4.241,-4.244,-4.291,-4.329,-4.329,-4.329,-4.329,-4.329,-4.329,-4.329,-4.329,-4.329,-4.329,-4.329,-4.329,-4.329,-4.329,-4.329,-4.329,-4.329,-4.329,-4.3604,-4.4287,-4.4945,-4.5618,-4.6264,-4.698,-4.7309,-4.7309,-4.7309,-4.7309,-4.7309,-4.7309,-4.7653,-4.8237,-4.8237,-4.8237,-4.8282,-4.8985,-4.9583,-5.0106,-5.0166,-5.0569,-5.1169,-5.1214,-5.1214,-5.1214,-5.1214,-5.1214,-5.1214,-5.1214,-5.1214,-5.1214,-5.1214,-5.1214,-5.1214,-5.1214,-5.3039,-5.5014,-5.5149,-5.5194,-5.5194,-5.5194,-5.5194,-5.5194,-5.5194,-5.0532,-4.6313,-4.6313,-4.6313,-4.6313,-4.6313,-4.6313,-4.6313,-4.6313,-4.6313,-4.6313,-4.6313,-4.6313,-4.6313,-4.6313,-4.6313,-4.6313,-4.6313,-4.6313,-4.6313,-4.6313,-4.6313,-4.6313,-4.6313,-4.6313,-4.6313,-4.6313,-4.6313,-4.6313,-4.6313,-4.6313,-4.6313,-4.6313,-4.6313,-4.6313,-2.0389,-2.171,-2.3176,-2.6527,-2.931,-3.1704,-3.3514,-3.6103,-3.8377,-3.9209,-4.0651,-4.1901,-4.2321,-4.2895,-4.329,-4.329,-4.329,-4.329,-4.329,-4.329,-4.329,-4.329,-4.329,-4.329,-4.329,-4.329,-4.329,-4.329,-4.329,-4.329,-4.329,-4.3693,-4.4272,-4.493,-4.5603,-4.6277,-4.695,-4.7189,-4.7309,-4.7309,-4.7309,-4.7309,-4.7309,-4.7743,-4.8057,-4.8341,-4.9164,-4.9299,-4.9015,-4.9628,-5.0017,-5.0226,-5.0659,-5.1005,-5.1214,-5.1214,-5.1214,-5.1214,-5.1214,-5.1214,-5.1214,-5.1214,-5.1214,-5.1214,-5.1214,-5.1214,-5.1573,-5.3279,-5.4461,-5.5194,-5.5194,-5.5194,-5.5194,-5.5194,-5.5194,-5.5194,-5.5194,-5.3518,-5.0865,-4.7027,-4.6313,-4.6313,-4.6313,-4.6313,-4.6313,-4.6313,-4.6313,-4.6313,-4.6313,-4.6313,-4.6313,-4.6313,-4.6313,-4.6313,-4.6313,-4.6313,-4.6313,-4.6313,-4.6313,-4.6313,-4.6313,-4.6313,-4.6313,-4.6313,-4.6313,-4.6313,-4.6313,-4.6313,-4.6313,-4.6313,-4.6313,-4.6313,-1.9148,-2.0054,-2.1109,-2.391,-2.6465,-2.8827,-3.1047,-3.3903,-3.6477,-3.7823,-3.9499,-4.0846,-4.1294,-4.2087,-4.2821,-4.323,-4.329,-4.329,-4.329,-4.329,-4.329,-4.329,-4.329,-4.329,-4.329,-4.329,-4.329,-4.329,-4.329,-4.329,-4.329,-4.3958,-4.4721,-4.5618,-4.6307,-4.686,-4.7309,-4.7309,-4.7309,-4.7309,-4.7309,-4.7414,-4.7653,-4.8087,-4.8521,-4.8985,-4.9807,-4.9987,-4.9643,-5.0301,-5.0524,-5.0569,-5.105,-5.1214,-5.1214,-5.1214,-5.1214,-5.1214,-5.1214,-5.1214,-5.1214,-5.1214,-5.1214,-5.1214,-5.1214,-5.1843,-5.292,-5.47,-5.5194,-5.5194,-5.5194,-5.5194,-5.5194,-5.5194,-5.5194,-5.5194,-5.5194,-5.5194,-5.3466,-4.7475,-4.6313,-4.6313,-4.6313,-4.6313,-4.6313,-4.6313,-4.6313,-4.6313,-4.6313,-4.6313,-4.6313,-4.6313,-4.6313,-4.6313,-4.6313,-4.6313,-4.6313,-4.6313,-4.6313,-4.6313,-4.6313,-4.6313,-4.6313,-4.6313,-4.6313,-4.6313,-4.6313,-4.6313,-4.6313,-4.6313,-4.6313,-4.6313,0.0,0.0,0.0,-2.1803,-2.3187,-2.4747,-2.8547,-3.148,-3.3784,-3.5115,-3.7509,-3.9328,-3.9328,-4.0442,-4.1773,-4.3006,-4.3245,-4.326,-4.326,-4.329,-4.329,-4.329,-4.329,-4.329,-4.329,-4.329,-4.329,-4.329,-4.329,-4.329,-4.329,-4.3932,-4.496,-4.6264,-4.698,-4.7309,-4.7309,-4.7309,-4.7309,-4.7309,-4.7324,-4.7668,-4.8282,-4.8327,-4.903,-5.0196,-5.0211,-5.0226,-5.027,-5.0913,-5.1214,-5.1214,-5.1214,-5.1214,-5.1214,-5.1214,-5.1214,-5.1214,-5.1244,-5.1229,-5.1229,-5.1274,-5.1244,-5.1229,-5.1304,-5.3144,-5.5194,-5.5194,-5.5194,-5.5194,-5.5194,-5.5194,-5.5194,-5.5194,-5.5194,-5.5128,-5.4962,-5.4962,-5.3241,-4.7429,-4.6313,-4.6313,-4.6313,-4.6313,-4.6313,-4.6313,-4.6313,-4.6313,-4.6313,-4.6313,-4.6313,-4.6313,-4.6313,-4.6313,-4.6313,-4.6313,-4.6313,-4.6313,-4.6313,-4.6313,-4.6313,-4.6313,-4.6313,-4.6313,-4.6313,-4.6313,-4.6313,-4.6313,-4.6313,-4.6313,-4.6313,-4.6313,-1.6936,0.0,0.0,0.0,0.0,0.0,-2.4918,-2.8412,-3.1569,-3.2422,-3.5442,-3.7958,-3.7958,-3.9454,-4.0786,-4.116,-4.2013,-4.2626,-4.2626,-4.303,-4.329,-4.329,-4.329,-4.329,-4.329,-4.329,-4.329,-4.329,-4.329,-4.329,-4.329,-4.4407,-4.5648,-4.6995,-4.7204,-4.7309,-4.7309,-4.7309,-4.7309,-4.7309,-4.7788,-4.8117,-4.8312,-4.9269,-4.9852,-5.0226,-5.0689,-5.0898,-5.096,-5.1139,-5.1214,-5.1214,-5.1214,-5.1214,-5.1214,-5.1214,-5.1214,-5.1289,-5.1768,-5.1618,-5.1379,-5.2336,-5.1992,-5.1573,-5.3503,-5.461,-5.5194,-5.5194,-5.5194,-5.5194,-5.5194,-5.5194,-5.5194,-5.5194,-5.5194,-5.4016,-4.9691,-4.8762,-4.8255,-4.6648,-4.6313,-4.6313,-4.6313,-4.6313,-4.6313,-4.6313,-4.6313,-4.6313,-4.6313,-4.6313,-4.6313,-4.6313,-4.6313,-4.6313,-4.6313,-4.6313,-4.6313,-4.6313,-4.6313,-4.6313,-4.6313,-4.6313,-4.6313,-4.6313,-4.6313,-4.6313,-4.6313,-4.6313,-4.6313,-4.6313,-4.6313,-4.6313,-1.7458,-1.767,-1.7998,-1.8889,0.0,0.0,-2.3641,-2.6542,-2.9295,-3.0763,-3.3589,-3.5774,-3.5774,-3.7419,-3.8766,-3.8766,-3.9858,-4.1033,-4.1871,-4.2521,-4.2925,-4.2925,-4.3125,-4.329,-4.329,-4.329,-4.329,-4.329,-4.329,-4.3529,-4.4122,-4.4885,-4.5903,-4.7264,-4.7309,-4.7309,-4.7309,-4.7309,-4.7444,-4.7713,-4.8102,-4.8566,-4.9119,-4.9852,-5.0345,-5.0629,-5.105,-5.1214,-5.1214,-5.1214,-5.1214,-5.1214,-5.1214,-5.1214,-5.1214,-5.1214,-5.1394,-5.1678,-5.2067,-5.2127,-5.2157,-5.2935,-5.3039,-5.3159,-5.473,-5.5194,-5.5194,-5.5194,-5.5194,-5.5194,-5.5194,-5.5194,-5.5194,-5.5194,-5.5194,-5.4237,-5.0754,-4.8035,-4.6313,-4.6313,-4.6313,-4.6313,-4.6313,-4.6313,-4.6313,-4.6313,-4.6313,-4.6313,-4.6313,-4.6313,-4.6313,-4.6313,-4.6313,-4.6313,-4.6313,-4.6313,-4.6313,-4.6313,-4.6313,-4.6313,-4.6313,-4.6313,-4.6313,-4.6313,-4.6313,-4.6313,-4.6313,-4.6313,-4.6313,-4.6313,-4.6313,-4.6313,-1.8493,-1.8299,-1.8263,-1.9313,-1.9729,0.0,-2.3427,-2.5105,-2.6762,-2.9146,-3.1256,-3.2661,-3.2721,-3.4367,-3.5714,-3.5714,-3.6911,-3.8601,-4.0741,-4.1722,-4.2216,-4.2276,-4.2761,-4.3125,-4.329,-4.323,-4.3215,-4.329,-4.329,-4.3828,-4.5125,-4.5259,-4.5888,-4.716,-4.7264,-4.7309,-4.7309,-4.7369,-4.7713,-4.8282,-4.8431,-4.9105,-5.0196,-5.027,-5.0629,-5.1214,-5.1214,-5.1214,-5.1214,-5.1214,-5.1214,-5.1214,-5.1214,-5.1214,-5.1229,-5.1304,-5.1693,-5.2217,-5.2366,-5.2755,-5.3204,-5.3354,-5.4206,-5.5194,-5.5194,-5.5194,-5.5194,-5.5194,-5.5194,-5.5194,-5.5194,-5.5194,-5.5194,-5.5194,-5.5194,-5.5027,-5.4355,-5.0029,-4.6313,-4.6313,-4.6313,-4.6313,-4.6313,-4.6313,-4.6313,-4.6313,-4.6313,-4.6313,-4.6313,-4.6313,-4.6313,-4.6313,-4.6313,-4.6313,-4.6313,-4.6313,-4.6313,-4.6313,-4.6313,-4.6313,-4.6313,-4.6313,-4.6313,-4.6313,-4.6313,-4.6313,-4.6313,-4.6313,-4.6313,-4.6313,-4.6313,-4.6313,-1.8296,-1.8214,-1.8612,-1.885,-1.9319,0.0,-2.0509,-2.1783,-2.3076,-2.4022,-2.5854,-2.7424,-2.7882,-2.9606,-3.0954,-3.0954,-3.2916,-3.5519,-3.8542,-4.0023,-4.098,-4.1542,-4.1683,-4.2177,-4.3185,-4.2865,-4.2776,-4.3245,-4.329,-4.3633,-4.4466,-4.5005,-4.5663,-4.6486,-4.7025,-4.7309,-4.7309,-4.7833,-4.8162,-4.8297,-4.9359,-4.9941,-5.0211,-5.0749,-5.1094,-5.1214,-5.1214,-5.1214,-5.1214,-5.1214,-5.1214,-5.1214,-5.1214,-5.1214,-5.1289,-5.1813,-5.2097,-5.2351,-5.3443,-5.3533,-5.3354,-5.4446,-5.4985,-5.5194,-5.5194,-5.5194,-5.5194,-5.5194,-5.5194,-5.5194,-5.5194,-5.5194,-5.5194,-5.5194,-5.5194,-5.386,-4.9093,-4.7146,-4.6313,-4.6313,-4.6313,-4.6313,-4.6313,-4.6313,-4.6313,-4.6313,-4.6313,-4.6313,-4.6313,-4.6313,-4.6313,-4.6313,-4.6313,-4.6313,-4.6313,-4.6313,-4.6313,-4.6313,-4.6313,-4.6313,-4.6313,-4.6313,-4.6313,-4.6313,-4.6313,-4.6313,-4.6313,-4.6313,-4.6313,-4.6313,-4.6313,-4.6313,-1.8837,-1.835,-1.8454,-1.8724,-1.9046,0.0,0.0,-2.0872,-2.1677,-2.2613,-2.3873,-2.4975,-2.5506,-2.6976,-2.8109,-2.8109,-3.0043,-3.1884,-3.2886,-3.6402,-3.9155,-3.9813,-4.0472,-4.128,-4.2267,-4.2396,-4.2626,-4.3245,-4.329,-4.3574,-4.4272,-4.4945,-4.5618,-4.6264,-4.6965,-4.7309,-4.7309,-4.7952,-4.8446,-4.8835,-4.9763,-5.036,-5.0689,-5.1065,-5.1214,-5.1214,-5.1214,-5.1214,-5.1214,-5.1214,-5.1214,-5.1214,-5.1214,-5.1409,-5.1753,-5.2082,-5.2621,-5.3294,-5.3982,-5.4206,-5.4296,-5.497,-5.5194,-5.5194,-5.5194,-5.5194,-5.5194,-5.5194,-5.5194,-5.5194,-5.5194,-5.5194,-5.4458,-5.1469,-5.0754,-4.9917,-4.6921,-4.6313,-4.6313,-4.6313,-4.6313,-4.6313,-4.6313,-4.6313,-4.6313,-4.6313,-4.6313,-4.6313,-4.6313,-4.6313,-4.6313,-4.6313,-4.6313,-4.6313,-4.6313,-4.6313,-4.6313,-4.6313,-4.6313,-4.6313,-4.6313,-4.6313,-4.6313,-4.6313,-4.6313,-4.6313,-4.6313,-4.6313,-4.6313,-4.6313,-4.6313,-4.6313,-1.9738,-1.868,-1.8323,-1.866,-1.8746,-1.9032,0.0,0.0,0.0,-2.1903,-2.2511,-2.3008,-2.3561,-2.4657,-2.5375,-2.5106,-2.6961,-2.7989,-2.6641,-3.1569,-3.5714,-3.6746,-3.8512,-3.9858,-4.0382,-4.1287,-4.2162,-4.3075,-4.2991,-4.326,-4.4092,-4.487,-4.5544,-4.6112,-4.689,-4.7309,-4.7309,-4.8072,-4.8745,-4.9329,-5.0062,-5.0659,-5.1214,-5.1214,-5.1214,-5.1214,-5.1214,-5.1214,-5.1214,-5.1214,-5.1214,-5.1214,-5.1214,-5.1618,-5.2217,-5.2336,-5.3159,-5.4221,-5.4356,-5.4745,-5.5194,-5.5194,-5.5194,-5.5194,-5.5194,-5.5194,-5.5194,-5.5194,-5.5194,-5.5194,-5.5194,-5.5194,-5.3964,-4.9137,-4.8035,-4.7697,-4.6528,-4.6313,-4.6313,-4.6313,-4.6313,-4.6313,-4.6313,-4.6313,-4.6313,-4.6313,-4.6313,-4.6313,-4.6313,-4.6313,-4.6313,-4.6313,-4.6313,-4.6313,-4.6313,-4.6313,-4.6313,-4.6313,-4.6313,-4.6313,-4.6313,-4.6313,-4.6313,-4.6313,-4.6313,-4.6313,-4.6313,-4.6313,-4.6313,-4.6313,-4.6313,-4.6313,-2.0792,-1.9309,-1.8707,-1.829,-1.8204,-1.8232,-1.8371,0.0,-1.8593,-1.9219,0.0,-1.9614,-2.0169,0.0,0.0,-1.9794,-2.2233,-2.3834,-2.2547,-2.551,-2.8712,-3.1106,-3.4681,-3.6956,-3.703,-3.8676,-4.0502,-4.2366,-4.1961,-4.2147,-4.3334,-4.4616,-4.5334,-4.5409,-4.6636,-4.7309,-4.7309,-4.8536,-4.9239,-4.9329,-5.0511,-5.1154,-5.1214,-5.1214,-5.1214,-5.1214,-5.1214,-5.1214,-5.1214,-5.1214,-5.1214,-5.1214,-5.1214,-5.1618,-5.2276,-5.286,-5.3548,-5.4296,-5.488,-5.5134,-5.5194,-5.5194,-5.5194,-5.5194,-5.5194,-5.5194,-5.5194,-5.5194,-5.5194,-5.5194,-5.5194,-5.5194,-5.5027,-5.4355,-5.4186,-5.2751,-4.7429,-4.6313,-4.6313,-4.6313,-4.6313,-4.6313,-4.6313,-4.6313,-4.6313,-4.6313,-4.6313,-4.6313,-4.6313,-4.6313,-4.6313,-4.6313,-4.6313,-4.6313,-4.6313,-4.6313,-4.6313,-4.6313,-4.6313,-4.6313,-4.6313,-4.6313,-4.6313,-4.6313,-4.6313,-4.6313,-4.6313,-4.6313,-4.6313,-4.6313,-4.6313,-4.6313,-2.1925,-2.0912,-2.0508,-1.9405,-1.9207,-1.9134,-1.8666,-1.8322,-1.8132,-1.8288,0.0,0.0,0.0,0.0,0.0,0.0,-1.9929,-2.0872,-1.9552,-2.2547,-2.5989,-2.9041,-3.1225,-3.338,-3.5699,-3.8033,-4.0083,-4.1707,-4.1931,-4.2357,-4.3245,-4.4586,-4.5289,-4.5289,-4.6606,-4.7309,-4.7309,-4.8655,-4.9314,-4.9329,-5.0601,-5.1214,-5.1214,-5.1214,-5.1214,-5.1214,-5.1214,-5.1214,-5.1214,-5.1214,-5.1214,-5.1259,-5.1633,-5.2187,-5.28,-5.3084,-5.3862,-5.482,-5.5089,-5.5194,-5.5194,-5.5194,-5.5194,-5.5194,-5.5194,-5.5194,-5.5194,-5.5194,-5.5194,-5.5194,-5.5194,-5.5194,-5.5194,-5.5194,-5.2576,-4.9365,-4.6874,-4.6313,-4.6313,-4.6313,-4.6313,-4.6313,-4.6313,-4.6313,-4.6313,-4.6313,-4.6313,-4.6313,-4.6313,-4.6313,-4.6313,-4.6313,-4.6313,-4.6313,-4.6313,-4.6313,-4.6313,-4.6313,-4.6313,-4.6313,-4.6313,-4.6313,-4.6313,-4.6313,-4.6313,-4.6313,-4.6313,-4.6313,-4.6313,-4.6313,-4.6313,-4.6313,-2.3808,-2.2762,-2.2161,-2.0365,-1.988,-1.9656,-1.908,-1.8643,-1.8293,-1.8192,-1.8289,0.0,0.0,0.0,-1.7848,-1.7488,0.0,-1.8687,-1.7371,-1.9941,-2.3026,-2.5824,-2.7545,-2.9983,-3.3769,-3.6357,-3.8556,-4.0427,-4.1377,-4.2267,-4.3245,-4.4586,-4.5289,-4.5289,-4.6606,-4.7309,-4.7309,-4.8655,-4.9314,-4.9329,-5.0601,-5.1214,-5.1214,-5.1214,-5.1214,-5.1214,-5.1214,-5.1214,-5.1214,-5.1214,-5.1214,-5.1289,-5.1947,-5.2606,-5.3204,-5.3399,-5.4192,-5.5194,-5.5194,-5.5194,-5.5194,-5.5194,-5.5194,-5.5194,-5.5194,-5.5194,-5.5194,-5.5194,-5.5194,-5.5194,-5.5194,-5.5194,-5.5194,-5.5194,-5.0643,-4.6313,-4.6313,-4.6313,-4.6313,-4.6313,-4.6313,-4.6313,-4.6313,-4.6313,-4.6313,-4.6313,-4.6313,-4.6313,-4.6313,-4.6313,-4.6313,-4.6313,-4.6313,-4.6313,-4.6313,-4.6313,-4.6313,-4.6313,-4.6313,-4.6313,-4.6313,-4.6313,-4.6313,-4.6313,-4.6313,-4.6313,-4.6313,-4.6313,-4.6313,-4.6313,-4.6313,-4.6313,-2.6792,-2.4745,-2.3225,-2.0643,-1.9551,-1.9121,-1.91,-1.8979,-1.8859,-1.8864,-1.927,-1.9645,-1.9648,-1.9106,-1.8237,-1.695,-1.7309,0.0,0.0,-1.7041,-1.8416,-1.9828,-2.3385,-2.7036,-3.0342,-3.2497,-3.5026,-3.8242,-3.9709,-4.1294,-4.3185,-4.4586,-4.5289,-4.5289,-4.6606,-4.7309,-4.7309,-4.8655,-4.9314,-4.9329,-5.0601,-5.1214,-5.1214,-5.1214,-5.1214,-5.1214,-5.1214,-5.1214,-5.1214,-5.1214,-5.1214,-5.1289,-5.1947,-5.2606,-5.3264,-5.3937,-5.461,-5.5194,-5.5194,-5.5194,-5.5194,-5.5194,-5.5194,-5.5194,-5.5194,-5.5194,-5.5194,-5.5194,-5.5194,-5.5194,-5.5194,-5.5194,-5.5194,-5.5194,-5.0643,-4.6313,-4.6313,-4.6313,-4.6313,-4.6313,-4.6313,-4.6313,-4.6313,-4.6313,-4.6313,-4.6313,-4.6313,-4.6313,-4.6313,-4.6313,-4.6313,-4.6313,-4.6313,-4.6313,-4.6313,-4.6313,-4.6313,-4.6313,-4.6313,-4.6313,-4.6313,-4.6313,-4.6313,-4.6313,-4.6313,-4.6313,-4.6313,-4.6313,-4.6313,-4.6313,-4.6313,-4.6313,-3.0205,-2.9574,-2.8638,-2.4694,-2.3331,-2.2446,-2.0585,-1.928,-1.8515,-1.8778,-1.865,-1.8481,-1.8395,-1.8192,-1.7727,-1.6845,-1.6891,-1.6577,0.0,-1.5889,-1.7102,-1.8837,-2.2527,-2.5546,-2.7111,-3.0657,-3.3858,-3.6297,-3.8916,-4.107,-4.2611,-4.3928,-4.484,-4.5289,-4.6172,-4.686,-4.7309,-4.8177,-4.888,-4.9329,-5.0152,-5.0749,-5.1214,-5.1214,-5.1214,-5.1214,-5.1214,-5.1214,-5.1214,-5.1214,-5.1214,-5.1334,-5.2426,-5.298,-5.3264,-5.3952,-5.4625,-5.5194,-5.5194,-5.5194,-5.5194,-5.5194,-5.5194,-5.5194,-5.5194,-5.5194,-5.5194,-5.5194,-5.5194,-5.5194,-5.5194,-5.2241,-4.9308,-4.9308,-4.7756,-4.6313,-4.6313,-4.6313,-4.6313,-4.6313,-4.6313,-4.6313,-4.6313,-4.6313,-4.6313,-4.6313,-4.6313,-4.6313,-4.6313,-4.6313,-4.6313,-4.6313,-4.6313,-4.6313,-4.6313,-4.6313,-4.6313,-4.6313,-4.6313,-4.6313,-4.6313,-4.6313,-4.6313,-4.6313,-4.6313,-4.6313,-4.6313,-4.6313,-4.6313,-4.6313,-4.6313,-4.6313,-3.3033,-3.2901,-3.2258,-2.829,-2.6954,-2.5899,-2.3373,-2.1582,-2.0547,-2.081,-1.9803,-1.9141,-2.0005,-1.8999,-1.8072,-1.8115,-1.7324,-1.6338,0.0,-1.571,-1.6667,-1.8179,0.0,0.0,0.0,0.0,-3.1719,-3.4906,-3.7539,-3.9993,-4.2276,-4.3374,-4.4377,-4.5274,-4.5963,-4.6636,-4.7294,-4.7952,-4.8506,-4.8925,-4.9823,-5.042,-5.0823,-5.1109,-5.1214,-5.1214,-5.1214,-5.1214,-5.1214,-5.1214,-5.1214,-5.1349,-5.2665,-5.3174,-5.3294,-5.4221,-5.482,-5.5194,-5.5194,-5.5194,-5.5194,-5.5194,-5.5194,-5.5194,-5.5194,-5.5194,-5.5194,-5.5194,-5.5194,-5.4692,-5.2576,-4.9194,-4.6313,-4.6313,-4.6313,-4.6313,-4.6313,-4.6313,-4.6313,-4.6313,-4.6313,-4.6313,-4.6313,-4.6313,-4.6313,-4.6313,-4.6313,-4.6313,-4.6313,-4.6313,-4.6313,-4.6313,-4.6313,-4.6313,-4.6313,-4.6313,-4.6313,-4.6313,-4.6313,-4.6313,-4.6313,-4.6313,-4.6313,-4.6313,-4.6313,-4.6313,-4.6313,-4.6313,-4.6313,-4.6313,-4.6313,-4.6313]},{"header":{"parameterUnit":"m.s-1","parameterCategory":1,"la1":30.6,"la2":29.2853,"lo1":-89.7004,"lo2":-87.6739,"dx":0.0162,"dy":0.0183,"nx":112,"ny":82,"refTime":"2022-11-02T18:00:00:Z","depth":0,"parameterNumber":3,"parameterNumberName":"V-component_of_WINDS"},"data":[0.0,0.0,0.0,0.0,0.0,0.0,0.0,0.0,0.0,0.0,0.0,0.0,0.0,0.0,0.0,0.0,0.0,0.0,0.0,0.0,0.0,0.0,0.0,0.0,0.0,0.0,0.0,0.0,0.0,0.0,0.0,0.0,0.0,0.0,0.0,0.0,0.0,0.0,0.0,0.0,0.0,0.0,0.0,0.0,0.0,0.0,0.0,0.0,0.0,0.0,0.0,0.0,0.0,0.0,0.0,0.0,0.0,0.0,0.0,0.0,0.0,0.0,0.0,0.0,0.0,0.0,0.0,0.0,0.0,0.0,0.0,0.0,0.0,0.0,0.0,0.0,0.0,0.0,0.0,0.0,0.0,0.0,0.0,0.0,0.0,0.0,0.0,0.0,0.0,0.0,2.2695,2.4504,2.7658,2.9355,2.8801,2.8667,2.6632,2.1994,0.0,0.0,0.0,0.0,0.0,0.0,0.0,0.0,0.0,0.0,0.0,0.0,0.0,0.0,0.0,0.0,0.0,0.0,0.0,0.0,0.0,0.0,0.0,0.0,0.0,0.0,0.0,0.0,0.0,0.0,0.0,0.0,0.0,0.0,0.0,0.0,0.0,0.0,0.0,0.0,0.0,0.0,0.0,0.0,0.0,0.0,0.0,0.0,0.0,0.0,0.0,0.0,0.0,0.0,0.0,0.0,0.0,0.0,0.0,0.0,0.0,0.0,0.0,0.0,0.0,0.0,0.0,0.0,0.0,0.0,0.0,0.0,0.0,0.0,0.0,0.0,0.0,0.0,0.0,0.0,0.0,0.0,0.0,0.0,0.0,0.0,0.0,0.0,0.0,0.0,0.0,0.0,0.0,0.0,0.0,0.0,0.0,0.0,0.0,0.0,0.0,0.0,0.0,0.0,2.373,2.8237,2.9253,2.9577,2.9472,2.8921,2.6632,2.1994,0.0,0.0,0.0,0.0,0.0,0.0,0.0,0.0,0.0,0.0,0.0,0.0,0.0,0.0,0.0,0.0,0.0,0.0,0.0,0.0,0.0,0.0,0.0,0.0,0.0,0.0,0.0,0.0,0.0,0.0,0.0,0.0,0.0,0.0,0.0,0.0,0.0,0.0,0.0,0.0,0.0,0.0,0.0,0.0,0.0,0.0,0.0,0.0,0.0,0.0,0.0,0.0,0.0,0.0,0.0,0.0,0.0,0.0,0.0,0.0,0.0,0.0,0.0,0.0,0.0,0.0,0.0,0.0,0.0,0.0,0.0,0.0,0.0,0.0,0.0,0.0,0.0,0.0,0.0,0.0,0.0,0.0,0.0,0.0,0.0,0.0,0.0,0.0,0.0,0.0,0.0,0.0,0.0,0.0,0.0,0.0,0.0,0.0,0.0,0.0,0.0,0.0,0.0,2.2966,2.553,2.9654,3.0417,3.0492,3.0118,2.9505,2.7006,2.2009,2.0782,0.0,0.0,0.0,0.0,0.0,0.0,0.0,0.0,0.0,0.0,0.0,0.0,0.0,0.0,0.0,0.0,0.0,0.0,0.0,0.0,0.0,0.0,0.0,0.0,0.0,0.0,0.0,0.0,0.0,0.0,0.0,0.0,0.0,0.0,0.0,0.0,0.0,0.0,0.0,0.0,0.0,0.0,0.0,0.0,0.0,0.0,0.0,0.0,0.0,0.0,0.0,0.0,0.0,0.0,0.0,0.0,0.0,0.0,0.0,0.0,0.0,0.0,0.0,0.0,0.0,0.0,0.0,0.0,0.0,0.0,0.0,0.0,0.0,0.0,0.0,0.0,0.0,0.0,0.0,0.0,0.0,0.0,0.0,0.0,0.0,0.0,0.0,0.0,0.0,0.0,0.0,0.0,0.0,0.0,0.0,0.0,0.0,0.0,0.0,0.0,0.0,0.0,2.5659,2.7515,3.0432,3.1182,3.1227,3.0567,2.9939,2.742,2.2248,2.1321,0.0,0.0,0.0,0.0,0.0,0.0,0.0,0.0,0.0,0.0,0.0,0.0,0.0,0.0,0.0,0.0,0.0,0.0,0.0,0.0,0.0,0.0,0.0,0.0,0.0,0.0,0.0,0.0,0.0,0.0,0.0,0.0,0.0,0.0,0.0,0.0,0.0,0.0,0.0,0.0,0.0,0.0,0.0,0.0,0.0,0.0,0.0,0.0,0.0,0.0,0.0,0.0,0.0,0.0,0.0,0.0,0.0,0.0,0.0,0.0,0.0,0.0,0.0,0.0,0.0,0.0,0.0,0.0,0.0,0.0,0.0,0.0,0.0,0.0,0.0,0.0,0.0,0.0,0.0,0.0,0.0,0.0,0.0,0.0,0.0,0.0,0.0,0.0,0.0,0.0,0.0,0.0,0.0,0.0,0.0,0.0,0.0,0.0,0.0,0.0,0.0,0.0,2.6617,2.9373,3.1227,3.1466,3.1227,3.0567,2.9939,2.7615,2.2927,2.1994,0.0,0.0,0.0,0.0,0.0,0.0,0.0,0.0,0.0,0.0,0.0,0.0,0.0,0.0,0.0,0.0,0.0,0.0,0.0,0.0,0.0,0.0,0.0,0.0,0.0,0.0,0.0,0.0,0.0,0.0,0.0,0.0,0.0,0.0,0.0,0.0,0.0,0.0,0.0,0.0,0.0,0.0,0.0,0.0,0.0,0.0,0.0,0.0,0.0,0.0,0.0,0.0,0.0,0.0,0.0,0.0,0.0,0.0,0.0,0.0,0.0,0.0,0.0,0.0,0.0,0.0,0.0,0.0,0.0,0.0,0.0,0.0,0.0,0.0,0.0,0.0,0.0,0.0,0.0,0.0,0.0,0.0,0.0,0.0,0.0,0.0,0.0,0.0,0.0,0.0,0.0,0.0,0.0,0.0,0.0,0.0,0.0,0.0,0.0,0.0,0.0,0.0,2.7739,2.9567,3.1316,3.2243,3.2482,3.1809,3.0776,2.8188,2.3535,0.0,0.0,0.0,0.0,0.0,0.0,0.0,0.0,0.0,0.0,0.0,0.0,0.0,0.0,0.0,0.0,0.0,0.0,0.0,0.0,0.0,0.0,0.0,0.0,0.0,0.0,0.0,0.0,0.0,0.0,0.0,0.0,0.0,0.0,0.0,0.0,0.0,0.0,0.0,0.0,0.0,0.0,0.0,0.0,0.0,0.0,0.0,0.0,0.0,0.0,0.0,0.0,0.0,0.0,0.0,0.0,0.0,0.0,0.0,0.0,0.0,0.0,0.0,0.0,0.0,0.0,0.0,0.0,0.0,0.0,0.0,0.0,0.0,0.0,0.0,0.0,0.0,0.0,0.0,0.0,0.0,0.0,0.0,0.0,0.0,0.0,0.0,0.0,0.0,0.0,0.0,0.0,0.0,0.0,0.0,0.0,0.0,0.0,0.0,0.0,0.0,0.0,2.6723,2.922,3.0972,3.2587,3.3215,3.3305,3.2871,3.139,2.8622,2.4208,0.0,0.0,0.0,0.0,0.0,0.0,0.0,0.0,0.0,0.0,0.0,0.0,0.0,0.0,0.0,0.0,0.0,0.0,0.0,0.0,0.0,0.0,0.0,0.0,0.0,0.0,0.0,0.0,0.0,0.0,0.0,0.0,0.0,0.0,0.0,0.0,0.0,0.0,0.0,0.0,0.0,0.0,0.0,0.0,0.0,0.0,0.0,0.0,0.0,0.0,0.0,0.0,0.0,0.0,0.0,0.0,0.0,0.0,0.0,0.0,0.0,0.0,0.0,0.0,0.0,0.0,0.0,0.0,0.0,0.0,0.0,0.0,0.0,0.0,0.0,0.0,0.0,0.0,0.0,0.0,0.0,0.0,0.0,0.0,0.0,0.0,0.0,0.0,0.0,0.0,0.0,0.0,0.0,0.0,0.0,0.0,0.0,0.0,0.0,0.0,0.0,0.0,2.6911,3.1031,3.4023,3.5385,3.4322,3.3514,3.3514,3.1674,2.882,0.0,0.0,0.0,0.0,0.0,0.0,0.0,0.0,0.0,0.0,0.0,0.0,0.0,0.0,0.0,0.0,0.0,0.0,0.0,0.0,0.0,0.0,0.0,0.0,0.0,0.0,0.0,0.0,0.0,0.0,0.0,0.0,0.0,0.0,0.0,0.0,0.0,0.0,0.0,0.0,0.0,0.0,0.0,0.0,0.0,0.0,0.0,0.0,0.0,0.0,0.0,0.0,0.0,0.0,0.0,0.0,0.0,0.0,0.0,0.0,0.0,0.0,0.0,0.0,0.0,0.0,0.0,0.0,0.0,0.0,0.0,0.0,0.0,0.0,0.0,0.0,0.0,0.0,0.0,0.0,0.0,0.0,0.0,0.0,0.0,0.0,0.0,0.0,0.0,0.0,0.0,0.0,0.0,0.0,0.0,0.0,0.0,0.0,0.0,0.0,0.0,0.0,0.0,2.6911,3.1031,3.4352,3.6611,3.5684,3.4921,3.4921,3.308,3.0238,2.6258,0.0,0.0,0.0,0.0,0.0,0.0,0.0,0.0,0.0,0.0,0.0,0.0,0.0,0.0,0.0,0.0,0.0,0.0,0.0,0.0,0.0,0.0,0.0,0.0,0.0,0.0,0.0,0.0,0.0,0.0,0.0,0.0,0.0,0.0,0.0,0.0,0.0,0.0,0.0,0.0,0.0,0.0,0.0,0.0,0.0,0.0,0.0,0.0,0.0,0.0,0.0,0.0,0.0,0.0,0.0,0.0,0.0,0.0,0.0,0.0,0.0,0.0,0.0,0.0,0.0,0.0,0.0,0.0,0.0,0.0,0.0,0.0,0.0,0.0,0.0,0.0,0.0,0.0,0.0,0.0,0.0,0.0,0.0,0.0,0.0,0.0,0.0,0.0,0.0,0.0,0.0,0.0,0.0,0.0,0.0,0.0,0.0,0.0,0.0,0.0,0.0,0.0,2.9816,3.2826,3.5175,3.7449,3.6836,3.6163,3.5923,3.4053,3.1435,2.7993,0.0,0.0,0.0,0.0,0.0,0.0,0.0,0.0,0.0,0.0,0.0,0.0,0.0,0.0,0.0,0.0,0.0,0.0,0.0,0.0,0.0,0.0,0.0,0.0,0.0,0.0,0.0,0.0,0.0,0.0,0.0,0.0,0.0,0.0,0.0,0.0,0.0,0.0,0.0,0.0,0.0,0.0,0.0,0.0,0.0,0.0,0.0,0.0,0.0,0.0,0.0,0.0,0.0,0.0,0.0,0.0,0.0,0.0,0.0,0.0,0.0,0.0,0.0,0.0,0.0,0.0,0.0,0.0,0.0,0.0,0.0,0.0,0.0,0.0,0.0,0.0,0.0,0.0,0.0,0.0,0.0,0.0,0.0,0.0,0.0,0.0,0.0,0.0,0.0,0.0,0.0,0.0,0.0,0.0,0.0,0.0,0.0,0.0,0.0,0.0,0.0,0.0,3.4233,3.5504,3.6178,3.7928,3.7689,3.721,3.6716,3.4831,3.2557,2.9924,0.0,0.0,0.0,0.0,0.0,0.0,0.0,0.0,0.0,0.0,0.0,0.0,0.0,0.0,0.0,0.0,0.0,0.0,0.0,0.0,0.0,0.0,0.0,0.0,0.0,0.0,0.0,0.0,0.0,0.0,0.0,0.0,0.0,0.0,0.0,0.0,0.0,0.0,0.0,0.0,0.0,0.0,0.0,0.0,0.0,0.0,0.0,0.0,0.0,0.0,0.0,0.0,0.0,0.0,0.0,0.0,0.0,0.0,0.0,0.0,1.7338,1.4771,0.0,0.0,0.0,0.0,0.0,0.0,0.0,0.0,0.0,0.0,0.0,0.0,0.0,0.0,0.0,0.0,0.0,0.0,0.0,0.0,0.0,0.0,0.0,0.0,0.0,0.0,0.0,0.0,0.0,0.0,0.0,0.0,0.0,0.0,0.0,0.0,0.0,0.0,0.0,0.0,3.4951,3.5504,3.6178,3.7928,3.7689,3.7569,3.7943,3.6193,3.3948,3.1256,2.8861,0.0,0.0,0.0,0.0,0.0,0.0,0.0,0.0,0.0,0.0,0.0,0.0,0.0,0.0,0.0,0.0,0.0,0.0,0.0,0.0,0.0,0.0,0.0,0.0,0.0,0.0,0.0,0.0,0.0,0.0,0.0,0.0,0.0,0.0,0.0,0.0,0.0,0.0,0.0,0.0,0.0,0.0,0.0,0.0,0.0,0.0,0.0,0.0,0.0,0.0,0.0,0.0,0.0,0.0,0.0,0.0,0.0,0.0,0.0,1.9748,1.7687,0.0,0.0,0.0,0.0,0.0,0.0,0.0,0.0,0.0,0.0,0.0,0.0,0.0,0.0,0.0,0.0,0.0,0.0,0.0,0.0,0.0,0.0,0.0,0.0,0.0,0.0,0.0,0.0,0.0,0.0,0.0,0.0,0.0,0.0,0.0,0.0,0.0,0.0,0.0,0.0,3.4126,3.5699,3.727,3.8566,3.8527,3.8512,3.8856,3.736,3.5564,3.3543,3.0971,0.0,0.0,0.0,0.0,0.0,0.0,0.0,0.0,0.0,0.0,0.0,0.0,0.0,0.0,0.0,0.0,0.0,0.0,0.0,0.0,0.0,0.0,0.0,0.0,0.0,0.0,0.0,0.0,0.0,0.0,0.0,0.0,0.0,0.0,0.0,0.0,0.0,0.0,0.0,0.0,0.0,0.0,0.0,0.0,0.0,0.0,0.0,0.0,0.0,0.0,0.0,0.0,0.0,2.1769,2.2648,2.3175,2.3175,2.3991,2.5202,2.2347,2.1154,2.1094,1.8656,0.0,0.0,0.0,0.0,0.0,0.0,0.0,0.0,0.0,0.0,0.0,0.0,0.0,0.0,0.0,0.0,0.0,0.0,0.0,0.0,0.0,0.0,2.5848,3.0984,3.2198,3.0404,2.3864,0.0,0.0,0.0,0.0,0.0,0.0,0.0,0.0,0.0,0.0,0.0,3.3618,3.6115,3.8347,3.932,3.9634,3.9768,3.9768,3.8527,3.7255,3.6088,3.2976,3.0821,0.0,0.0,0.0,0.0,0.0,0.0,0.0,0.0,0.0,0.0,0.0,0.0,0.0,0.0,0.0,0.0,0.0,0.0,0.0,0.0,0.0,0.0,0.0,0.0,0.0,0.0,0.0,0.0,0.0,0.0,0.0,0.0,1.5291,1.5367,0.0,0.0,0.0,0.0,0.0,0.0,0.0,0.0,0.0,0.0,0.0,0.0,0.0,1.9773,2.0828,2.2573,2.3452,2.3464,2.5079,2.6122,2.6628,2.6628,2.7005,2.762,2.6703,0.0,2.3489,2.2594,0.0,0.0,0.0,0.0,0.0,0.0,0.0,0.0,0.0,0.0,0.0,0.0,0.0,0.0,0.0,0.0,0.0,0.0,0.0,0.0,0.0,0.0,3.1176,3.4243,3.4981,3.4696,3.3649,3.157,2.92,2.6623,2.2428,2.0095,0.0,0.0,0.0,0.0,0.0,0.0,3.5923,3.7,3.7988,3.9239,4.0442,4.113,4.113,3.9918,3.8826,3.8063,3.5459,3.314,3.1331,2.8472,0.0,0.0,0.0,0.0,0.0,0.0,0.0,0.0,0.0,0.0,0.0,0.0,0.0,0.0,0.0,0.0,0.0,0.0,0.0,0.0,0.0,0.0,0.0,0.0,0.0,0.0,0.0,0.0,0.0,1.489,1.5806,1.612,1.5944,1.5555,0.0,0.0,0.0,0.0,0.0,0.0,0.0,0.0,0.0,2.2096,2.2159,2.2849,2.4299,2.5636,2.6302,2.6327,2.7682,2.8624,2.9151,2.9151,2.9453,2.9917,2.939,2.8612,2.7532,2.5064,2.3471,2.2506,0.0,0.0,0.0,0.0,1.7654,1.6362,1.5397,1.8166,2.2451,2.4368,0.0,0.0,0.0,0.0,0.0,0.0,0.0,2.7649,2.9748,3.2018,3.4396,3.7075,3.7704,3.7704,3.7704,3.6757,3.4709,3.0597,2.9146,2.7993,2.6162,2.8038,0.0,0.0,0.0,3.5532,3.6507,3.7749,3.9185,4.0891,4.125,4.1572,4.1931,4.107,4.0083,3.9035,3.7524,3.5804,3.3813,3.121,2.8771,0.0,0.0,0.0,0.0,0.0,0.0,0.0,0.0,0.0,0.0,0.0,0.0,0.0,0.0,0.0,0.0,0.0,0.0,0.0,0.0,0.0,0.0,0.0,0.0,0.0,0.0,0.0,0.0,1.6279,1.7061,1.7325,1.7716,1.7626,0.0,0.0,0.0,0.0,0.0,0.0,2.0853,2.1681,2.2962,2.4782,2.4971,2.5699,2.7115,2.8197,2.875,2.8762,2.9741,3.0419,3.0821,3.0959,3.1235,3.1587,3.1348,3.1248,3.0972,2.7519,2.5925,2.554,2.47,2.3296,2.1766,2.1866,1.9973,1.7578,1.9321,2.3163,2.7341,2.7341,2.5071,2.317,2.7479,0.0,0.0,0.0,0.0,3.6507,3.6507,3.6507,3.7165,3.9762,4.039,4.039,4.039,4.039,3.9014,3.441,3.5113,3.4966,3.0131,3.1091,0.0,3.1645,3.507,3.7644,3.7509,3.8916,4.0546,4.2231,4.2073,4.2087,4.2566,4.2051,4.1205,4.0232,3.9215,3.8003,3.6567,3.4082,3.2018,3.0357,0.0,0.0,0.0,0.0,0.0,0.0,0.0,0.0,0.0,0.0,0.0,0.0,0.0,0.0,0.0,0.0,0.0,0.0,0.0,0.0,0.0,0.0,0.0,0.0,0.0,0.0,0.0,0.0,0.0,1.9698,2.1054,0.0,0.0,0.0,0.0,2.1242,2.1343,2.2096,2.3703,2.3841,2.487,2.7042,2.762,2.8197,2.8762,2.993,3.0482,3.0495,3.1047,3.1323,3.1373,3.1888,3.2139,3.2202,3.2729,3.2955,3.2822,3.0482,2.8913,2.7934,2.7883,2.6302,2.4086,2.4449,2.251,2.0552,2.6917,2.9352,2.9628,2.9628,2.9478,3.0007,3.3879,3.4971,0.0,0.0,3.6985,3.9179,3.9179,3.9179,3.9852,4.2467,4.3095,4.3095,4.3095,4.3095,4.2288,3.9523,3.9089,3.8078,3.4487,0.0,3.5295,3.525,3.5998,3.7449,3.9888,4.0831,4.1602,4.2321,4.288,4.3215,4.3245,4.2686,4.2321,4.2246,4.0427,3.9334,3.9194,3.73,3.5011,3.2422,3.0956,0.0,0.0,0.0,0.0,0.0,0.0,0.0,0.0,0.0,0.0,0.0,0.0,0.0,0.0,0.0,0.0,0.0,0.0,0.0,0.0,0.0,0.0,0.0,0.0,0.0,0.0,0.0,0.0,2.049,2.1832,0.0,2.2071,2.2673,2.3251,2.3602,2.4619,2.5636,2.659,2.6979,2.7871,2.9377,2.9616,2.998,3.0507,3.126,3.1825,3.2202,3.2742,3.3194,3.3545,3.3734,3.3834,3.3834,3.4048,3.4135,3.4073,3.3294,3.2315,3.126,3.0783,2.988,2.8775,2.8222,2.816,2.8687,3.1072,3.1901,3.237,3.5083,3.4119,3.2671,3.6758,3.8018,3.8018,3.8018,3.8691,3.9777,4.1451,4.1899,4.2124,4.3065,4.329,4.329,4.329,4.329,4.3021,4.2079,4.0988,3.9514,3.7135,3.7793,3.8362,3.7494,3.8661,4.0164,4.1527,4.1916,4.2267,4.291,4.3155,4.329,4.329,4.312,4.2806,4.2425,4.1737,4.0935,4.0083,3.8975,3.7524,3.5699,3.3948,3.133,0.0,0.0,0.0,0.0,0.0,0.0,0.0,0.0,0.0,0.0,0.0,0.0,0.0,0.0,0.0,0.0,0.0,0.0,0.0,0.0,0.0,0.0,0.0,0.0,0.0,2.069,2.2108,2.1556,2.3138,2.4117,2.3753,2.4732,2.5611,2.6129,2.7218,2.816,2.8913,2.9302,2.9878,3.0846,3.106,3.1411,3.1951,3.2503,3.3068,3.3633,3.401,3.4374,3.4726,3.4868,3.4956,3.4969,3.519,3.5278,3.5278,3.5278,3.4839,3.4142,3.3244,3.2817,3.2591,3.1763,3.2616,3.423,3.423,3.423,3.4928,3.9305,3.8821,3.7057,3.9874,4.0704,4.0704,4.0704,4.0704,4.1092,4.2841,4.329,4.329,4.329,4.329,4.329,4.329,4.329,4.329,4.329,4.2124,4.0719,3.9439,4.0053,4.0352,3.923,4.0576,4.1826,4.2036,4.2455,4.2865,4.3245,4.329,4.329,4.329,4.2886,4.2671,4.2686,4.2111,4.1542,4.107,4.0008,3.8886,3.7764,3.5594,3.3216,3.0567,0.0,0.0,0.0,0.0,0.0,0.0,0.0,0.0,0.0,0.0,0.0,0.0,0.0,0.0,0.0,0.0,0.0,0.0,0.0,0.0,0.0,0.0,0.0,2.0943,2.1732,2.2619,2.317,2.5209,2.6575,2.66,2.7544,2.8411,2.8925,2.8963,2.9452,3.0608,3.067,3.0909,3.1424,3.1976,3.2528,3.3136,3.3658,3.4198,3.4705,3.4705,3.4705,3.4788,3.5282,3.552,3.5558,3.6132,3.6405,3.6405,3.6405,3.6405,3.6304,3.519,3.4989,3.5299,3.4901,3.5441,3.6405,3.6405,3.6405,3.715,4.1629,4.317,4.329,4.329,4.329,4.329,4.329,4.329,4.329,4.329,4.329,4.329,4.329,4.329,4.329,4.329,4.329,4.329,4.329,4.2602,4.1938,4.1519,4.1482,4.1235,4.0591,4.1617,0.0,4.1519,4.2551,4.3275,4.323,4.323,4.323,4.323,4.2102,4.1938,4.3215,4.1549,4.1055,4.2381,4.0531,3.917,3.8467,3.5941,3.3948,3.2632,0.0,0.0,0.0,0.0,0.0,0.0,0.0,0.0,0.0,0.0,0.0,0.0,0.0,0.0,0.0,0.0,0.0,0.0,0.0,0.0,0.0,2.1719,2.3427,2.3125,2.44,2.5556,2.6076,2.7394,2.8411,2.8837,2.9515,3.0143,3.067,3.0708,3.1022,3.1738,3.1775,3.2039,3.2591,3.3144,3.3508,3.3671,3.4223,3.4731,3.527,3.527,3.5529,3.5965,3.6069,3.6132,3.6144,3.6342,3.6405,3.6405,3.6405,3.6405,3.638,3.6065,3.6015,3.6091,3.5943,3.6153,3.6405,3.6405,3.6405,3.6628,3.7893,4.059,4.329,4.329,4.329,4.329,4.329,4.329,4.329,4.329,4.329,4.329,4.329,4.329,4.329,4.329,4.329,4.329,4.329,4.311,4.2901,4.2821,4.2791,4.2731,4.2512,4.2836,4.3,4.2821,4.3065,4.2931,4.2028,4.1923,4.1923,4.1923,4.1594,4.1938,4.3215,4.2781,4.2686,4.3045,4.2087,4.101,3.9873,3.8182,3.6671,0.0,0.0,0.0,0.0,0.0,0.0,0.0,0.0,0.0,0.0,0.0,0.0,0.0,0.0,0.0,0.0,0.0,0.0,0.0,0.0,0.0,0.0,2.3665,2.536,2.6289,2.6841,2.7444,2.8235,2.9101,2.9854,3.0407,3.0746,3.116,3.1687,3.1738,3.1976,3.2541,3.2792,3.3068,3.3407,3.396,3.4349,3.4587,3.4856,3.5295,3.5893,3.5893,3.6056,3.6405,3.6405,3.6405,3.6405,3.6405,3.6405,3.6405,3.6405,3.6405,3.6405,0.0,0.0,0.0,0.0,3.6405,3.6405,3.6405,3.6405,3.6709,3.868,3.98,4.0419,4.0419,4.1767,4.329,4.329,4.329,4.329,4.329,4.329,4.329,4.329,4.329,4.329,4.329,4.329,4.329,4.329,4.329,0.0,4.329,4.329,4.311,4.2596,4.2946,4.3095,4.2581,4.2946,4.3006,4.2282,4.2207,4.2207,4.2207,4.1698,0.0,0.0,0.0,4.2506,4.2506,4.2147,0.0,0.0,0.0,3.9005,3.8542,3.7783,0.0,0.0,3.2946,3.2452,0.0,0.0,0.0,0.0,0.0,0.0,0.0,0.0,0.0,0.0,0.0,0.0,0.0,0.0,0.0,0.0,2.6,2.7568,2.9515,2.9089,2.8925,2.9867,3.0457,3.0972,3.1436,3.1537,3.1788,3.2277,3.2303,3.2566,3.3144,3.3633,0.0,0.0,0.0,3.5006,3.5495,3.5558,3.5881,3.6405,3.6405,3.6405,3.6405,3.6405,3.6405,3.6405,3.6405,3.6405,3.6405,3.6405,3.6405,3.6405,3.6405,3.6405,3.6405,3.6405,3.6405,3.6405,3.6405,0.0,0.0,4.1197,3.9757,3.6452,3.6709,3.9858,4.329,4.329,4.329,4.329,4.329,4.329,4.329,4.329,4.3409,4.3514,4.3514,4.3514,4.3514,4.3514,4.3514,4.3469,4.3319,4.329,4.2901,4.1773,4.2596,4.2871,4.1743,4.2611,4.323,4.308,4.308,0.0,4.308,4.2043,4.1938,4.3215,4.2237,4.1594,4.1594,4.1594,4.1324,4.0741,4.0726,4.1025,4.1594,4.1594,4.1639,4.1609,3.7304,3.5926,0.0,0.0,0.0,0.0,0.0,0.0,0.0,0.0,0.0,0.0,0.0,0.0,0.0,0.0,0.0,2.5285,2.7532,2.9302,2.9729,3.0733,3.1336,3.111,3.1562,3.1938,3.2051,3.2478,3.2792,3.2905,3.2918,3.3156,3.3709,3.3847,3.411,3.455,3.5056,3.5395,3.5495,3.5981,3.6304,3.6405,3.6405,0.0,3.6405,3.6405,3.6405,3.6405,3.6405,3.6405,3.6405,3.6405,3.6405,3.6405,3.6405,3.6405,3.6405,3.6405,3.6405,3.6405,3.6405,3.6405,3.6534,3.7461,3.715,3.6769,3.8662,4.1127,0.0,4.329,4.329,4.329,4.329,4.329,4.329,4.329,4.4152,4.4915,4.4915,4.4915,4.4915,4.4915,4.4915,4.4586,4.3484,4.329,4.3215,4.2946,4.3125,4.32,4.2946,4.314,4.2886,4.1878,4.1758,4.1758,4.1758,4.1534,4.1938,4.3215,4.305,4.2916,4.2916,4.2916,4.2856,4.2722,4.2722,4.2781,4.2916,4.2916,4.3225,4.3688,4.1205,4.0187,0.0,0.0,0.0,0.0,0.0,0.0,0.0,0.0,0.0,0.0,0.0,2.24,2.3371,0.0,2.6088,2.7469,2.9114,3.0394,3.0934,3.17,3.2114,3.1838,3.2303,3.2641,3.2641,3.2905,3.3124,3.3124,3.3332,3.3608,3.3884,3.4424,3.4806,3.5082,3.5667,3.5956,3.5956,3.6267,3.6405,3.6405,3.6405,3.6405,3.6405,3.6405,3.6405,3.6405,3.6405,3.6405,3.6405,3.6405,3.6405,3.6405,3.6405,3.6405,3.6405,3.6405,3.6405,3.6405,3.6405,3.6405,3.6405,3.6405,3.6405,3.6849,3.9197,4.0717,4.1838,4.2996,4.329,4.329,4.329,4.3783,4.4317,4.4317,4.499,4.5648,4.5648,4.5469,4.5289,4.5289,4.5289,4.5095,4.4421,4.487,4.4829,4.3499,4.329,4.329,4.329,4.329,4.305,4.2432,4.2357,4.2536,4.3,4.3225,4.3614,4.4272,4.4317,4.4317,4.4317,4.4317,4.4317,4.4317,4.4317,4.4317,4.4317,4.4317,4.4481,4.4781,4.3793,4.3344,0.0,0.0,0.0,0.0,0.0,0.0,0.0,2.3377,2.363,2.4603,2.4887,2.5133,2.5658,2.6515,2.7806,2.9779,3.057,3.1223,3.2089,3.2303,3.2378,3.2378,3.2792,3.3124,3.3124,3.3169,3.3275,3.3275,3.3746,3.411,3.4211,3.5019,3.5545,3.5658,3.6132,3.6405,3.6405,3.6405,3.6405,3.6405,3.6405,3.6405,3.6405,3.6405,3.6405,3.6405,3.6405,3.6405,3.6405,3.6405,3.6405,3.6405,3.6405,3.6405,3.6405,3.6405,3.6405,3.6405,3.6405,3.6405,3.6405,3.6405,3.6405,3.6803,3.8917,3.9579,4.0144,4.2453,4.3035,4.3083,4.3662,4.4355,4.4988,4.5221,4.5693,4.6067,4.6067,4.5858,4.5678,4.5678,4.5678,4.5678,4.5678,4.6576,4.6576,4.4381,4.4067,4.4067,4.4067,4.4067,4.3962,4.3708,4.3678,4.4047,4.4885,4.5244,4.5394,4.5304,4.5289,4.5289,4.5289,4.5289,4.5289,4.5289,4.5289,4.5289,4.5289,4.5289,4.5364,4.5484,4.5484,4.5424,1.9148,2.0286,2.2228,2.3688,2.456,2.5854,0.0,2.7491,2.6294,2.8636,2.7974,2.7442,2.8963,2.934,2.9817,3.1009,3.1675,3.2077,3.219,3.2654,3.298,3.298,3.3074,3.3124,3.3124,3.352,3.3809,3.3809,3.4324,3.4806,3.5295,3.5433,3.5768,3.6304,3.6367,3.6405,3.6405,3.6405,3.6405,3.6405,3.6405,3.6405,3.6405,3.6405,3.6405,3.6405,3.6405,3.6405,3.6405,3.6405,3.6405,3.6405,3.6405,3.6405,3.6405,3.6405,3.6405,3.6405,3.6405,3.6405,3.6405,3.6405,3.6405,3.6628,3.7893,3.8545,3.9349,4.1736,4.2072,4.2306,4.4997,4.4674,4.389,4.5015,4.5798,4.6249,4.6249,4.6711,4.7085,4.7085,4.7085,4.7085,4.7085,4.7204,4.7204,4.6905,4.686,4.686,4.686,4.686,4.6396,4.52,4.508,4.5289,4.5813,4.5903,4.5738,4.5319,4.5289,4.5289,4.5289,4.5289,4.5289,4.5289,4.5289,4.5289,4.5289,4.5289,4.5618,4.6217,4.6217,4.5873,2.3706,2.4006,2.4525,2.6464,2.7156,2.7776,2.9329,2.8712,2.8235,2.9713,2.9731,2.9637,3.0146,3.0783,3.1348,3.18,3.234,3.2717,3.2717,3.3206,3.3558,3.3558,3.3847,3.3909,3.3583,3.406,3.4374,3.4374,3.4843,3.5257,3.5495,3.5843,3.6119,3.6405,3.6405,3.6405,3.6405,3.6405,3.6405,3.6405,3.6405,3.6405,3.6405,3.6405,3.6405,3.6405,3.6405,3.6405,3.6405,3.6405,3.6405,3.6405,3.6405,3.6405,3.6405,3.6405,3.6405,3.6405,3.6405,3.6405,3.6455,3.6782,3.6883,3.7124,3.8637,3.9183,3.97,4.1353,4.2203,4.2874,4.4167,4.4776,4.5242,4.5749,4.6396,4.689,4.689,4.7115,4.7309,4.7309,4.7309,4.7309,4.7309,4.7309,4.7309,4.7309,4.7309,4.7309,4.7309,4.7309,4.71,4.6516,4.6456,4.6546,4.6741,4.6756,4.6681,4.6486,4.6456,4.6456,4.6456,4.6456,4.6456,4.6456,4.6456,4.6456,4.6456,4.6456,4.6621,4.689,4.689,4.695,2.5845,2.5918,2.5828,2.8142,2.8958,2.9261,2.9702,2.9602,2.9647,3.0519,3.0805,3.0933,3.1029,3.1687,3.2265,3.2428,3.2805,3.3174,3.3282,3.3646,3.396,3.411,3.4568,3.4756,3.4399,3.4668,3.4906,3.4906,3.5408,3.5768,3.5768,3.6144,3.6405,3.6405,3.6405,3.6405,3.6405,3.6405,3.6405,3.6405,3.6405,3.6405,3.6405,3.6405,3.6405,3.6405,3.6405,3.6405,3.6405,3.6405,3.6405,3.6405,3.6405,3.6505,3.6631,3.6631,3.6631,3.6631,3.6631,3.6732,3.6933,3.7274,3.7412,3.7718,3.9342,3.9555,3.9712,4.1723,4.246,4.2951,4.4138,4.5243,4.6132,4.6506,4.6965,4.7309,4.7309,4.7309,4.7309,4.7309,4.7309,4.7309,4.7309,4.7309,4.7309,4.7309,4.7309,4.7309,4.7309,4.7309,4.7309,4.7309,4.7309,4.7309,4.7309,4.7309,4.7309,4.7309,4.7309,4.7309,4.7309,4.7309,4.7309,4.7309,4.7309,4.7309,4.7309,4.7309,4.7399,4.7578,4.7578,4.7938,2.3213,2.4172,2.5175,2.8307,2.982,3.0724,3.1378,3.0831,3.051,3.171,3.1215,3.0949,3.1976,3.219,3.239,3.2998,3.3111,3.3269,3.3796,3.3884,3.4098,3.4625,3.5144,3.547,3.5445,3.547,3.547,3.547,3.6031,3.638,3.638,3.6405,3.6405,3.6405,3.6405,3.6405,3.6405,3.6405,3.6405,3.6405,3.6405,3.6405,3.6405,3.6405,3.6405,3.6405,3.6405,3.6405,3.6405,3.6405,3.6405,3.6405,3.6405,3.6732,3.7161,3.7161,3.7161,3.7161,3.7161,3.7513,3.7952,3.7977,3.799,3.8223,3.9412,3.8991,3.8948,4.3132,4.2657,4.1869,4.6079,4.6314,4.575,4.6989,4.7294,4.7309,4.7309,4.7309,4.7309,4.7309,4.7309,4.7309,4.7309,4.7309,4.7309,4.7309,4.7309,4.7309,4.7309,4.7309,4.7309,4.7309,4.7309,4.7309,4.7309,4.7309,4.7309,4.7309,4.7309,4.7309,4.7309,4.7309,4.7309,4.7309,4.7309,4.7309,4.7309,4.7309,4.7638,4.8252,4.8252,4.8655,2.5643,2.767,2.9682,3.2058,3.2949,3.3046,3.2396,3.202,3.1652,3.1177,3.0226,2.9803,3.0947,3.116,3.1323,3.1863,3.2634,3.3269,3.3822,3.4211,3.465,3.5157,3.5755,3.6094,3.6094,3.6094,3.6094,3.6094,3.6304,3.6405,3.6405,3.6405,3.6405,3.6405,3.6405,3.6405,3.6405,3.6405,3.6405,3.6405,3.6405,3.6405,3.6405,3.6405,3.6405,3.6405,3.6405,3.6405,3.6405,3.6405,3.6405,3.6443,3.6807,3.7023,3.7224,3.76,3.7977,3.8241,3.7864,3.7852,3.8065,3.8454,3.858,3.8743,3.9499,3.9462,3.9588,4.1917,4.2583,4.3099,4.5436,4.5734,4.5734,4.7019,4.6638,4.6255,4.7121,4.7309,4.7309,4.7309,4.7309,4.7309,4.7309,4.7309,4.7309,4.7309,4.7309,4.7309,4.7309,4.7309,4.7309,4.7309,4.7309,4.7309,4.7309,4.7309,4.7309,4.7309,4.7309,4.7309,4.7309,4.7309,4.7309,4.7309,4.7743,4.7952,4.7952,4.8401,4.876,4.8985,4.8985,4.9284,2.8317,2.9914,3.1123,3.3674,3.4079,3.3523,3.2368,3.2105,3.182,3.0825,2.9678,2.9176,3.0156,3.0482,3.0595,3.052,3.1612,3.2742,3.3495,3.3909,3.4562,3.5705,3.6144,3.6405,3.6405,3.6405,3.6405,3.6405,3.6405,3.6405,3.6405,3.6405,3.6405,3.6405,3.6405,3.6405,3.6405,3.6405,3.6405,3.6405,3.6405,3.6405,3.6405,3.6405,3.6405,3.6405,3.6405,3.6405,3.6405,3.6405,3.6518,3.6732,3.7048,3.7425,3.7826,3.8178,3.868,3.9082,3.8517,3.8442,3.8668,3.9044,3.917,3.9233,3.9584,3.9697,3.9981,4.1219,4.2168,4.3122,4.4396,4.4734,4.5024,4.6299,4.6018,4.5734,4.7019,4.7309,4.7309,4.7309,4.7309,4.7309,4.7309,4.7309,4.7309,4.7309,4.7309,4.7309,4.7309,4.7309,4.7309,4.7309,4.7309,4.7309,4.7309,4.7309,4.7309,4.7309,4.7519,4.7653,4.7653,4.7878,4.7997,4.7997,4.8416,4.8641,4.8641,4.9105,4.9434,4.9613,4.9613,4.9957,3.0822,3.0758,2.9781,3.3146,3.3345,3.2429,3.1426,3.1191,3.1037,3.0528,2.9502,2.8875,2.944,3.003,3.0118,2.9063,3.0331,3.1838,3.3006,3.3156,3.4004,3.6153,3.6405,3.6405,3.6405,3.6405,3.6405,3.6405,3.6405,3.6405,3.6405,3.6405,3.6405,3.6405,3.6405,3.6405,3.6405,3.6405,3.6405,3.6405,3.6405,3.6405,3.6405,3.6405,3.6405,3.6405,3.6405,3.6405,3.6405,3.6443,3.6757,3.7199,3.7249,3.7927,3.8919,3.8957,3.9245,3.9622,3.9094,3.9258,3.9697,3.9697,3.9697,3.9697,3.9697,3.9697,3.9981,4.1219,4.1604,4.1887,4.317,4.3504,4.3834,4.5115,4.5403,4.5734,4.7019,4.7309,4.7309,4.7309,4.7309,4.7309,4.7309,4.7309,4.7309,4.7354,4.7354,4.7339,4.7309,4.7309,4.7309,4.7354,4.7354,4.7369,4.7399,4.7399,4.7399,4.7399,4.7997,4.8341,4.8341,4.8985,4.9314,4.9314,4.9344,4.9359,4.9359,4.9389,4.9688,5.024,5.024,5.0569,3.1076,3.2227,3.2868,3.3762,3.3808,3.3206,3.1573,3.09,3.0121,2.848,2.7231,2.6377,2.6138,2.7205,2.831,2.88,3.0658,3.2541,3.4085,3.4299,3.4813,3.6241,3.6405,3.6405,3.6405,3.6405,3.6405,3.6405,3.6405,3.6405,3.6405,3.6405,3.6405,3.6405,3.6405,3.6405,3.6405,3.6405,3.6405,3.6405,3.6405,3.6405,3.6405,3.6405,3.6405,3.6405,3.6405,3.6405,3.6443,3.6857,3.7061,3.7262,3.8115,3.8617,3.8969,3.9333,3.9572,3.9672,3.9534,3.9584,3.9697,3.9697,3.9697,3.9697,3.9697,3.9697,3.9981,4.1219,4.1604,4.1887,4.317,4.3504,4.3834,4.5115,4.5403,4.5734,4.7019,4.7309,4.7309,4.7309,4.7309,4.7309,4.7309,4.7309,4.7474,4.7967,4.8042,4.7863,4.7369,4.7309,4.7489,4.7982,4.8042,4.8237,4.8775,4.8805,4.8805,4.8805,4.897,4.906,4.906,4.9224,4.9314,4.9314,4.9748,4.9987,4.9987,5.0481,5.081,5.0928,5.0928,5.1065,3.1983,3.269,3.2961,3.3774,3.3705,3.2807,3.0597,2.9879,2.9013,2.6671,2.531,2.4418,2.4098,2.5636,2.6967,2.707,2.9552,3.2014,3.3376,3.3847,3.4587,3.6216,3.6405,3.6405,3.6405,3.6405,3.6405,3.6405,3.6405,3.6405,3.6405,3.6405,3.6405,3.6405,3.6405,3.6405,3.6405,3.6405,3.6405,3.6405,3.6405,3.6405,3.6405,3.6405,3.6405,3.6405,3.6405,3.6543,3.6795,3.7109,3.7475,3.799,3.868,3.9019,3.927,3.9584,3.9697,3.9697,3.9697,3.9697,3.9697,3.9697,3.9697,3.9697,3.9697,3.9697,3.9839,4.0554,4.0794,4.0932,4.1654,4.2266,4.2978,4.4256,4.4978,4.5734,4.7019,4.7309,4.7309,4.7309,4.7309,4.7399,4.7683,4.7743,4.7952,4.8626,4.876,4.8581,4.8222,4.8162,4.8312,4.8686,4.876,4.891,4.9284,4.9314,4.9314,4.9314,4.9538,4.9688,4.9688,4.9972,5.0122,5.0122,5.0481,5.0629,5.0629,5.1035,5.1214,5.1214,5.1214,5.1214,3.3027,3.2591,3.1623,3.3304,3.3087,3.1736,2.9127,2.8473,2.7633,2.4918,2.3622,2.2932,2.2706,2.4519,2.5833,2.5146,2.8047,3.0846,3.2152,3.2893,3.4035,3.6065,3.6367,3.6405,3.6405,3.6405,3.6405,3.6405,3.6405,3.6405,3.6405,3.6405,3.6405,3.6405,3.6405,3.6405,3.6405,3.6405,3.6405,3.6405,3.6405,3.6405,3.6405,3.6405,3.6405,3.6405,3.6405,3.6719,3.7199,3.7262,3.7914,3.8932,3.9007,3.927,3.9697,3.9697,3.9697,3.9697,3.9697,3.9697,3.9697,3.9697,3.9697,3.9697,3.9697,3.9697,3.9697,3.9697,3.9697,3.9697,3.9697,4.0794,4.2119,4.3266,4.4595,4.5973,4.7062,4.7309,4.7339,4.7414,4.7429,4.7653,4.8297,4.8416,4.8641,4.9299,4.9434,4.9434,4.9554,4.9419,4.9344,4.9434,4.9434,4.9479,4.9554,4.9569,4.9569,4.9569,5.0062,5.0315,5.0315,5.0868,5.1214,5.1214,5.1214,5.1214,5.1214,5.1214,5.1214,5.1214,5.1214,5.1214,3.2836,3.2363,3.1397,3.2161,3.1896,3.0755,2.8132,2.7196,2.5957,2.2745,2.2272,2.2033,2.0639,2.218,2.4255,2.5946,2.7896,3.0093,3.2579,3.3796,3.4751,3.5545,3.6094,3.6405,3.6405,3.6405,3.6405,3.6405,3.6405,3.6405,3.6405,3.6405,3.6405,3.6405,3.6405,3.6405,3.6405,3.6405,3.6405,3.6405,3.6405,3.6405,3.6405,3.6405,3.6405,3.6405,3.6405,3.6719,3.7211,3.7676,3.8266,3.8919,3.9371,3.9609,3.9697,3.9697,3.9697,3.9697,3.9697,3.9697,3.9697,3.9697,3.9697,3.9697,3.9697,3.9697,3.9697,3.9697,3.9697,3.9697,3.9697,4.1406,4.3218,4.3456,4.5252,4.7019,4.7251,4.7309,4.7459,4.8012,4.8117,4.8327,4.903,4.9149,4.9314,4.9972,5.0016,5.0257,5.081,4.9927,4.9479,5.0017,5.0016,5.0287,5.084,5.0885,5.0885,5.0885,5.099,5.105,5.105,5.1154,5.1214,5.1214,5.1214,5.1214,5.1214,5.1214,5.1214,5.1214,5.1214,5.1214,3.1974,3.1391,3.066,3.1423,3.0807,2.9292,2.6606,2.5335,2.3866,2.0828,2.0188,1.9924,1.912,2.0778,2.2723,2.4079,2.6666,2.9277,3.1486,3.2993,3.4286,3.537,3.578,3.6044,3.638,3.6405,3.6405,3.6405,3.6405,3.6405,3.6405,3.6405,3.6405,3.6405,3.6405,3.6405,3.6405,3.6405,3.6405,3.6405,3.6405,3.6405,3.6405,3.6405,3.6405,3.6405,3.6405,3.6835,3.7638,3.7902,3.8517,3.932,3.9584,3.9697,3.9697,3.9697,3.9697,3.9697,3.9697,3.9697,3.9697,3.9697,3.9697,3.9697,3.9697,3.9697,3.9697,3.9697,3.9697,3.9697,3.9697,4.1604,4.3313,4.2689,4.4456,4.6491,4.7164,4.7578,4.7908,4.8222,4.8566,4.9,4.9658,4.9778,4.9987,5.0599,5.0704,5.0823,5.1184,5.0676,5.0406,5.0674,5.0704,5.0823,5.1184,5.1214,5.1214,5.1214,5.1214,5.1214,5.1214,5.1214,5.1214,5.1214,5.1214,5.1214,5.1214,5.1214,5.1214,5.1214,5.1214,5.1214,3.0947,3.0445,2.9972,3.0733,2.9907,2.811,2.5159,2.3747,2.2255,1.9271,1.8406,1.8166,1.8053,1.9635,2.1217,2.2008,2.4996,2.7934,2.9967,3.1675,3.337,3.5107,3.542,3.5768,3.6355,3.6405,3.6405,3.6405,3.6405,3.6405,3.6405,3.6405,3.6405,3.6405,3.6405,3.6405,3.6405,3.6405,3.6405,3.6405,3.6405,3.6405,3.6405,3.6405,3.6405,3.6417,3.6531,3.7098,3.8015,3.814,3.8781,3.9697,3.9697,3.9697,3.9697,3.9697,3.9697,3.9697,3.9697,3.9697,3.9697,3.9697,3.9697,3.9697,3.9697,3.9697,3.9697,3.9697,3.9697,3.9697,3.9697,4.1406,4.2978,4.2509,4.3929,4.5763,4.7197,4.7923,4.8371,4.8656,4.9119,4.9688,5.0285,5.0405,5.0569,5.1139,5.1214,5.1214,5.1214,5.1214,5.1214,5.1214,5.1214,5.1214,5.1214,5.1214,5.1214,5.1214,5.1214,5.1214,5.1214,5.1214,5.1214,5.1214,5.1214,5.1214,5.1214,5.1214,5.1214,5.1214,5.1214,5.1214,3.0097,3.0247,2.983,2.9895,2.9428,2.791,2.418,2.3226,2.2042,1.8304,1.789,1.8053,1.7574,1.8442,1.9735,2.1305,2.315,2.5473,2.8599,3.0507,3.2353,3.4537,3.5194,3.5768,3.6355,3.6405,3.6405,3.6405,3.6405,3.6405,3.6405,3.6405,3.6405,3.6405,3.6405,3.6405,3.6405,3.6405,3.6405,3.6405,3.6405,3.6405,3.6405,3.6405,3.6405,3.643,3.6885,3.745,3.8052,3.858,3.9145,3.9697,3.9697,3.9697,3.9697,3.9697,3.9697,3.9697,3.9697,3.9697,3.9697,3.9697,3.9697,3.9697,3.9697,3.9697,3.9697,3.9697,3.9697,3.9697,3.9697,4.0743,4.2315,4.4549,4.5207,4.5938,4.7822,4.8252,4.8641,4.9777,5.0061,5.0315,5.1005,5.1124,5.1154,5.1214,5.1214,5.1214,5.1214,5.1214,5.1214,5.1214,5.1214,5.1214,5.1214,5.1214,5.1214,5.1214,5.1214,5.1214,5.1214,5.1214,5.1214,5.1214,5.1214,5.1214,5.1214,5.1214,5.1214,5.1214,5.1214,5.1214,2.9089,2.9202,2.885,2.9189,2.8084,2.6264,2.3728,2.2096,2.0413,1.7926,1.7275,1.7124,1.6911,1.7501,1.8468,1.9773,2.1681,2.3803,2.6092,2.875,3.1122,3.2993,3.4254,3.5391,3.6317,3.6405,3.6405,3.6405,3.6405,3.6405,3.6405,3.6405,3.6405,3.6405,3.6405,3.6405,3.6405,3.6405,3.6405,3.6405,3.6405,3.6405,3.6405,3.6405,3.6405,3.6443,3.6996,3.75,3.8052,3.863,3.9195,3.9697,3.9697,3.9697,3.9697,3.9697,3.9697,3.9697,3.9697,3.9697,3.9697,3.9697,3.9697,3.9697,3.9697,3.9697,3.9697,3.9697,3.9697,3.9697,3.9697,4.007,4.1269,4.4595,4.5111,4.5499,4.7793,4.891,4.9568,5.0091,5.051,5.0868,5.1169,5.1214,5.1214,5.1214,5.1214,5.1214,5.1214,5.1214,5.1214,5.1214,5.1214,5.1214,5.1214,5.1214,5.1214,5.1214,5.1214,5.1214,5.1214,5.1214,5.1214,5.1214,5.1214,5.1214,5.1214,5.1618,5.1813,5.1813,5.2217,5.2187,2.7708,2.816,2.816,2.8386,2.6892,2.4895,2.3062,2.1054,1.9108,1.7463,1.681,1.65,1.65,1.6986,1.7712,1.8607,2.0501,2.2472,2.4318,2.7017,2.9478,3.1286,3.283,3.4236,3.5504,3.6116,3.6405,3.6405,3.6405,3.6405,3.6405,3.6405,3.6405,3.6405,3.6405,3.6405,3.6405,3.6405,3.6405,3.6405,3.6405,3.6405,3.6405,3.6405,3.6405,3.6455,3.7111,3.7651,3.8065,3.8806,3.9346,3.9697,3.9697,3.9697,3.9697,3.9697,3.9697,3.9697,3.9697,3.9697,3.9697,3.9697,3.9697,3.9697,3.9697,3.9697,3.9697,3.9697,3.9697,3.9697,3.9697,3.9981,4.1071,4.434,4.5096,4.5756,4.8282,4.9583,5.0255,5.045,5.09,5.1214,5.1214,5.1214,5.1214,5.1214,5.1214,5.1214,5.1214,5.1214,5.1214,5.1214,5.1214,5.1214,5.1214,5.1214,5.1214,5.1214,5.1214,5.1214,5.1214,5.1214,5.1214,5.1214,5.1409,5.1513,5.1513,5.2172,5.2501,5.2501,5.2965,5.2935,2.5921,2.7316,2.7971,2.7431,2.605,2.4211,2.2008,2.0225,1.8531,1.6851,1.65,1.65,1.65,1.6986,1.7586,1.8129,1.9635,2.1483,2.369,2.5481,2.7354,2.9553,3.0771,3.2089,3.3759,3.5449,3.6405,3.6405,3.6405,3.6405,3.6405,3.6405,3.6405,3.6405,3.6405,3.6405,3.6405,3.6405,3.6405,3.6405,3.6405,3.6405,3.6405,3.6405,3.6405,3.6468,3.7525,3.8002,3.809,3.922,3.9685,3.9697,3.9697,3.9697,3.9697,3.9697,3.9697,3.9697,3.9697,3.9697,3.9697,3.9697,3.9697,3.9697,3.9697,3.9697,3.9697,3.9697,3.9697,3.9697,3.9697,4.0655,4.2083,4.4056,4.5454,4.7071,4.9637,5.0181,5.039,5.1079,5.1214,5.1214,5.1214,5.1214,5.1214,5.1214,5.1214,5.1214,5.1214,5.1214,5.1214,5.1214,5.1214,5.1214,5.1214,5.1214,5.1214,5.1214,5.1214,5.1214,5.1214,5.1214,5.1214,5.1214,5.1858,5.2187,5.2187,5.2845,5.3174,5.3174,5.3174,5.3174,2.3577,2.3891,2.3715,2.4274,2.2869,2.1117,2.0023,1.8819,1.7639,1.6688,1.65,1.65,1.65,1.6672,1.7099,1.8053,1.9258,2.0589,2.2071,2.5347,2.7984,2.9076,3.2135,3.4587,3.5537,3.6103,3.6405,3.6405,3.6405,3.6405,3.6405,3.6405,3.6405,3.6405,3.6405,3.6405,3.6405,3.6405,3.6405,3.6405,3.6405,3.6405,3.6405,3.6405,3.6405,3.6468,3.7525,3.8002,3.809,3.9233,3.9697,3.9697,3.9697,3.9697,3.9697,3.9697,3.9697,3.9697,3.9697,3.9697,3.9697,3.9697,3.9697,3.9697,3.9697,3.9697,3.9697,3.9697,3.9697,3.989,4.0794,4.1658,4.286,4.5222,4.6751,4.8177,4.9846,5.0539,5.0928,5.1184,5.1214,5.1214,5.1214,5.1214,5.1214,5.1214,5.1214,5.1214,5.1214,5.1214,5.1214,5.1214,5.1214,5.1214,5.1214,5.1214,5.1214,5.1214,5.1633,5.1887,5.1887,5.2321,5.2561,5.2561,5.277,5.2875,5.2875,5.3548,5.4117,5.4551,5.4102,5.3877,2.124,2.1681,2.1656,2.2347,2.1004,1.9396,1.9083,1.798,1.6948,1.6575,1.65,1.65,1.65,1.6697,1.7137,1.8053,1.9284,2.0589,2.192,2.5209,2.8072,2.9666,3.2679,3.4914,3.5667,3.6166,3.6405,3.6405,3.6405,3.6405,3.6405,3.6405,3.6405,3.6405,3.6405,3.6405,3.6405,3.6405,3.6405,3.6405,3.6405,3.6405,3.6405,3.6405,3.6518,3.6769,3.7613,3.8128,0.0,3.932,3.9697,3.9697,3.9697,3.9697,3.9697,3.9697,3.9697,3.9697,3.9697,3.9697,3.9697,3.9697,3.9697,3.9697,3.9697,3.9697,3.9697,3.9697,3.9697,3.989,4.0693,4.2076,4.3772,4.5608,4.7571,4.9295,5.0355,5.093,5.1214,5.1214,5.1214,5.1214,5.1214,5.1214,5.1214,5.1214,5.1214,5.1214,5.1214,5.1214,5.1214,5.1214,5.1214,5.1409,5.1917,5.1813,5.1783,5.1947,5.2351,5.2576,5.2576,5.2965,5.3174,5.3174,5.3428,5.3563,5.3563,5.4251,5.479,5.5179,5.4775,5.4581,0.0,2.0338,2.1142,2.1192,2.0012,1.882,1.882,1.7616,0.0,1.65,1.65,1.65,1.655,1.7024,1.7612,1.8216,1.9661,2.1307,2.2982,2.5297,2.802,3.1135,3.2541,3.3633,3.4625,3.5717,3.6405,3.6405,3.6405,3.6405,3.6405,3.6405,3.6405,3.6405,3.6405,3.6405,3.6405,3.6405,3.6405,3.6405,3.6405,3.6405,3.6405,3.6405,3.6707,3.7211,3.7764,3.8329,3.8957,3.9471,3.9697,3.9697,3.9697,3.9697,3.9697,3.9697,3.9697,3.9697,3.9697,3.9697,3.9697,3.9697,3.9697,3.9697,3.9697,3.9697,3.9697,3.9697,3.9697,3.9749,3.998,4.2279,4.4754,4.5511,4.8027,5.0435,5.0924,5.112,5.1214,5.1214,5.1214,5.1214,5.1214,5.1214,5.1214,5.1214,5.1214,5.1214,5.1214,5.1214,5.1289,5.1483,5.1498,5.1992,5.3219,5.289,5.28,5.3204,5.3249,5.3249,5.3249,5.3294,5.3324,5.3324,5.3952,5.4281,5.4281,5.4895,5.5194,5.5194,5.5194,5.5194,1.7127,0.0,1.779,1.8265,1.7727,1.7089,0.0,1.6776,1.65,1.65,1.65,1.6638,1.7099,1.731,1.7827,1.9208,2.0151,2.1571,2.4036,2.777,3.0846,3.2533,3.4035,3.4856,3.4738,3.5717,3.6405,3.6405,3.6405,3.6405,3.6405,3.6405,3.6405,3.6405,3.6405,3.6405,3.6405,3.6405,3.6405,3.6405,3.6405,3.6405,3.6405,3.6405,3.6707,3.7211,3.7764,3.8329,3.8957,3.9471,3.9697,3.9697,3.9697,3.9697,3.9697,3.9697,3.9697,3.9697,3.9697,3.9697,3.9697,3.9697,3.9697,3.9697,3.9697,3.9697,3.9697,3.9697,3.9697,4.0274,4.2717,4.4294,4.5637,4.7196,4.9296,5.0723,4.9844,5.0493,5.1214,5.1214,5.1214,5.1214,5.1214,5.1214,5.1214,5.1214,5.1214,5.1214,5.1214,5.1214,5.2007,5.4042,5.4251,5.4386,5.4685,5.4012,5.3608,5.3713,5.3877,5.3967,5.3967,5.4446,5.4715,5.4715,5.488,5.4955,5.497,5.5119,5.5194,5.5194,5.5194,5.5194,1.65,1.65,1.6575,1.6911,1.6748,1.65,1.65,1.65,1.6575,1.6861,1.6911,1.7087,1.7652,1.8617,1.9409,1.9748,2.181,2.4249,2.6741,2.9151,3.1348,3.3232,3.4248,3.4964,3.5429,3.6065,3.6405,3.6405,3.6405,3.6405,3.6405,3.6405,3.6405,3.6405,3.6405,3.6405,3.6405,3.6405,3.6405,3.6405,3.6405,3.6405,3.6417,3.6669,3.7036,3.76,3.8165,3.873,3.927,3.9572,3.9697,3.9697,3.9697,3.9697,3.9697,3.9697,3.9697,3.9697,3.9697,3.9697,3.9697,3.9697,3.9697,3.9697,3.9697,3.9697,3.9697,3.9697,3.9873,4.0475,4.218,4.3782,4.5294,4.6926,4.8846,5.0239,5.0143,5.0698,5.1214,5.1214,5.1214,5.1214,5.1214,5.1214,5.1214,5.1214,5.1214,5.1663,5.289,5.3039,5.3593,5.5029,5.5194,5.5194,5.5194,5.476,5.4491,5.4491,5.4596,5.4655,5.4655,5.4999,5.5194,5.5194,5.5194,5.5194,5.5194,5.5194,5.5194,5.5194,5.5194,5.5194,1.65,1.6626,1.6713,1.6538,1.65,1.6525,1.6613,1.6647,1.681,1.741,1.7524,1.7752,1.8555,2.0087,2.1079,2.0639,2.4123,2.7618,2.9729,3.0331,3.1386,3.3633,3.4123,3.4751,3.604,3.6317,3.6405,3.6405,3.6405,3.6405,3.6405,3.6405,3.6405,3.6405,3.6405,3.6405,3.6405,3.6405,3.6405,3.6405,3.6405,3.6405,3.643,3.6983,3.7487,3.804,3.8617,3.9182,3.9697,3.9697,3.9697,3.9697,3.9697,3.9697,3.9697,3.9697,3.9697,3.9697,3.9697,3.9697,3.9697,3.9697,3.9697,3.9697,3.9697,3.9697,3.971,3.9798,4.0162,4.0578,4.0864,4.2736,4.4856,4.6118,4.8006,4.9776,5.0698,5.1058,5.1214,5.1214,5.1214,5.1214,5.1214,5.1214,5.1214,5.1214,5.1573,5.2636,5.491,5.5194,5.5194,5.5194,5.5194,5.5194,5.5194,5.5194,5.5194,5.5194,5.5194,5.5194,5.5194,5.5194,5.5194,5.5194,5.5194,5.5194,5.5194,5.5194,5.5194,5.5194,5.5194,5.5194,1.65,1.719,1.7714,1.6738,1.65,1.6626,1.7137,1.725,1.7413,1.7965,1.8078,1.8668,2.0627,2.0476,2.0928,2.3584,2.6543,2.9164,3.0896,3.2767,3.3947,3.3909,3.5127,3.5717,3.5039,3.5818,3.6405,3.6405,3.6405,3.6405,3.6405,3.6405,3.6405,3.6405,3.6405,3.6405,3.6405,3.6405,3.6405,3.6405,3.6405,3.6405,3.643,3.6983,3.7487,3.804,3.8617,3.9182,3.9697,3.9697,3.9697,3.9697,3.9697,3.9697,3.9697,3.9697,3.9697,3.9697,3.9697,3.9697,3.9697,3.9697,3.9697,3.9697,3.9697,3.9697,3.9785,4.0262,4.045,4.0864,4.2528,4.4488,4.6132,4.6846,4.8977,5.065,4.9727,5.0397,5.1214,5.1214,5.1214,5.1214,5.1214,5.1214,5.1214,5.1214,5.3129,5.473,5.5149,5.5194,5.5194,5.5194,5.5194,5.5194,5.5194,5.5194,5.5194,5.5194,5.5194,5.5194,5.5194,5.5194,5.5194,5.5194,5.5194,5.5194,5.5194,5.5194,5.5194,5.5194,5.5194,5.5194,1.65,1.7124,1.7777,1.7829,1.8317,1.8832,1.912,1.9409,1.9673,1.9924,1.9974,2.0476,2.2083,2.2937,2.4582,2.8222,2.9139,3.008,3.2026,3.2918,3.3608,3.4261,3.5014,3.5504,3.5604,3.6116,3.6405,3.6405,3.6405,3.6405,3.6405,3.6405,3.6405,3.6405,3.6405,3.6405,3.6405,3.6405,3.6405,3.6405,3.6405,3.6568,3.687,3.7374,3.7939,3.8504,3.9069,3.9459,3.9697,3.9697,3.9697,3.9697,3.9697,3.9697,3.9697,3.9697,3.9697,3.9697,3.9697,3.9697,3.9697,3.9697,3.9697,3.9697,3.9697,3.9898,4.0187,4.0438,4.0727,4.1238,4.2439,4.4164,4.5836,4.6885,4.8638,5.0143,5.0239,5.076,5.1214,5.1214,5.1214,5.1214,5.1214,5.1214,5.1708,5.3144,5.4401,5.5194,5.5194,5.5194,5.5194,5.5194,5.5194,5.5194,5.5194,5.5194,5.5194,5.5194,5.5194,5.5194,5.5194,5.5194,5.5194,5.5194,5.5194,5.5194,5.5194,5.5194,5.5194,5.5194,5.5194,5.5194,1.65,1.7124,1.7965,1.8795,1.956,2.0314,2.1094,2.1408,2.1644,2.2159,2.2359,2.2749,2.371,2.5624,2.8083,3.1148,3.0922,3.1135,3.3345,3.3269,3.352,3.4939,3.5102,3.5441,3.6329,3.6405,3.6405,3.6405,3.6405,3.6405,3.6405,3.6405,3.6405,3.6405,3.6405,3.6405,3.6405,3.6405,3.6405,3.6405,3.6405,3.6694,3.7199,3.7751,3.8329,3.8957,3.9459,3.9697,3.9697,3.9697,3.9697,3.9697,3.9697,3.9697,3.9697,3.9697,3.9697,3.9697,3.9697,3.9697,3.9697,3.9697,3.9697,3.9722,3.9848,4.0174,4.0576,4.0827,4.1204,4.163,4.2099,4.3849,4.5767,4.6837,4.8439,4.9936,5.0964,5.1214,5.1214,5.1214,5.1214,5.1214,5.1214,5.1738,5.2845,5.488,5.5194,5.5194,5.5194,5.5194,5.5194,5.5194,5.5194,5.5194,5.5194,5.5194,5.5194,5.5194,5.5194,5.5194,5.5194,5.5194,5.5194,5.5194,5.5194,5.5194,5.5194,5.5194,5.5194,5.5194,5.5194,5.5194,1.65,1.7666,1.8907,1.8983,1.8682,1.9183,2.223,2.2196,2.2083,2.4155,2.4971,2.5485,2.6147,2.7607,2.8976,2.9829,3.1135,3.2817,3.5006,3.5282,3.5542,3.6216,3.6292,3.6317,3.6405,3.6405,3.6405,3.6405,3.6405,3.6405,3.6405,3.6405,3.6405,3.6405,3.6405,3.6405,3.6405,3.6405,3.6405,3.6405,3.6405,3.6694,3.7199,3.7751,3.8329,3.8957,3.9459,3.9697,3.9697,3.9697,3.9697,3.9697,3.9697,3.9697,3.9697,3.9697,3.9697,3.9697,3.9697,3.9697,3.9697,3.9697,3.9697,3.9785,4.03,4.0488,4.0727,4.1798,4.2125,4.2162,4.22,4.4559,4.694,4.7094,4.9112,5.1073,5.1167,5.1214,5.1214,5.1214,5.1214,5.1214,5.1214,5.3264,5.497,5.5164,5.5194,5.5194,5.5194,5.5194,5.5194,5.5194,5.5194,5.5194,5.5194,5.5194,5.5194,5.5194,5.5194,5.5194,5.5194,5.5194,5.5194,5.5194,5.5194,5.5194,5.5194,5.5194,5.5194,5.5194,5.5194,5.5194,1.6961,1.8254,1.9673,2.0388,2.0888,2.1754,2.371,2.4657,2.5234,2.5737,2.6816,2.7733,2.7959,2.9917,3.1461,3.1323,3.298,3.453,3.5382,3.583,3.6119,3.638,3.6405,3.6405,3.6405,3.6405,3.6405,3.6405,3.6405,3.6405,3.6405,3.6405,3.6405,3.6405,3.6405,3.6405,3.6405,3.6405,3.6405,3.6417,3.6757,3.7161,3.7713,3.8291,3.8856,3.9396,3.9597,3.9697,3.9697,3.9697,3.9697,3.9697,3.9697,3.9697,3.9697,3.9697,3.9697,3.9697,3.9697,3.9697,3.9697,3.9697,3.9923,4.0249,4.045,4.099,4.1672,4.2087,4.2451,4.2728,4.2728,4.4271,4.6017,4.6888,4.8539,5.0191,5.1011,5.1214,5.1214,5.1214,5.1214,5.1753,5.3399,5.4521,5.5194,5.5194,5.5194,5.5194,5.5194,5.5194,5.5194,5.5194,5.5194,5.5194,5.5194,5.5194,5.5194,5.5194,5.5194,5.5194,5.5194,5.5194,5.5194,5.5194,5.5194,5.5194,5.5194,5.5194,5.5194,5.5194,5.5194,5.5194,1.7752,1.897,2.0388,2.1681,2.2819,2.4023,2.549,2.6603,2.7454,2.7945,2.8913,2.9817,3.0168,3.1788,3.3006,3.278,3.4279,3.5558,3.578,3.6119,3.6405,3.6405,3.6405,3.6405,3.6405,3.6405,3.6405,3.6405,3.6405,3.6405,3.6405,3.6405,3.6405,3.6405,3.6405,3.6405,3.6405,3.6405,3.6505,3.6669,3.7186,3.7638,3.8027,3.8605,3.917,3.9697,3.9697,3.9697,3.9697,3.9697,3.9697,3.9697,3.9697,3.9697,3.9697,3.9697,3.9697,3.9697,3.9697,3.9697,3.9722,3.9898,4.0212,4.0588,4.0927,4.1555,4.225,4.2426,4.274,4.2974,4.2974,4.4016,4.5356,4.6785,4.8074,4.9406,5.0855,5.1214,5.1214,5.1214,5.1887,5.3054,5.488,5.5194,5.5194,5.5194,5.5194,5.5194,5.5194,5.5194,5.5194,5.5194,5.5194,5.5194,5.5194,5.5194,5.5194,5.5194,5.5194,5.5194,5.5194,5.5194,5.5194,5.5194,5.5194,5.5194,5.5194,5.5194,5.5194,5.5194,5.5194,5.5194,1.8845,1.9836,2.1106,2.2706,2.3985,2.5402,2.7632,2.7708,2.8097,3.0846,3.1411,3.1738,3.291,3.3093,3.3269,3.3809,3.4781,3.5696,3.6329,3.6405,3.6405,3.6405,3.6405,3.6405,3.6405,3.6405,3.6405,3.6405,3.6405,3.6405,3.6405,3.6405,3.6405,3.6405,3.6405,3.6405,3.6405,3.6417,3.6681,3.7199,3.7751,3.8015,3.804,3.8617,3.9182,3.9697,3.9697,3.9697,3.9697,3.9697,3.9697,3.9697,3.9697,3.9697,3.9697,3.9697,3.9697,3.9697,3.9697,3.9697,3.9798,4.0337,4.0526,4.0739,4.1886,4.2213,4.2338,4.2879,4.2974,4.2974,4.2974,4.4016,4.5356,4.6733,4.7822,4.895,5.0807,5.1214,5.1229,5.1244,5.3384,5.5194,5.5194,5.5194,5.5194,5.5194,5.5194,5.5194,5.5194,5.5194,5.5194,5.5194,5.5194,5.5194,5.5194,5.5194,5.5194,5.5194,5.5194,5.5194,5.5194,5.5194,5.5194,5.5194,5.5194,5.5194,5.5194,5.5194,5.5194,5.5194,5.5194,5.5194,1.8191,2.01,2.2133,2.3427,2.5703,2.806,2.9541,2.9754,3.0294,3.2667,3.2516,3.2202,3.2943,3.4035,3.4568,3.3997,3.5152,3.6182,3.638,3.6405,3.6405,3.6405,3.6405,3.6405,3.6405,3.6405,3.6405,3.6405,3.6405,3.6405,3.6405,3.6405,3.6405,3.6405,3.6405,3.6405,3.6405,3.6795,3.7023,3.7199,3.8153,3.8617,3.863,3.9195,3.9534,3.9697,3.9697,3.9697,3.9697,3.9697,3.9697,3.9697,3.9697,3.9697,3.9697,3.9697,3.9697,3.9747,4.0136,4.0275,4.0362,4.0862,4.1354,4.1785,4.2112,4.2476,4.2828,4.2992,4.2974,4.2974,4.2974,4.3283,4.4016,4.5714,4.6331,4.7402,5.0493,5.1214,5.1768,5.3653,5.4655,5.5194,5.5194,5.5194,5.5194,5.5194,5.5194,5.5194,5.5194,5.5194,5.5194,5.5194,5.5194,5.5194,5.5194,5.5194,5.5194,5.5194,5.5194,5.5194,5.5194,5.5194,5.5194,5.5194,5.5194,5.5194,5.5194,5.5194,5.5194,5.5194,5.5194,5.5194,1.9597,2.1352,2.3145,2.5398,2.7632,2.9741,3.1524,3.1926,3.2353,3.3909,3.3859,3.3709,3.4318,3.519,3.5655,3.4989,3.5764,3.6405,3.6405,3.6405,3.6405,3.6405,3.6405,3.6405,3.6405,3.6405,3.6405,3.6405,3.6405,3.6405,3.6405,3.6405,3.6405,3.6405,3.6405,3.6405,3.6405,3.6958,3.7299,3.7525,3.8442,3.8981,3.9207,3.9546,3.9697,3.9697,3.9697,3.9697,3.9697,3.9697,3.9697,3.9697,3.9697,3.9697,3.9697,3.9697,3.9835,4.0074,4.04,4.0664,4.0927,4.148,4.1882,4.225,4.2476,4.271,4.2974,4.2974,4.2974,4.2974,4.2974,4.2974,4.3449,4.5249,4.5142,4.582,5.0239,5.2052,5.3279,5.488,5.5194,5.5194,5.5194,5.5194,5.5194,5.5194,5.5194,5.5194,5.5194,5.5194,5.5194,5.5194,5.5194,5.5194,5.5194,5.5194,5.5194,5.5194,5.5194,5.5194,5.5194,5.5194,5.5194,5.5194,5.5194,5.5194,5.5194,5.5194,5.5194,5.5194,5.5194,5.5194,2.1954,2.302,2.4148,2.7885,2.9515,3.0821,3.3332,3.3972,3.4198,3.4655,3.5157,3.5658,3.6304,3.6405,3.6405,3.6405,3.6405,3.6405,3.6405,3.6405,3.6405,3.6405,3.6405,3.6405,3.6405,3.6405,3.6405,3.6405,3.6405,3.6405,3.6405,3.6405,3.6405,3.6405,3.6405,3.643,3.648,3.6985,3.7538,3.809,3.8668,3.9207,3.9697,3.9697,3.9697,3.9697,3.9697,3.9697,3.9697,3.9697,3.9697,3.9697,3.9697,3.9722,3.9772,3.9772,4.0124,4.0601,4.0651,4.099,4.1505,4.2099,4.2288,4.2376,4.2823,4.2974,4.2974,4.2974,4.2974,4.2974,4.2974,4.2974,4.3394,4.5048,4.4222,4.4437,4.9612,5.3099,5.5194,5.5194,5.5194,5.5194,5.5194,5.5194,5.5194,5.5194,5.5194,5.5194,5.5194,5.5194,5.5194,5.5194,5.5194,5.5194,5.5194,5.5194,5.5194,5.5194,5.5194,5.5194,5.5194,5.5194,5.5194,5.5194,5.5194,5.5194,5.5194,5.5194,5.5194,5.5194,5.5194,5.5194,2.01,2.2418,2.5039,2.7645,3.067,3.3169,3.3771,3.4562,3.5182,3.5295,3.542,3.5658,3.6304,3.6405,3.6405,3.6405,3.6405,3.6405,3.6405,3.6405,3.6405,3.6405,3.6405,3.6405,3.6405,3.6405,3.6405,3.6405,3.6405,3.6405,3.6405,3.6405,3.6405,3.6405,3.6405,3.6619,3.6998,3.755,3.8115,3.8693,3.9245,3.9584,3.9697,3.9697,3.9697,3.9697,3.9697,3.9697,3.9697,3.9697,3.9697,3.9697,3.9697,3.9961,4.0337,4.0337,4.0689,4.1229,4.1656,4.1936,4.2125,4.2678,4.2854,4.2879,4.2949,4.2974,4.2974,4.2974,4.2974,4.2974,4.2974,4.2974,4.3085,4.3492,4.3295,4.3832,4.6742,5.1482,5.5194,5.5194,5.5194,5.5194,5.5194,5.5194,5.5194,5.5194,5.5194,5.5194,5.5194,5.5194,5.5194,5.5194,5.5194,5.5194,5.5194,5.5194,5.5194,5.5194,5.5194,5.5194,5.5194,5.5194,5.5194,5.5194,5.5194,5.5194,5.5194,5.5194,5.5194,5.5194,5.5194,5.5194,2.0575,2.2656,2.4888,2.8725,3.1599,3.3646,3.4173,3.4893,3.5571,3.5881,3.5931,3.6031,3.6355,3.6405,3.6405,3.6405,3.6405,3.6405,3.6405,3.6405,3.6405,3.6405,3.6405,3.6405,3.6405,3.6405,3.6405,3.6405,3.6405,3.6405,3.6405,3.6405,3.6405,3.6405,3.6669,3.6945,3.7186,3.8002,3.8567,3.8932,3.9433,3.9697,3.9697,3.9697,3.9697,3.9697,3.9697,3.9697,3.9697,3.9697,3.9697,3.9722,3.9986,4.0262,4.0551,4.0814,4.1254,4.1769,4.2112,4.2389,4.2652,4.2886,4.2974,4.2974,4.2974,4.2974,4.2974,4.2974,4.2974,4.2974,4.2974,4.2974,4.325,4.4317,4.4581,4.4895,4.6062,5.0975,5.5194,5.5194,5.5194,5.5194,5.5194,5.5194,5.5194,5.5194,5.5194,5.5194,5.5194,5.5194,5.5194,5.5194,5.5194,5.5194,5.5194,5.5194,5.5194,5.5194,5.5194,5.5194,5.5194,5.5194,5.5194,5.5194,5.5194,5.5194,5.5194,5.5194,5.5194,5.5194,5.5194,5.5194,2.1227,2.3032,2.4888,2.9993,3.2177,3.3345,3.4349,3.5044,3.5621,3.6119,3.6342,3.6405,3.6405,3.6405,3.6405,3.6405,3.6405,3.6405,3.6405,3.6405,3.6405,3.6405,3.6405,3.6405,3.6405,3.6405,3.6405,3.6405,3.6405,3.6405,3.6405,3.6405,3.6405,3.6405,3.6945,3.7224,3.7324,3.8354,3.8969,3.9019,3.9471,3.9697,3.9697,3.9697,3.9697,3.9697,3.9697,3.9697,3.9697,3.9697,3.9747,3.9885,4.0337,4.0626,4.0852,4.1317,4.1819,4.2351,4.2351,4.2652,4.2974,4.2974,4.2974,4.2974,4.2974,4.2974,4.2974,4.2974,4.2974,4.2974,4.2974,4.3263,4.4016,4.5874,4.6313,4.6313,4.6313,5.0197,5.3964,5.5027,5.5194,5.5194,5.5194,5.5194,5.5194,5.5194,5.5194,5.5194,5.5194,5.5194,5.5194,5.5194,5.5194,5.5194,5.5194,5.5194,5.5194,5.5194,5.5194,5.5194,5.5194,5.5194,5.5194,5.5194,5.5194,5.5194,5.5194,5.5194,5.5194,5.5194,5.5194,5.5194,1.9108,2.2736,2.6813,2.993,3.1901,3.3244,3.3872,3.4756,3.552,3.5596,3.6031,3.6405,3.6405,3.6405,3.6405,3.6405,3.6405,3.6405,3.6405,3.6405,3.6405,3.6405,3.6405,3.6405,3.6405,3.6405,3.6405,3.6405,3.6405,3.6405,3.6405,3.6405,3.6405,3.6405,3.6945,3.7412,3.7889,3.8542,3.9107,3.9584,3.9659,3.9697,3.9697,3.9697,3.9697,3.9697,3.9697,3.9697,3.9697,3.9697,3.9973,4.0413,4.0488,4.1091,4.1999,4.2074,4.2396,4.2873,4.2873,4.2924,4.2974,4.2974,4.2974,4.2974,4.2974,4.2974,4.2974,4.2974,4.2974,4.2974,4.2974,4.4405,4.5937,4.6238,4.6313,4.6313,4.6313,4.6921,4.9036,5.4186,5.5194,5.5194,5.5194,5.5194,5.5194,5.5194,5.5194,5.5194,5.5194,5.5194,5.5194,5.5194,5.5194,5.5194,5.5194,5.5194,5.5194,5.5194,5.5194,5.5194,5.5194,5.5194,5.5194,5.5194,5.5194,5.5194,5.5194,5.5194,5.5194,5.5194,5.5194,5.5194,1.9597,2.2924,2.6201,2.8976,3.0696,3.2001,3.3169,3.406,3.4756,3.537,3.5683,3.5994,3.6355,3.6405,3.6405,3.6405,3.6405,3.6405,3.6405,3.6405,3.6405,3.6405,3.6405,3.6405,3.6405,3.6405,3.6405,3.6405,3.6405,3.6405,3.6405,3.6405,3.6556,3.6857,3.7362,3.7914,3.8479,3.9057,3.9459,3.9697,3.9697,3.9697,3.9697,3.9697,3.9697,3.9697,3.9697,3.9697,3.9722,4.0023,4.03,4.0576,4.1191,4.1785,4.225,4.2552,4.2828,4.2974,4.2974,4.2974,4.2974,4.2974,4.2974,4.2974,4.2974,4.2974,4.2974,4.2974,4.2974,4.3275,4.4518,4.5573,4.6313,4.6313,4.6313,4.6313,4.6313,4.8921,5.2079,5.4692,5.5194,5.5194,5.5194,5.5194,5.5194,5.5194,5.5194,5.5194,5.5194,5.5194,5.5194,5.5194,5.5194,5.5194,5.5194,5.5194,5.5194,5.5194,5.5194,5.5194,5.5194,5.5194,5.5194,5.5194,5.5194,5.5194,5.5194,5.5194,5.5194,5.5194,5.5194,5.5194,1.9635,2.2071,2.4249,2.7283,2.8938,3.0244,3.2039,3.3093,3.3922,3.4751,3.5207,3.5621,3.6081,3.6317,3.6405,3.6405,3.6405,3.6405,3.6405,3.6405,3.6405,3.6405,3.6405,3.6405,3.6405,3.6405,3.6405,3.6405,3.6405,3.6405,3.6405,3.6405,3.6669,3.7161,3.7713,3.8278,3.8906,3.9421,3.9697,3.9697,3.9697,3.9697,3.9697,3.9697,3.9772,3.9898,3.9898,3.9898,3.9948,4.0501,4.0802,4.1015,4.1886,4.2288,4.2464,4.2823,4.2974,4.2974,4.2974,4.2974,4.2974,4.2974,4.2974,4.2974,4.2974,4.2974,4.2974,4.2974,4.3388,4.4204,4.5874,4.6313,4.6313,4.6313,4.6313,4.6313,4.6313,5.0975,5.5194,5.5194,5.5194,5.5194,5.5194,5.5194,5.5194,5.5194,5.5194,5.5194,5.5194,5.5194,5.5194,5.5194,5.5194,5.5194,5.5194,5.5194,5.5194,5.5194,5.5194,5.5194,5.5194,5.5194,5.5194,5.5194,5.5194,5.5194,5.5194,5.5194,5.5194,5.5194,5.5194,5.5194,1.7877,1.9208,2.0978,2.482,2.6628,2.8034,3.0244,3.1976,3.3174,3.3194,3.4449,3.5508,3.5533,3.6006,3.6405,3.6405,3.6405,3.6405,3.6405,3.6405,3.6405,3.6405,3.6405,3.6405,3.6405,3.6405,3.6405,3.6405,3.6405,3.6405,3.6405,3.6405,3.6669,3.7161,3.7713,3.8278,3.8906,3.9421,3.9697,3.9697,3.9697,3.9697,3.9697,3.9697,3.9986,4.0475,4.0475,4.0475,4.0513,4.1012,4.1605,4.2137,4.2187,4.2527,4.2936,4.2974,4.2974,4.2974,4.2974,4.2974,4.2974,4.2974,4.2974,4.2974,4.2974,4.2974,4.2974,4.2974,4.4505,4.6163,4.6276,4.6313,4.6313,4.6313,4.6313,4.6313,4.6313,5.0975,5.5194,5.5194,5.5194,5.5194,5.5194,5.5194,5.5194,5.5194,5.5194,5.5194,5.5194,5.5194,5.5194,5.5194,5.5194,5.5194,5.5194,5.5194,5.5194,5.5194,5.5194,5.5194,5.5194,5.5194,5.5194,5.5194,5.5194,5.5194,5.5194,5.5194,5.5194,5.5194,5.5194,5.5194,1.7146,1.8216,1.9447,2.2259,2.4594,2.6603,2.8122,3.0294,3.2202,3.2973,3.411,3.5082,3.5433,3.5994,3.6405,3.6405,3.6405,3.6405,3.6405,3.6405,3.6405,3.6405,3.6405,3.6405,3.6405,3.6405,3.6405,3.6405,3.6405,3.6405,3.6405,3.6744,3.7149,3.7701,3.8266,3.8831,3.9396,3.9597,3.9697,3.9697,3.9697,3.9697,3.9697,4.0061,4.0325,4.0563,4.1254,4.1367,4.1037,4.1643,4.1969,4.2238,4.2602,4.2798,4.2974,4.2974,4.2974,4.2974,4.2974,4.2974,4.2974,4.2974,4.2974,4.2974,4.2974,4.2974,4.3275,4.4706,4.5698,4.6313,4.6313,4.6313,4.6313,4.6313,4.6313,4.6313,4.6313,4.7977,5.0643,5.4458,5.5194,5.5194,5.5194,5.5194,5.5194,5.5194,5.5194,5.5194,5.5194,5.5194,5.5194,5.5194,5.5194,5.5194,5.5194,5.5194,5.5194,5.5194,5.5194,5.5194,5.5194,5.5194,5.5194,5.5194,5.5194,5.5194,5.5194,5.5194,5.5194,5.5194,5.5194,5.5194,1.6103,1.709,1.8109,2.0152,2.2454,2.4621,2.6109,2.8448,3.0608,3.1738,3.3144,3.4274,3.465,3.5316,3.5931,3.6355,3.6405,3.6405,3.6405,3.6405,3.6405,3.6405,3.6405,3.6405,3.6405,3.6405,3.6405,3.6405,3.6405,3.6405,3.6405,3.6885,3.7525,3.8278,3.8856,3.932,3.9697,3.9697,3.9697,3.9697,3.9697,3.9785,3.9986,4.035,4.0714,4.1103,4.1886,4.1944,4.1656,4.2208,4.2489,4.2527,4.2836,4.2974,4.2974,4.2974,4.2974,4.2974,4.2974,4.2974,4.2974,4.2974,4.2974,4.2974,4.2974,4.3501,4.4405,4.5899,4.6313,4.6313,4.6313,4.6313,4.6313,4.6313,4.6313,4.6313,4.6313,4.6313,4.8035,5.4016,5.5194,5.5194,5.5194,5.5194,5.5194,5.5194,5.5194,5.5194,5.5194,5.5194,5.5194,5.5194,5.5194,5.5194,5.5194,5.5194,5.5194,5.5194,5.5194,5.5194,5.5194,5.5194,5.5194,5.5194,5.5194,5.5194,5.5194,5.5194,5.5194,5.5194,5.5194,5.5194,0.0,0.0,0.0,1.8499,2.0156,2.199,2.4166,2.6414,2.8348,2.9465,3.1474,3.3074,3.3074,3.3935,3.5052,3.6166,3.6367,3.638,3.638,3.6405,3.6405,3.6405,3.6405,3.6405,3.6405,3.6405,3.6405,3.6405,3.6405,3.6405,3.6405,3.6945,3.7726,3.8906,3.9421,3.9697,3.9697,3.9697,3.9697,3.9697,3.971,3.9998,4.0513,4.0551,4.1141,4.2213,4.2225,4.2238,4.2275,4.2816,4.2974,4.2974,4.2974,4.2974,4.2974,4.2974,4.2974,4.2974,4.2999,4.2986,4.2986,4.3024,4.2999,4.2986,4.3049,4.4593,4.6313,4.6313,4.6313,4.6313,4.6313,4.6313,4.6313,4.6313,4.6313,4.6361,4.6528,4.6528,4.8255,5.4082,5.5194,5.5194,5.5194,5.5194,5.5194,5.5194,5.5194,5.5194,5.5194,5.5194,5.5194,5.5194,5.5194,5.5194,5.5194,5.5194,5.5194,5.5194,5.5194,5.5194,5.5194,5.5194,5.5194,5.5194,5.5194,5.5194,5.5194,5.5194,5.5194,5.5194,5.5194,5.5194,1.4274,0.0,0.0,0.0,0.0,0.0,2.0955,2.3841,2.649,2.7266,2.9805,3.1851,3.1851,3.3106,3.4223,3.4537,3.5253,3.5768,3.5768,3.6107,3.6405,3.6405,3.6405,3.6405,3.6405,3.6405,3.6405,3.6405,3.6405,3.6405,3.6405,3.7262,3.8304,3.9433,3.9609,3.9697,3.9697,3.9697,3.9697,3.9697,4.0099,4.0375,4.0538,4.1342,4.1923,4.2238,4.2627,4.2803,4.276,4.2911,4.2974,4.2974,4.2974,4.2974,4.2974,4.2974,4.2974,4.3037,4.3438,4.3313,4.3112,4.3915,4.3627,4.3275,4.4895,4.5824,4.6313,4.6313,4.6313,4.6313,4.6313,4.6313,4.6313,4.6313,4.6313,4.7475,5.1795,5.2751,5.3241,5.486,5.5194,5.5194,5.5194,5.5194,5.5194,5.5194,5.5194,5.5194,5.5194,5.5194,5.5194,5.5194,5.5194,5.5194,5.5194,5.5194,5.5194,5.5194,5.5194,5.5194,5.5194,5.5194,5.5194,5.5194,5.5194,5.5194,5.5194,5.5194,5.5194,5.5194,5.5194,5.5194,1.4714,1.5159,1.5645,1.5956,0.0,0.0,1.9925,2.2272,2.4582,2.5871,2.8185,3.0018,3.0018,3.1399,3.2528,3.2528,3.3445,3.4354,3.5056,3.568,3.6019,3.6019,3.6267,3.6405,3.6405,3.6405,3.6405,3.6405,3.6405,3.6606,3.7023,3.7663,3.8517,3.9659,3.9697,3.9697,3.9697,3.9697,3.981,4.0036,4.0362,4.0752,4.1216,4.1923,4.2338,4.2577,4.2836,4.2974,4.2974,4.2974,4.2974,4.2974,4.2974,4.2974,4.2974,4.2974,4.3124,4.3363,4.3689,4.374,4.3765,4.4418,4.4505,4.4606,4.5924,4.6313,4.6313,4.6313,4.6313,4.6313,4.6313,4.6313,4.6313,4.6313,4.6313,4.7252,5.0754,5.3466,5.5194,5.5194,5.5194,5.5194,5.5194,5.5194,5.5194,5.5194,5.5194,5.5194,5.5194,5.5194,5.5194,5.5194,5.5194,5.5194,5.5194,5.5194,5.5194,5.5194,5.5194,5.5194,5.5194,5.5194,5.5194,5.5194,5.5194,5.5194,5.5194,5.5194,5.5194,5.5194,5.5194,5.5194,1.5517,1.6013,1.6408,1.6422,1.7226,0.0,1.9876,2.1159,2.2556,2.4456,2.6285,2.7528,2.7457,2.8837,2.9967,2.9967,3.0972,3.239,3.4186,3.4931,3.5345,3.5395,3.5881,3.6267,3.6405,3.6355,3.6342,3.6405,3.6405,3.6857,3.7864,3.7977,3.8504,3.9572,3.9659,3.9697,3.9697,3.9747,4.0036,4.0513,4.0639,4.1204,4.2213,4.2275,4.2577,4.2974,4.2974,4.2974,4.2974,4.2974,4.2974,4.2974,4.2974,4.2974,4.2986,4.3049,4.3376,4.3815,4.394,4.4267,4.4644,4.4769,4.5485,4.6313,4.6313,4.6313,4.6313,4.6313,4.6313,4.6313,4.6313,4.6313,4.6313,4.6313,4.6313,4.6481,4.7146,5.1469,5.5194,5.5194,5.5194,5.5194,5.5194,5.5194,5.5194,5.5194,5.5194,5.5194,5.5194,5.5194,5.5194,5.5194,5.5194,5.5194,5.5194,5.5194,5.5194,5.5194,5.5194,5.5194,5.5194,5.5194,5.5194,5.5194,5.5194,5.5194,5.5194,5.5194,5.5194,5.5194,5.5194,5.5194,1.5387,1.5454,1.5861,1.5852,1.6355,0.0,1.7247,1.8853,2.0282,2.0291,2.2327,2.3944,2.35,2.4788,2.5916,2.5916,2.762,2.9804,3.234,3.3583,3.4387,3.4781,3.4977,3.5391,3.6317,3.5968,3.5893,3.6367,3.6405,3.6694,3.7312,3.7764,3.8316,3.9007,3.9459,3.9697,3.9697,4.0136,4.0413,4.0526,4.1417,4.1999,4.2225,4.2678,4.2873,4.2974,4.2974,4.2974,4.2974,4.2974,4.2974,4.2974,4.2974,4.2974,4.3037,4.3476,4.3714,4.3928,4.4844,4.492,4.4769,4.5686,4.6137,4.6313,4.6313,4.6313,4.6313,4.6313,4.6313,4.6313,4.6313,4.6313,4.6313,4.6313,4.6313,4.7652,5.2416,5.4355,5.5194,5.5194,5.5194,5.5194,5.5194,5.5194,5.5194,5.5194,5.5194,5.5194,5.5194,5.5194,5.5194,5.5194,5.5194,5.5194,5.5194,5.5194,5.5194,5.5194,5.5194,5.5194,5.5194,5.5194,5.5194,5.5194,5.5194,5.5194,5.5194,5.5194,5.5194,5.5194,5.5194,5.5194,1.6556,1.6486,1.6836,1.6565,1.6703,0.0,0.0,1.8588,1.9475,1.9744,2.1121,2.2145,2.1592,2.2636,2.3534,2.3534,2.5209,2.6753,2.7534,3.0545,3.2855,3.3407,3.396,3.4638,3.5466,3.5495,3.5768,3.6367,3.6405,3.6644,3.7149,3.7713,3.8278,3.8906,3.9408,3.9697,3.9697,4.0237,4.0651,4.0887,4.1756,4.2351,4.2627,4.2848,4.2974,4.2974,4.2974,4.2974,4.2974,4.2974,4.2974,4.2974,4.2974,4.3137,4.3426,4.3702,4.4154,4.4719,4.5296,4.5485,4.556,4.6125,4.6313,4.6313,4.6313,4.6313,4.6313,4.6313,4.6313,4.6313,4.6313,4.6313,4.7027,5.0029,5.0754,5.1578,5.4575,5.5194,5.5194,5.5194,5.5194,5.5194,5.5194,5.5194,5.5194,5.5194,5.5194,5.5194,5.5194,5.5194,5.5194,5.5194,5.5194,5.5194,5.5194,5.5194,5.5194,5.5194,5.5194,5.5194,5.5194,5.5194,5.5194,5.5194,5.5194,5.5194,5.5194,5.5194,5.5194,5.5194,5.5194,5.5194,1.8008,1.7882,1.8164,1.7592,1.7442,1.7709,0.0,0.0,0.0,1.9808,2.0358,2.0536,1.999,2.069,2.1292,2.1066,2.2623,2.3434,2.2305,2.649,2.9967,3.0834,3.2315,3.3445,3.3884,3.4568,3.5378,3.6144,3.6153,3.638,3.6998,3.7651,3.8216,3.8693,3.9346,3.9697,3.9697,4.0337,4.0902,4.13,4.2007,4.2602,4.2974,4.2974,4.2974,4.2974,4.2974,4.2974,4.2974,4.2974,4.2974,4.2974,4.2974,4.3313,4.3815,4.3915,4.4606,4.5497,4.561,4.5937,4.6313,4.6313,4.6313,4.6313,4.6313,4.6313,4.6313,4.6313,4.6313,4.6313,4.6313,4.6313,4.7534,5.2348,5.3466,5.3794,5.4962,5.5194,5.5194,5.5194,5.5194,5.5194,5.5194,5.5194,5.5194,5.5194,5.5194,5.5194,5.5194,5.5194,5.5194,5.5194,5.5194,5.5194,5.5194,5.5194,5.5194,5.5194,5.5194,5.5194,5.5194,5.5194,5.5194,5.5194,5.5194,5.5194,5.5194,5.5194,5.5194,5.5194,5.5194,5.5194,1.8969,1.8524,1.883,1.817,1.8007,1.8034,1.8172,0.0,1.8113,1.7765,0.0,1.7622,1.7074,0.0,0.0,1.6609,1.8656,1.9999,1.892,2.1405,2.4092,2.6101,2.9101,3.1009,3.1072,3.2453,3.3985,3.547,3.5132,3.5366,3.6443,3.7437,3.804,3.8103,3.9132,3.9697,3.9697,4.0727,4.1225,4.13,4.2384,4.2924,4.2974,4.2974,4.2974,4.2974,4.2974,4.2974,4.2974,4.2974,4.2974,4.2974,4.2974,4.3313,4.3865,4.4355,4.4932,4.556,4.605,4.6263,4.6313,4.6313,4.6313,4.6313,4.6313,4.6313,4.6313,4.6313,4.6313,4.6313,4.6313,4.6313,4.6481,4.7146,4.7311,4.8762,5.4082,5.5194,5.5194,5.5194,5.5194,5.5194,5.5194,5.5194,5.5194,5.5194,5.5194,5.5194,5.5194,5.5194,5.5194,5.5194,5.5194,5.5194,5.5194,5.5194,5.5194,5.5194,5.5194,5.5194,5.5194,5.5194,5.5194,5.5194,5.5194,5.5194,5.5194,5.5194,5.5194,5.5194,5.5194,5.5194,1.9871,1.9758,2.0065,1.8536,1.8629,1.8844,1.7869,1.7887,1.7857,1.7017,0.0,0.0,0.0,0.0,0.0,0.0,1.6722,1.7513,1.6443,1.892,2.1807,2.4368,2.6201,2.8009,2.9955,3.1913,3.3633,3.4919,3.5107,3.5542,3.6367,3.7412,3.8002,3.8002,3.9107,3.9697,3.9697,4.0736,4.1288,4.13,4.2459,4.2974,4.2974,4.2974,4.2974,4.2974,4.2974,4.2974,4.2974,4.2974,4.2974,4.3011,4.3325,4.379,4.4305,4.4543,4.5196,4.5999,4.6225,4.6313,4.6313,4.6313,4.6313,4.6313,4.6313,4.6313,4.6313,4.6313,4.6313,4.6313,4.6313,4.6313,4.6313,4.6313,4.8921,5.2133,5.4641,5.5194,5.5194,5.5194,5.5194,5.5194,5.5194,5.5194,5.5194,5.5194,5.5194,5.5194,5.5194,5.5194,5.5194,5.5194,5.5194,5.5194,5.5194,5.5194,5.5194,5.5194,5.5194,5.5194,5.5194,5.5194,5.5194,5.5194,5.5194,5.5194,5.5194,5.5194,5.5194,5.5194,5.5194,5.5194,2.1864,2.1553,2.1447,1.9624,1.9366,1.9232,1.8028,1.7808,1.7665,1.689,1.6612,0.0,0.0,0.0,1.5009,1.4739,0.0,1.568,1.4576,1.6769,1.9321,2.1669,2.3113,2.5159,2.8335,3.0507,3.2353,3.3922,3.4643,3.5466,3.6367,3.7412,3.8002,3.8002,3.9107,3.9697,3.9697,4.0736,4.1288,4.13,4.2459,4.2974,4.2974,4.2974,4.2974,4.2974,4.2974,4.2974,4.2974,4.2974,4.2974,4.3037,4.3589,4.4141,4.4644,4.4807,4.5472,4.6313,4.6313,4.6313,4.6313,4.6313,4.6313,4.6313,4.6313,4.6313,4.6313,4.6313,4.6313,4.6313,4.6313,4.6313,4.6313,4.6313,5.0865,5.5194,5.5194,5.5194,5.5194,5.5194,5.5194,5.5194,5.5194,5.5194,5.5194,5.5194,5.5194,5.5194,5.5194,5.5194,5.5194,5.5194,5.5194,5.5194,5.5194,5.5194,5.5194,5.5194,5.5194,5.5194,5.5194,5.5194,5.5194,5.5194,5.5194,5.5194,5.5194,5.5194,5.5194,5.5194,5.5194,5.5194,2.5592,2.4001,2.2873,2.1849,2.0245,1.8913,1.8851,1.805,1.7319,1.7286,1.6862,1.6484,1.645,1.6032,1.5336,1.4286,1.4588,0.0,0.0,1.4299,1.5487,1.66,1.9623,2.2686,2.546,2.7268,2.939,3.2089,3.3319,3.465,3.6317,3.7412,3.8002,3.8002,3.9107,3.9697,3.9697,4.0736,4.1288,4.13,4.2459,4.2974,4.2974,4.2974,4.2974,4.2974,4.2974,4.2974,4.2974,4.2974,4.2974,4.3037,4.3589,4.4141,4.4694,4.5259,4.5824,4.6313,4.6313,4.6313,4.6313,4.6313,4.6313,4.6313,4.6313,4.6313,4.6313,4.6313,4.6313,4.6313,4.6313,4.6313,4.6313,4.6313,5.0865,5.5194,5.5194,5.5194,5.5194,5.5194,5.5194,5.5194,5.5194,5.5194,5.5194,5.5194,5.5194,5.5194,5.5194,5.5194,5.5194,5.5194,5.5194,5.5194,5.5194,5.5194,5.5194,5.5194,5.5194,5.5194,5.5194,5.5194,5.5194,5.5194,5.5194,5.5194,5.5194,5.5194,5.5194,5.5194,5.5194,5.5194,2.6431,2.5936,2.5226,2.2283,2.1947,2.1771,1.9535,1.903,1.8718,1.7665,1.694,1.6279,1.5573,1.5299,1.4941,1.4229,1.4236,1.3972,0.0,1.3303,1.4318,1.5806,1.8944,2.1483,2.2749,2.5724,2.8411,3.0457,3.2654,3.4462,3.5755,3.686,3.7626,3.8002,3.8743,3.932,3.9697,4.0425,4.0924,4.13,4.2082,4.2678,4.2974,4.2974,4.2974,4.2974,4.2974,4.2974,4.2974,4.2974,4.2974,4.3074,4.3991,4.4455,4.4694,4.5271,4.5836,4.6313,4.6313,4.6313,4.6313,4.6313,4.6313,4.6313,4.6313,4.6313,4.6313,4.6313,4.6313,4.6313,4.6313,4.9251,5.2187,5.2187,5.3742,5.5194,5.5194,5.5194,5.5194,5.5194,5.5194,5.5194,5.5194,5.5194,5.5194,5.5194,5.5194,5.5194,5.5194,5.5194,5.5194,5.5194,5.5194,5.5194,5.5194,5.5194,5.5194,5.5194,5.5194,5.5194,5.5194,5.5194,5.5194,5.5194,5.5194,5.5194,5.5194,5.5194,5.5194,5.5194,5.5194,5.5194,2.9483,2.86,2.7188,2.4376,2.4005,2.3629,2.0861,2.0214,1.9885,1.8861,1.7674,1.686,1.6935,1.5977,1.5198,1.5268,1.4601,1.377,0.0,1.3182,1.3986,1.5254,0.0,0.0,0.0,0.0,2.6615,2.9289,3.1499,3.3558,3.5395,3.6395,3.7236,3.799,3.8567,3.9132,3.9685,4.0237,4.0701,4.1053,4.1806,4.2401,4.274,4.2886,4.2974,4.2974,4.2974,4.2974,4.2974,4.2974,4.2974,4.3087,4.4192,4.4618,4.4719,4.5497,4.5999,4.6313,4.6313,4.6313,4.6313,4.6313,4.6313,4.6313,4.6313,4.6313,4.6313,4.6313,4.6313,4.6815,4.8921,5.2295,5.5194,5.5194,5.5194,5.5194,5.5194,5.5194,5.5194,5.5194,5.5194,5.5194,5.5194,5.5194,5.5194,5.5194,5.5194,5.5194,5.5194,5.5194,5.5194,5.5194,5.5194,5.5194,5.5194,5.5194,5.5194,5.5194,5.5194,5.5194,5.5194,5.5194,5.5194,5.5194,5.5194,5.5194,5.5194,5.5194,5.5194,5.5194,5.5194,5.5194]}]]